     2              OBSERVATION DATA    GPS                 RINEX VERSION / TYPE
teqc 2000Feb29 Duncan Agnew 20020605 22:40:10UTC            PGM / RUN BY / DATE
                                                            COMMENT
L2: 1 -> 1; 150 -> 5; 250 -> 9                              COMMENT
L2: 1 -> 1; 150 -> 5; 250 -> 9                              COMMENT
L2: 1 -> 1; 150 -> 5; 250 -> 9                              COMMENT
L2: 1 -> 1; 150 -> 5; 250 -> 9                              COMMENT
L2: 1 -> 1; 150 -> 5; 250 -> 9                              COMMENT
Original Marker Name: 6050                                  COMMENT
Campaign Name: Post-Hector                                  COMMENT
4-Character Station Name: 6050                              COMMENT
6-Character Antenna Code: DMRCHT                            COMMENT
Vertical Measurement Point: BCR                             COMMENT
Vertical Offset to Rinex Ref. Point: 0.0348                 COMMENT
Radial Measurement Point: ECF                               COMMENT
Radial Offset to Rinex Ref. Point: 0.1897                   COMMENT
Antenna Height from Field Measurement: 0.8780 m             COMMENT
Additional Antenna Identification Info.:                    COMMENT
Turborogue and Ashtech Choke Ring                           COMMENT
Original XYZ: -2341075.0500 -4729723.0500 3571354.6300      COMMENT
New XYZ position is based on association with SCEC monument COMMENT
E1F2G8N3+0011. Position of that monument is believed to be  COMMENT
valid to within 1 m horizontally; vertical accuracy         COMMENT
should be no worse than 3-times this value.                 COMMENT
                                                            COMMENT
Revised Rinex header created by UCSD GPS archive for        COMMENT
GSAC on 11-Jul-2003 (2003:192) 16:38:16 GMT                 COMMENT
For assistance contact dagnew@ucsd.edu                      COMMENT
or anderson@python.ucsd.edu                                 COMMENT
                                                            COMMENT
2838 19 DOR 1972                                            MARKER NAME
HYU UNIV CALIF LOS ANGELES                                  OBSERVER / AGENCY
107 ASHTECH Z-XII3 1L00                                     REC # / TYPE / VERS
782 DORNE-MARGOL. TYPE T                                    ANT # / TYPE
 -2341071.7293 -4729714.1870  3571345.6224                  APPROX POSITION XYZ
        0.8225        0.0000        0.0000                  ANTENNA: DELTA H/E/N
     1     1     0                                          WAVELENGTH FACT L1/2
     7    C1    L1    L2    P1    P2    S1    S2            # / TYPES OF OBSERV
     0                                                      INTERVAL
  2002     5    25     4    28    0.000000                  TIME OF FIRST OBS
  2002     5    25    12    36   60.000000                  TIME OF LAST OBS
                                                            END OF HEADER
 02  5 25  4 28  0.0000000  0  6G20G 2G27G22G 1G13
  20659289.324        8000.83059      5974.73658  20659289.006    20659296.099
       242.000         214.000
  21406396.540     -119574.14345
       237.000         151.000
  23962074.505     -222518.35744
       216.000         131.000
  20846676.935      -52465.86249    -38989.10547  20846676.257    20846683.671
       238.000         203.000
  21073419.859     -147000.08655
       243.000         151.000
  22470188.379     -286730.38659   -201119.77756  22470189.174    22470195.679
       226.000         180.000
 02  5 25  4 28 30.0000000  0  7G20G 2G27G25G22G 1G13
  20659994.185       11704.07059      8860.35658  20659993.918    20660000.810
       242.000         214.000
  21396381.684      -32505.80147                                  21396389.481
       239.000         210.000
  23941790.998      -50636.15743
       204.000          74.000
  24639693.148       74289.29755
       215.000         148.000
  20843312.222      -70144.88249    -52764.93447  20843312.025    20843320.006
       237.000         202.000
  21059947.122      -33648.81348                                  21059955.182
       244.000         215.000
  22450345.077     -391000.85359   -282369.40356  22450347.398    22450353.815
       216.000         163.000
 02  5 25  4 29  0.0000000  0  7G20G 2G27G25G22G 1G13
  20660791.150       15891.87549     12123.58148  20660790.943    20660797.712
       241.000         213.000
  21386445.267     -265496.39449    -73193.60347  21386444.583    21386453.179
       239.000         211.000
  23921526.671     -133615.54245                                  23921536.470
       215.000         158.000
  24648401.413      109949.44345                                  24648411.092
       214.000         149.000
  20840058.267      -87245.48049    -66090.04947  20840057.963    20840065.620
       235.000         203.000
  21046493.338     -343880.90159    -88739.13757  21046493.096    21046501.444
       241.000         212.000
  22430505.823     -495264.15049   -363613.43246  22430506.429    22430512.979
       225.000         174.000
 02  5 25  4 29 30.0000000  0  7G20G 2G27G25G22G 1G13
  20661681.798       20572.06449     15770.47648  20661681.341    20661688.741
       241.000         213.000
  21376589.054     -317291.15349   -113553.11247  21376588.599    21376596.878
       240.000         212.000
  23901283.329     -620258.06049   -216509.26945  23901283.402    23901293.806
       212.000         156.000
  24657091.858      199638.41349    145536.85645  24657092.225    24657101.204
       213.000         147.000
  20836916.216     -103759.50949    -78958.07947  20836915.458    20836923.252
       236.000         204.000
  21033060.230     -414470.93549   -143744.31647  21033059.932    21033068.514
       241.000         211.000
  22410668.203     -599510.27749   -444844.08646  22410668.734    22410675.796
       226.000         173.000
 02  5 25  4 30  0.0000000  0  7G20G 2G27G25G22G 1G13
  20662666.643       25747.39249     19803.17947  20662666.379    20662673.707
       241.000         212.000
  21366813.940     -368660.35749   -153581.02948  21366813.563    21366821.829
       241.000         215.000
  23881060.879     -726524.37049   -299314.01245  23881060.096    23881071.861
       213.000         156.000
  24665766.491      245218.74359    181054.00455  24665766.281    24665775.843
       213.000         149.000
  20833885.806     -119683.91649    -91366.67747  20833885.260    20833893.367
       238.000         206.000
  21019649.143     -484946.73849   -198660.50847  21019648.990    21019657.441
       241.000         210.000
  22390834.831     -703734.64749   -526057.80246  22390835.232    22390841.670
       225.000         170.000
 02  5 25  4 30 30.0000000  0  7G20G 2G27G25G22G 1G13
  20663744.148       31408.69449     24214.58347  20663743.902    20663750.843
       242.000         212.000
  21357118.430     -419611.65349   -193283.29748  21357117.915    21357125.850
       243.000         216.000
  23860858.764     -832684.51549   -382036.07745  23860858.526    23860869.996
       214.000         155.000
  24674421.147      290700.00549    216493.93045  24674420.807    24674430.419
       213.000         149.000
  20830966.300     -135027.55649   -103322.73247  20830965.770    20830973.567
       240.000         207.000
  21006258.617     -555315.35349   -253493.16247  21006258.335    21006266.525
       241.000         210.000
  22371004.617     -807944.21749   -607259.97846  22371004.759    22371011.521
       230.000         180.000
 02  5 25  4 31  0.0000000  0  7G20G 2G27G25G22G 1G13
  20664879.258       37373.40649     28862.39247  20664878.844    20664885.985
       242.000         212.000
  21347467.684     -470326.47549   -232801.30748  21347467.217    21347474.965
       243.000         217.000
  23840643.190     -938920.06249   -464816.88945  23840643.346    23840654.496
       212.000         158.000
  24683022.628      335899.92249    251714.64745  24683022.970    24683031.725
       217.000         149.000
  20828122.218     -149972.95249   -114968.47747  20828121.657    20828129.237
       241.000         208.000
  20992854.119     -625757.32849   -308382.98847  20992853.790    20992861.812
       241.000         210.000
  22351142.067     -912319.85849   -688591.56346  22351142.296    22351150.267
       227.000         179.000
 02  5 25  4 31 30.0000000  0  7G20G 2G27G25G22G 1G13
  20666094.110       43756.96249     33836.57947  20666093.585    20666100.624
       241.000         211.000
  21337884.162     -520687.80649   -272043.86748  21337883.832    21337891.662
       244.000         218.000
  23820434.714    -1045114.30249   -547565.50445  23820434.506    23820445.868
       212.000         157.000
  24691592.497      380934.25049    286806.32045  24691592.094    24691600.466
       214.000         147.000
  20825376.297     -164404.46149   -126213.79547  20825375.763    20825382.951
       242.000         208.000
  20979458.095     -696154.90049   -363238.20747  20979458.050    20979465.446
       242.000         209.000
  22331270.885    -1016743.92849   -769960.90246  22331270.840    22331278.119
       227.000         179.000
 02  5 25  4 32  0.0000000  0  7G20G 2G27G25G22G 1G13
  20667435.191       50806.10749     39329.40747  20667434.912    20667441.934
       241.000         210.000
  21328415.063     -570447.58249   -310817.68248  21328414.825    21328422.775
       246.000         219.000
  23800282.062    -1151019.19549   -630088.65045  23800281.851    23800292.074
       211.000         156.000
  24700178.081      426050.11149    321961.54945  24700177.876    24700185.514
       210.000         142.000
  20822774.698     -178075.13949   -136866.25147  20822774.282    20822781.491
       242.000         207.000
  20966117.693     -766259.20149   -417864.89647  20966117.375    20966124.519
       243.000         209.000
  22311437.660    -1120967.67249   -851174.13946  22311438.182    22311445.487
       227.000         180.000
 02  5 25  4 32 30.0000000  0  8G20G 2G27G25G22G 4G 1G13
  20668873.552       58364.78549     45219.27447  20668873.188    20668880.744
       240.000         209.000
  21319031.319     -619760.23049   -349243.08248  21319030.951    21319038.828
       246.000         219.000
  23780154.292    -1256789.43949   -712506.89545  23780154.344    23780164.982
       211.000         157.000
  24708748.764      471092.12949    357059.21945  24708748.866    24708756.636
       215.000         149.000
  20820288.501     -191140.68949   -147047.18747  20820287.969    20820294.750
       242.000         205.000
  24632021.637      -66864.22155                                  24632034.205
       204.000         146.000
  20952803.895     -836224.05449   -472382.92647  20952803.587    20952810.904
       244.000         209.000
  22291613.140    -1225145.06949   -932351.26046  22291613.630    22291621.217
       229.000         180.000
 02  5 25  4 33  0.0000000  0  8G20G 2G27G25G22G 4G 1G13
  20670414.362       66460.77549     51527.82947  20670413.909    20670421.338
       240.000         209.000
  21309738.239     -668596.65549   -387297.39948  21309737.607    21309745.672
       247.000         219.000
  23760057.377    -1362396.11749   -794797.69445  23760056.968    23760069.344
       210.000         157.000
  24717311.375      516088.72249    392121.52145  24717310.966    24717320.995
       210.000         151.000
  20817922.653     -203573.16649   -156734.82147  20817921.891    20817928.792
       241.000         203.000
  24626083.862     -122685.02749    -91173.38245  24626084.919    24626097.120
       206.000         146.000
  20939522.360     -906019.38849   -526768.85547  20939522.292    20939529.017
       244.000         210.000
  22271803.552    -1329245.93449  -1013468.75146  22271804.021    22271810.755
       228.000         180.000
 02  5 25  4 33 30.0000000  0  8G20G 2G27G25G22G 4G 1G13
  20672048.301       75045.56849     58217.26747  20672047.872    20672055.104
       240.000         208.000
  21300526.555     -717004.11149   -425017.45648  21300526.078    21300533.854
       247.000         219.000
  23739983.482    -1467886.33749   -876997.71845  23739983.461    23739995.179
       210.000         161.000
  24725855.415      560991.79449    427110.89145  24725855.687    24725865.182
       210.000         150.000
  20815667.850     -215420.85549   -165966.77247  20815667.290    20815674.303
       240.000         200.000
  24620229.631     -153460.66349   -115154.37645  24620229.635    24620240.766
       207.000         146.000
  20926264.446     -975691.35249   -581058.65047  20926264.193    20926270.773
       245.000         210.000
  22251999.537    -1433316.62249  -1094562.73146  22251999.635    22252007.271
       230.000         182.000
 02  5 25  4 34  0.0000000  0  8G20G 2G27G25G22G 4G 1G13
  20673775.092       84120.24149     65288.42347  20673774.636    20673781.868
       240.000         207.000
  21291397.004     -764980.05049   -462401.27548  21291396.707    21291404.496
       247.000         219.000
  23719932.191    -1573257.73849   -959105.16945  23719932.067    23719943.849
       214.000         162.000
  24734382.291      605802.58549    462028.39145  24734382.314    24734392.256
       209.000         149.000
  20813524.751     -226682.71949   -174742.24447  20813524.204    20813531.059
       238.000         200.000
  24614455.157     -183813.57759   -138805.97655  24614455.985    24614464.815
       206.000         147.000
  20913030.375    -1045236.60249   -635249.71047  20913030.114    20913037.028
       245.000         210.000
  22232201.844    -1537354.21049  -1175630.91946  22232202.314    22232209.527
       230.000         182.000
 02  5 25  4 34 30.0000000  0  8G20G 2G27G25G22G 4G 1G13
  20675595.144       93685.88449     72742.15247  20675594.674    20675601.851
       239.000         206.000
  21282350.313     -812521.87549   -499446.82448  21282349.786    21282357.575
       247.000         219.000
  23699903.784    -1678507.92149  -1041118.17845  23699903.410    23699915.230
       214.000         162.000
  24742892.685      650522.80749    496875.30945  24742893.081    24742903.003
       210.000         152.000
  20811493.177     -237357.30349   -183060.08547  20811492.733    20811499.910
       237.000         199.000
  24608758.417     -213742.70349   -162127.39645  24608758.902    24608771.195
       209.000         139.000
  20899821.115    -1114651.54449   -689339.23847  20899820.649    20899828.006
       245.000         210.000
  22212411.714    -1641355.25949  -1256670.65346  22212412.051    22212418.622
       232.000         184.000
 02  5 25  4 35  0.0000000  0  8G20G 2G27G25G22G 4G 1G13
  20677511.636      103756.62249     80589.46547  20677511.259    20677518.430
       239.000         206.000
  21273388.776     -859614.04849   -536141.99348  21273388.400    21273396.077
       247.000         218.000
  23679900.742    -1783621.41349  -1123024.66646  23679900.704    23679911.426
       214.000         163.000
  24751389.347      695167.49149    531663.33345  24751389.426    24751397.793
       212.000         153.000
  20809576.562     -247430.32049   -190909.17047  20809576.093    20809583.072
       237.000         201.000
  24603147.357     -243233.79459   -185107.44655  24603147.917    24603157.884
       207.000         146.000
  20886639.504    -1183919.79849   -743314.46247  20886639.328    20886646.886
       243.000         211.000
  22192630.979    -1745303.24349  -1337669.01146  22192630.891    22192638.248
       232.000         185.000
 02  5 25  4 35 30.0000000  0  8G20G 2G27G25G22G 4G 1G13
  20679522.339      114322.33249     88822.46747  20679521.799    20679528.805
       238.000         206.000
  21264511.308     -906265.33549   -572493.61548  21264510.896    21264518.655
       247.000         217.000
  23659923.062    -1888606.97249  -1204831.48246  23659922.502    23659933.446
       219.000         165.000
  24759869.833      739726.84949    566384.87145  24759869.861    24759877.837
       214.000         154.000
  20807772.204     -256911.82149   -198297.33247  20807771.601    20807779.651
       237.000         203.000
  24597617.117     -272297.46459   -207754.69755  24597617.604    24597628.341
       209.000         149.000
  20873484.612    -1253049.07349   -797181.39647  20873484.365    20873491.968
       242.000         211.000
  22172859.067    -1849206.22249  -1418632.31846  22172858.752    22172866.109
       233.000         186.000
 02  5 25  4 36  0.0000000  0  8G20G 2G27G25G22G 4G 1G13
  20681626.328      125379.20349     97438.19847  20681625.943    20681633.387
       239.000         206.000
  21255717.400     -952477.87649   -608503.35548  21255716.857    21255724.731
       246.000         216.000
  23639968.857    -1993466.90649  -1286540.40246  23639968.506    23639979.924
       216.000         165.000
  24768332.326      784198.38349    601037.99945  24768332.496    24768340.486
       212.000         153.000
  20806080.209     -265804.98449   -205227.04847  20806079.790    20806087.108
       239.000         205.000
  24592166.587     -300935.30649   -230069.88545  24592166.692    24592176.106
       205.000         139.000
  20860355.964    -1322040.51149   -850940.93247  20860355.690    20860363.446
       242.000         211.000
  22153094.629    -1953065.10549  -1499561.26446  22153094.931    22153102.633
       232.000         187.000
 02  5 25  4 36 30.0000000  0  8G20G 2G27G25G22G 4G 1G13
  20683825.336      136933.66149    106441.65947  20683824.836    20683832.175
       239.000         205.000
  21247008.370     -998244.04749   -644165.27548  21247007.848    21247015.586
       245.000         214.000
  23620039.743    -2098193.55749  -1368145.46146  23620039.721    23620050.469
       217.000         165.000
  24776778.669      828589.02549    635628.07745  24776778.863    24776786.408
       211.000         150.000
  20804501.016     -274103.70149   -211693.55847  20804500.391    20804508.005
       240.000         206.000
  24586799.157     -329141.82649   -252048.95645  24586799.669    24586810.611
       206.000         148.000
  20847255.010    -1390885.40149   -904586.27847  20847254.804    20847262.686
       241.000         210.000
  22133341.293    -2056871.39449  -1580449.22946  22133341.635    22133348.464
       232.000         187.000
 02  5 25  4 36 59.9990000  0  8G20G 2G27G25G22G 4G 1G13
  20686117.696      148980.58249    115828.85247  20686117.337    20686124.750
       239.000         205.000
  21238383.705    -1043565.70949   -679480.82347  21238383.271    21238391.171
       244.000         212.000
  23600136.468    -2202786.82749  -1449646.59546  23600136.281    23600147.005
       217.000         167.000
  24785209.982      872892.73249    670150.41245  24785210.156    24785217.755
       207.000         150.000
  20803034.133     -281812.30849   -217700.24347  20803033.539    20803041.123
       242.000         207.000
  24581512.576     -356920.78749   -273694.90645  24581512.628    24581524.567
       205.000         149.000
  20834182.103    -1459583.75149   -958117.43447  20834181.869    20834189.832
       241.000         211.000
  22113597.748    -2160624.22849  -1661295.53946  22113598.198    22113605.237
       233.000         186.000
 02  5 25  4 37 29.9990000  0  8G20G 2G27G25G22G 4G 1G13
  20688506.013      161530.77249    125608.20847  20688505.478    20688512.853
       239.000         205.000
  21229845.722    -1088434.35449   -714443.37747  21229845.223    21229852.823
       243.000         210.000
  23580258.847    -2307242.13349  -1531040.21746  23580258.693    23580269.207
       215.000         166.000
  24793627.009      917123.79649    704616.13145  24793626.790    24793634.350
       204.000         149.000
  20801681.350     -288920.92849   -223239.41547  20801680.807    20801688.425
       241.000         208.000
  24576309.136     -384263.40249   -295000.87745  24576309.496    24576320.798
       207.000         150.000
  20821138.552    -1528127.54849  -1011528.16347  20821138.226    20821146.367
       240.000         211.000
  22093865.768    -2264317.86549  -1742095.71846  22093865.701    22093873.399
       233.000         186.000
 02  5 25  4 37 59.9990000  0  8G20G 2G27G25G22G 4G 1G13
  20690988.490      174577.19149    135774.22947  20690988.182    20690995.181
       239.000         205.000
  21221392.570    -1132853.65949   -749055.79047  21221392.231    21221400.104
       241.000         208.000
  23560407.165    -2411561.34749  -1612327.78846  23560407.572    23560417.535
       211.000         164.000
  24802027.565      961274.60049    739019.31045  24802026.516    24802037.856
       201.000         145.000
  20800441.595     -295436.06649   -228316.13047  20800441.026    20800448.478
       241.000         207.000
  24571187.705     -411175.64949   -315971.46845  24571188.939    24571199.921
       207.000         153.000
  20808124.188    -1596518.76249  -1064819.99247  20808123.959    20808131.927
       241.000         212.000
  22074144.163    -2367953.29849  -1822850.55546  22074144.444    22074151.217
       230.000         185.000
 02  5 25  4 38 29.9990000  0  8G20G 2G27G25G22G 4G 1G13
  20693566.079      188121.41549    146328.15247  20693565.713    20693572.419
       239.000         204.000
  21213025.936    -1176820.35449   -783315.51947  21213025.384    21213033.547
       240.000         206.000
  23540582.224    -2515741.14449  -1693506.73946  23540582.126    23540592.339
       215.000         163.000
  24810415.042     1005347.09249    773361.48145  24810414.566    24810423.902
       201.000         147.000
  20799315.051     -301355.69549   -232928.81647  20799314.391    20799322.031
       241.000         206.000
  24566148.713     -437655.49049   -336605.10945  24566149.250    24566160.087
       205.000         150.000
  20795140.101    -1664752.92949  -1117989.44748  20795139.709    20795147.478
       243.000         213.000
  22054434.435    -2471526.13649  -1903556.60746  22054435.186    22054442.424
       231.000         185.000
 02  5 25  4 38 59.9990000  0  7G20G 2G27G22G 4G 1G13
  20696244.072      202193.48549    157293.38547  20696243.504    20696250.991
       239.000         204.000
  21204751.237    -1220302.84149   -817197.94347  21204750.808    21204759.140
       240.000         205.000
  23520790.900    -2619750.11449  -1774552.57446  23520790.366    23520801.225
       216.000         163.000
  20798307.550     -306649.73049   -237054.02847  20798306.807    20798314.656
       240.000         204.000
  24561197.944     -463672.44749   -356878.09445  24561198.729    24561210.623
       202.000         149.000
  20782191.562    -1732797.36749  -1171011.05648  20782191.311    20782198.820
       244.000         214.000
  22034743.073    -2575003.85649  -1984188.53346  22034743.605    22034751.095
       231.000         185.000
 02  5 25  4 39 29.9990000  0  7G20G 2G27G22G 4G 1G13
  20699021.507      216789.38549    168666.79747  20699021.026    20699028.554
       239.000         204.000
  21196568.513    -1263303.99749   -850705.30447  21196568.091    21196576.264
       240.000         205.000
  23501030.509    -2723590.64249  -1855467.14246  23501029.901    23501040.684
       215.000         163.000
  20797418.471     -311321.95949   -240694.71747  20797417.808    20797425.242
       239.000         202.000
  24556334.403     -489230.31749   -376793.35645  24556334.743    24556346.312
       202.000         148.000
  20769279.145    -1800653.54449  -1223885.97148  20769279.050    20769286.330
       245.000         215.000
  22015070.516    -2678388.04449  -2064747.57546  22015070.881    22015077.787
       233.000         186.000
 02  5 25  4 39 59.9990000  0  7G20G 2G27G22G 4G 1G13
  20701903.860      231937.96049    180470.85847  20701903.780    20701911.134
       238.000         204.000
  21188483.242    -1305793.63049   -883814.08047  21188482.582    21188490.486
       240.000         205.000
  23481308.041    -2827232.43649  -1936226.86846  23481307.779    23481317.851
       215.000         163.000
  20796653.149     -315343.65149   -243828.49247  20796652.696    20796659.753
       238.000         201.000
  24551564.229     -514300.35049   -396328.47245  24551564.660    24551575.525
       202.000         150.000
  20756408.390    -1868290.10849  -1276589.75348  20756408.224    20756415.483
       245.000         215.000
  21995421.093    -2781647.41049  -2145209.34846  21995420.984    21995427.428
       233.000         187.000
 02  5 25  4 40 29.9990000  0  7G20G 2G27G22G 4G 1G13
  20704896.292      247662.21849    192723.51147  20704895.933    20704903.210
       238.000         203.000
  21180499.672    -1347747.31049   -916505.23147  21180499.091    21180507.188
       241.000         206.000
  23461627.434    -2930651.19349  -2016812.77546  23461627.575    23461637.931
       215.000         163.000
  20796015.839     -318691.62649   -246437.29747  20796015.680    20796022.695
       238.000         200.000
  24546891.245     -538859.29149   -415465.30945  24546891.658    24546902.579
       206.000         149.000
  20743584.175    -1935681.32449  -1329102.35748  20743583.952    20743591.244
       245.000         215.000
  21975799.880    -2884756.23149  -2225553.80746  21975799.890    21975806.924
       233.000         186.000
 02  5 25  4 40 59.9990000  0  7G20G 2G27G22G 4G 1G13
  20707997.471      263958.43049    205421.84047  20707997.069    20708004.354
       238.000         203.000
  21172617.857    -1389167.11449   -948780.37547  21172617.501    21172625.081
       243.000         208.000
  23441989.873    -3033848.77849  -2097226.34146  23441989.910    23442000.260
       218.000         165.000
  20795506.454     -321369.33649   -248523.81447  20795505.675    20795513.440
       239.000         200.000
  24542314.517     -562910.48749   -434206.51445  24542312.855    24542325.401
       200.000         145.000
  20730806.615    -2002828.06449  -1381424.46048  20730806.375    20730813.708
       246.000         214.000
  21956207.027    -2987715.56649  -2305781.78446  21956208.117    21956214.565
       233.000         187.000
 02  5 25  4 41 29.9990000  0  7G20G 2G27G22G 4G 1G13
  20711200.071      280788.31349    218536.01747  20711199.529    20711207.078
       239.000         202.000
  21164830.581    -1430089.80749   -980668.16347  21164830.166    21164837.723
       244.000         210.000
  23422387.168    -3136862.15149  -2177496.38446  23422387.414    23422397.028
       218.000         166.000
  20795117.307     -323415.12849   -250117.93047  20795116.493    20795124.182
       237.000         200.000
  24537827.293     -586491.98249   -452581.75045  24537827.402    24537837.976
       200.000         146.000
  20718068.660    -2069766.23949  -1433584.04448  20718068.448    20718075.547
       245.000         213.000
  21936636.424    -3090561.40749  -2385921.31946  21936637.102    21936643.440
       233.000         187.000
 02  5 25  4 41 59.9990000  0  7G20G 2G27G22G 4G 1G13
  20714510.689      298186.46249    232092.99547  20714510.404    20714517.705
       239.000         201.000
  21157144.714    -1470479.39949  -1012140.54847  21157144.313    21157151.848
       245.000         212.000
  23402826.375    -3239655.13949  -2257594.70146  23402826.338    23402835.856
       221.000         166.000
  20794854.844     -324794.22749   -251192.53947  20794854.123    20794861.693
       239.000         201.000
  24533435.261     -609568.89649   -470563.80745  24533435.081    24533446.875
       203.000         148.000
  20705377.447    -2136458.32549  -1485551.87247  20705377.252    20705384.579
       244.000         212.000
  21917094.103    -3193255.92349  -2465942.93046  21917094.847    21917101.289
       232.000         186.000
 02  5 25  4 42 29.9990000  0  7G20G 2G27G22G 4G 1G13
  20717928.062      316145.30149    246086.88047  20717927.705    20717935.078
       239.000         201.000
  21149559.043    -1510341.81749  -1043202.14748  21149558.525    21149566.072
       245.000         213.000
  23383306.046    -3342233.85649  -2337526.04046  23383306.018    23383315.529
       220.000         169.000
  20794717.977     -325514.05549   -251753.43647  20794717.545    20794724.914
       239.000         203.000
  24529138.572     -632148.77849   -488158.53345  24529139.166    24529150.919
       201.000         148.000
  20692732.075    -2202908.99849  -1537331.58347  20692731.801    20692739.322
       243.000         211.000
  21897579.445    -3295804.24449  -2545850.62546  21897580.086    21897586.763
       231.000         186.000
 02  5 25  4 42 59.9990000  0  7G20G 2G27G22G 4G 1G13
  20721460.481      334706.80349    260550.36747  20721459.999    20721467.507
       239.000         201.000
  21142081.994    -1549633.73449  -1073819.20148  21142081.624    21142089.404
       246.000         215.000
  23363835.006    -3444554.70549  -2417256.43046  23363834.657    23363844.710
       223.000         169.000
  20794714.504     -325532.70149   -251767.95547  20794713.862    20794721.361
       240.000         204.000
  24524944.615     -654189.23749   -505332.94145  24524945.418    24524955.466
       203.000         148.000
  20680141.283    -2269073.54549  -1588888.34747  20680141.014    20680148.598
       242.000         210.000
  21878101.147    -3398161.86049  -2625609.72246  21878101.102    21878109.308
       232.000         186.000
 02  5 25  4 43 29.9990000  0  7G20G 2G27G22G 4G 1G13
  20725107.559      353871.44749    275483.83347  20725107.144    20725114.454
       240.000         201.000
  21134713.857    -1588353.51449  -1103990.43348  21134713.380    21134721.134
       247.000         216.000
  23344413.071    -3546615.73849  -2496784.37746  23344413.396    23344422.984
       221.000         170.000
  20794844.582     -324849.53949   -251235.61447  20794844.093    20794851.554
       241.000         206.000
  24520852.981     -675689.84049   -522086.68345  24520852.810    24520864.428
       202.000         146.000
  20667605.536    -2334948.90049  -1640219.76347  20667605.379    20667612.835
       242.000         209.000
  21858659.672    -3500325.57049  -2705217.72946  21858660.399    21858667.628
       231.000         186.000
 02  5 25  4 43 59.9990000  0  7G20G 2G27G22G 4G 1G13
  20728867.474      373629.64249    290879.80847  20728866.862    20728874.060
       240.000         200.000
  21127453.093    -1626509.21249  -1133722.12148  21127452.599    21127460.397
       247.000         217.000
  23325039.950    -3648424.76749  -2576115.95146  23325039.700    23325050.066
       225.000         172.000
  20795106.404     -323474.06149   -250163.80347  20795105.564    20795113.165
       241.000         207.000
  24516861.501     -696659.74549   -538426.88245  24516863.458    24516874.123
       201.000         144.000
  20655123.706    -2400541.63549  -1691330.95547  20655123.402    20655130.880
       242.000         209.000
  21839254.959    -3602301.85649  -2784679.68446  21839254.982    21839261.823
       235.000         187.000
 02  5 25  4 44 29.9990000  0  7G20G 2G27G22G 4G 1G13
  20732740.358      393982.36549    306739.04547  20732739.808    20732747.349
       241.000         199.000
  21120300.210    -1664098.03649  -1163012.09048  21120299.850    21120307.639
       248.000         218.000
  23305714.630    -3749979.02849  -2655249.00846  23305714.418    23305724.535
       224.000         173.000
  20795499.828     -321404.98349   -248551.52447  20795499.589    20795506.968
       241.000         206.000
  24512972.636     -717097.47849   -554352.40045  24512973.629    24512985.307
       198.000         145.000
  20642696.319    -2465847.61249  -1742218.70047  20642696.239    20642703.830
       242.000         209.000
  21819885.746    -3704086.97149  -2863992.67947  21819886.040    21819892.893
       235.000         188.000
 02  5 25  4 44 59.9990000  0  7G20G 2G27G22G 4G 1G13
  20736721.895      414905.79549    323042.98847  20736721.547    20736728.547
       240.000         197.000
  21113250.901    -1701142.61649  -1191877.97248  21113250.464    21113258.127
       247.000         219.000
  23286433.370    -3851300.88249  -2734200.97346  23286433.469    23286443.055
       223.000         172.000
  20796021.117     -318666.31749   -246417.47947  20796020.486    20796027.885
       239.000         205.000
  24509179.539     -737026.96649   -569881.90045  24509181.223    24509192.622
       201.000         144.000
  20630319.668    -2530887.88249  -1792899.39547  20630319.467    20630326.961
       242.000         210.000
  21800549.294    -3805701.81149  -2943172.98847  21800549.675    21800556.661
       236.000         189.000
 02  5 25  4 45 29.9990000  0  7G20G 2G27G22G 4G 1G13
  20740816.946      436423.19749    339809.76547  20740816.359    20740823.150
       241.000         196.000
  21106309.929    -1737618.19149  -1220300.47948  21106309.519    21106317.058
       247.000         218.000
  23267201.244    -3952365.39749  -2812952.41346  23267200.839    23267211.196
       222.000         171.000
  20796673.958     -315234.53649   -243743.34747  20796673.403    20796680.868
       237.000         202.000
  24505489.715     -756424.56049   -584996.94545  24505489.717    24505501.066
       200.000         146.000
  20617998.414    -2595636.35149  -1843352.71947  20617998.207    20618005.633
       243.000         211.000
  21781249.938    -3907120.25349  -3022200.25447  21781250.505    21781256.915
       237.000         190.000
 02  5 25  4 45 59.9990000  0  7G20G 2G27G22G 4G 1G13
  20745019.193      458505.66349    357016.85747  20745018.747    20745025.355
       240.000         196.000
  21099471.658    -1773552.11449  -1248300.91048  21099471.204    21099479.088
       246.000         218.000
  23248013.101    -4053199.76349  -2891524.50546  23248012.969    23248023.115
       222.000         172.000
  20797453.025     -311138.68649   -240551.75347  20797452.498    20797460.109
       235.000         200.000
  24501892.571     -775318.95949   -599719.87445  24501894.596    24501905.063
       198.000         144.000
  20605727.890    -2660119.05749  -1893598.94847  20605727.608    20605735.014
       243.000         211.000
  21761983.050    -4008368.68849  -3101095.05747  21761983.351    21761989.778
       237.000         191.000
 02  5 25  4 46 29.9990000  0  7G20G 2G27G22G 4G 1G13
  20749334.136      481182.25349    374686.89347  20749333.660    20749341.317
       239.000         194.000
  21092742.557    -1808914.04549  -1275855.64348  21092742.203    21092750.103
       245.000         218.000
  23228874.701    -4153773.37549  -2969893.42246  23228874.384    23228883.714
       222.000         171.000
  20798364.263     -306349.69349   -236820.04647  20798363.618    20798371.284
       235.000         198.000
  24498399.487     -793681.06349   -614028.02045  24498399.238    24498411.258
       197.000         144.000
  20593513.597    -2724303.98149  -1943613.14747  20593513.451    20593521.145
       243.000         212.000
  21742754.752    -4109414.96049  -3179832.33947  21742755.028    21742761.288
       237.000         192.000
 02  5 25  4 46 59.9990000  0  7G20G 2G27G22G 4G 1G13
  20753763.980      504462.98449    392827.67947  20753763.733    20753770.526
       239.000         193.000
  21086124.376    -1843692.34549  -1302955.59248  21086124.019    21086131.885
       244.000         217.000
  23209787.610    -4254074.18249  -3048049.76046  23209787.984    23209797.728
       221.000         172.000
  20799409.563     -300857.17649   -232540.15047  20799409.033    20799416.139
       236.000         197.000
  24495008.907     -811500.43049   -627913.27245  24495008.288    24495019.904
       200.000         144.000
  20581359.038    -2788177.90649  -1993385.00248  20581358.651    20581366.341
       243.000         213.000
  21723566.809    -4210245.74449  -3258401.71047  21723566.983    21723574.258
       237.000         192.000
 02  5 25  4 47 29.9990000  0  7G20G 2G27G22G 4G 1G13
  20758311.274      528358.29849    411447.36947  20758311.153    20758318.237
       238.000         192.000
  21079619.655    -1877874.95849  -1329591.36648  21079619.101    21079627.153
       244.000         216.000
  23190754.922    -4354090.14149  -3125984.13546  23190754.455    23190764.857
       220.000         171.000
  20800590.874     -294650.78549   -227703.99247  20800590.352    20800597.327
       239.000         198.000
  24491723.629     -828766.44349   -641367.32345  24491724.624    24491733.838
       203.000         144.000
  20569265.623    -2851727.46949  -2042904.10948  20569265.542    20569273.135
       243.000         213.000
  21704422.766    -4310847.83549  -3336792.87547  21704423.027    21704430.260
       237.000         193.000
 02  5 25  4 47 59.9990000  0  7G20G 2G27G22G 4G 1G13
  20762969.552      552836.85249    430521.53947  20762969.044    20762976.402
       238.000         192.000
  21073222.526    -1911492.04149  -1355786.47348  21073222.164    21073229.983
       243.000         215.000
  23171770.973    -4453851.09949  -3203719.81546  23171771.125    23171781.164
       222.000         171.000
  20801901.910     -287761.84249   -222335.98947  20801901.384    20801908.228
       240.000         200.000
  24488537.720     -845510.05549   -654414.29945  24488538.008    24488549.437
       204.000         148.000
  20557229.046    -2914980.94949  -2092192.50648  20557228.733    20557236.510
       243.000         213.000
  21685316.847    -4411249.68949  -3415028.02347  21685317.233    21685324.360
       237.000         193.000
 02  5 25  4 48 29.9990000  0  7G20G 2G27G22G 4G 1G13
  20767746.913      577941.63649    450083.67947  20767746.524    20767753.641
       237.000         191.000
  21066941.574    -1944498.79149  -1381505.98848  21066941.095    21066948.940
       243.000         213.000
  23152844.251    -4553311.96949  -3281221.67346  23152844.229    23152853.887
       222.000         172.000
  20803350.917     -280147.23649   -216402.53347  20803350.539    20803357.318
       241.000         201.000
  24485459.259     -861688.11149   -667020.58845  24485459.230    24485470.494
       205.000         149.000
  20545257.234    -2977892.16549  -2141214.20448  20545257.109    20545265.009
       243.000         214.000
  21666257.867    -4511405.16049  -3493071.18947  21666258.453    21666264.895
       237.000         192.000
 02  5 25  4 48 59.9990000  0  7G20G 2G27G22G 4G 1G13
  20772633.514      603622.75549    470094.91047  20772633.256    20772640.841
       236.000         191.000
  21060767.593    -1976944.01649  -1406787.95447  21060766.990    21060774.521
       243.000         212.000
  23133965.490    -4652521.14849  -3358527.41346  23133965.095    23133974.906
       221.000         172.000
  20804928.699     -271856.92949   -209942.55047  20804928.108    20804934.990
       241.000         203.000
  24482479.831     -877350.32349   -679224.90045  24482480.093    24482489.957
       207.000         151.000
  20533342.025    -3040508.26149  -2190005.93948  20533341.755    20533349.511
       243.000         215.000
  21647236.985    -4611361.13049  -3570958.89947  21647237.372    21647244.012
       237.000         192.000
 02  5 25  4 49 29.9990000  0  7G20G 2G27G22G 4G 1G13
  20777632.751      629893.56649    490565.64347  20777632.546    20777640.164
       236.000         191.000
  21054702.851    -2008812.92349  -1431620.84447  21054702.476    21054710.219
       242.000         211.000
  23115137.677    -4751463.61749  -3435625.32446  23115137.387    23115146.433
       222.000         172.000
  20806637.351     -262877.50949   -202945.58847  20806636.869    20806643.770
       240.000         204.000
  24479598.683     -892483.31749   -691016.86645  24479598.711    24479610.896
       202.000         151.000
  20521485.835    -3102812.67549  -2238554.80248  20521485.485    20521493.223
       243.000         215.000
  21628256.892    -4711101.40349  -3648678.53447  21628257.336    21628264.384
       238.000         193.000
 02  5 25  4 49 59.9990000  0  7G20G 2G27G22G 4G 1G13
  20782745.284      656757.37249    511498.44847  20782744.921    20782752.364
       237.000         192.000
  21048749.008    -2040100.52549  -1456000.77347  21048748.720    21048756.106
       243.000         210.000
  23096360.813    -4850134.01049  -3512511.22546  23096359.734    23096370.961
       220.000         172.000
  20808477.652     -253205.72049   -195409.10847  20808477.125    20808484.474
       238.000         203.000
  24476819.602     -907083.22749   -702393.44845  24476821.059    24476830.691
       205.000         150.000
  20509690.357    -3164798.81649  -2286855.65948  20509690.124    20509697.547
       245.000         215.000
  21609319.334    -4810619.24049  -3726224.84147  21609319.722    21609326.587
       238.000         193.000
 02  5 25  4 50 29.9990000  0  7G20G 2G27G22G 4G 1G13
  20787976.404      684247.52149    532919.32047  20787975.771    20787983.084
       236.000         191.000
  21042912.441    -2070772.07349  -1479900.66047  21042911.999    21042919.347
       244.000         210.000
  23077642.062    -4948497.34349  -3589157.85846  23077642.380    23077652.469
       219.000         172.000
  20810456.394     -242807.94449   -187306.91947  20810455.742    20810463.317
       237.000         203.000
  24474150.129     -921116.64949   -713328.60045  24474149.886    24474161.931
       201.000         149.000
  20497962.420    -3226430.38149  -2334880.22048  20497962.170    20497969.277
       245.000         215.000
  21590430.928    -4909878.25049  -3803569.47047  21590431.167    21590438.073
       238.000         193.000
 02  5 25  4 50 59.9990000  0  8G20G 2G 3G27G22G 4G 1G13
  20793322.980      712344.04449    554812.68947  20793322.798    20793329.583
       237.000         192.000
  21037189.654    -2100846.15649  -1503334.99547  21037189.288    21037196.409
       245.000         210.000
  24412639.246    -1576764.90459   -944671.50455  24412639.270    24412649.908
       206.000         146.000
  23058979.639    -5046571.75749  -3665579.36646  23058979.993    23058989.962
       219.000         173.000
  20812569.348     -231704.37649   -178654.76747  20812568.859    20812576.129
       238.000         203.000
  24471582.453     -934603.03749   -723837.51145  24471582.888    24471595.662
       198.000         148.000
  20486298.643    -3287724.12049  -2382641.54148  20486298.443    20486305.538
       245.000         215.000
  21571588.369    -5008895.15649  -3880725.44147  21571588.973    21571595.544
       236.000         192.000
 02  5 25  4 51 29.9990000  0  8G20G 2G 3G27G22G 4G 1G13
  20798783.019      741036.75349    577170.62347  20798782.493    20798790.253
       237.000         192.000
  21031578.613    -2130331.54649  -1526310.61147  21031578.201    21031585.599
       245.000         210.000
  24392236.288    -1683983.89549  -1028218.63045  24392236.555    24392247.396
       205.000         146.000
  23040369.980    -5144365.61849  -3741782.27246  23040369.854    23040379.771
       219.000         173.000
  20814814.510     -219905.12049   -169460.52547  20814813.728    20814821.416
       237.000         202.000
  24469118.366     -947552.79249   -733928.27245  24469119.647    24469131.942
       200.000         149.000
  20474697.681    -3348686.87249  -2430144.95248  20474697.508    20474704.701
       245.000         214.000
  21552790.654    -5107676.89149  -3957698.16247  21552790.852    21552797.957
       235.000         192.000
 02  5 25  4 51 59.9990000  0  8G20G 2G 3G27G22G 4G 1G13
  20804363.296      770361.52049    600021.06247  20804362.909    20804370.248
       237.000         192.000
  21026086.926    -2159190.69249  -1548798.24047  21026086.348    21026093.765
       246.000         210.000
  24371871.585    -1790997.23849  -1111605.51445  24371871.591    24371882.814
       203.000         145.000
  23021820.420    -5241841.00049  -3817736.99546  23021820.755    23021830.497
       218.000         173.000
  20817199.211     -207374.15249   -159696.12047  20817198.592    20817206.098
       238.000         201.000
  24466764.554     -959929.31049   -743572.36245  24466764.307    24466775.636
       201.000         149.000
  20463167.392    -3409279.66649  -2477360.07747  20463167.091    20463174.124
       244.000         212.000
  21534045.280    -5206184.46049  -4034457.25847  21534045.560    21534052.599
       235.000         191.000
 02  5 25  4 52 29.9990000  0  8G20G 2G 3G27G22G 4G 1G13
  20810058.638      800289.12149    623341.24547  20810058.357    20810065.001
       237.000         192.000
  21020709.250    -2187451.55149  -1570819.67347  21020708.689    21020716.117
       247.000         211.000
  24351542.371    -1897829.17049  -1194851.01245  24351542.038    24351554.118
       204.000         147.000
  23003326.668    -5339025.68949  -3893465.21546  23003326.897    23003336.972
       218.000         173.000
  20819717.424     -194140.82649   -149384.43047  20819716.837    20819723.876
       239.000         201.000
  24464512.710     -971762.09749   -752792.75945  24464513.071    24464523.926
       203.000         151.000
  20451702.431    -3469528.52149  -2524307.20047  20451702.329    20451709.017
       244.000         211.000
  21515347.430    -5304444.09049  -4111023.15247  21515347.291    21515354.462
       236.000         193.000
 02  5 25  4 52 59.9990000  0  8G20G 2G 3G27G22G 4G 1G13
  20815869.464      830825.04249    647135.44347  20815868.744    20815876.283
       237.000         191.000
  21015446.641    -2215107.06149  -1592369.40247  21015446.124    21015453.363
       247.000         212.000
  24331249.169    -2004469.30649  -1277947.03745  24331250.157    24331259.819
       203.000         145.000
  22984890.044    -5435912.27149  -3968961.12946  22984889.989    22984900.041
       220.000         173.000
  20822370.121     -180199.62949   -138521.15247  20822369.691    20822376.838
       238.000         199.000
  24462365.534     -983045.05249   -761584.69245  24462366.507    24462377.644
       202.000         151.000
  20440304.271    -3529424.63649  -2570979.46047  20440303.924    20440311.024
       243.000         209.000
  21496697.522    -5402446.88449  -4187388.91447  21496697.942    21496705.029
       234.000         191.000
 02  5 25  4 53 29.9990000  0  8G20G 2G 3G27G22G 4G 1G13
  20821794.071      861960.32949    671396.67847  20821793.848    20821801.111
       236.000         190.000
  21010297.677    -2242164.69749  -1613453.25248  21010297.193    21010304.826
       246.000         213.000
  24310992.529    -2110921.30749  -1360896.52045  24310991.908    24311003.855
       204.000         146.000
  22966508.980    -5532507.61349  -4044230.09846  22966508.169    22966517.839
       220.000         173.000
  20825156.067     -165559.41149   -127113.18247  20825155.614    20825163.047
       237.000         199.000
  24460321.370     -993787.01849   -769955.09545  24460321.949    24460333.051
       201.000         149.000
  20428972.251    -3588973.60349  -2617381.21847  20428972.006    20428979.100
       241.000         208.000
  21478096.175    -5500198.34349  -4263558.82947  21478096.774    21478103.626
       234.000         191.000
 02  5 25  4 53 59.9990000  0  8G20G 2G 3G27G22G 4G 1G13
  20827832.786      893693.15949    696123.53647  20827832.552    20827839.428
       236.000         189.000
  21005262.403    -2268624.89249  -1634071.56348  21005261.980    21005269.484
       246.000         214.000
  24290771.641    -2217182.38349  -1443697.24045  24290771.630    24290782.595
       203.000         147.000
  22948182.653    -5628811.75749  -4119272.17046  22948182.649    22948191.774
       221.000         173.000
  20828074.822     -150221.93549   -115161.90247  20828074.262    20828081.538
       237.000         199.000
  24458380.430    -1003989.42449   -777905.07545  24458380.565    24458391.610
       204.000         149.000
  20417706.697    -3648173.87549  -2663511.27147  20417706.552    20417713.804
       241.000         207.000
  21459542.995    -5597696.94149  -4339531.72247  21459543.275    21459549.426
       235.000         191.000
 02  5 25  4 54 29.9990000  0  8G20G 2G 3G27G22G 4G 1G13
  20833981.601      926004.76949    721301.38147  20833981.074    20833988.166
       235.000         188.000
  21000337.535    -2294505.00849  -1654237.85948  21000336.989    21000344.680
       246.000         215.000
  24270584.124    -2323266.13149  -1526359.77645  24270583.973    24270594.125
       202.000         146.000
  22929908.659    -5724841.57549  -4194100.48046  22929908.310    22929918.547
       220.000         172.000
  20831122.573     -134206.11049   -102682.04047  20831121.877    20831129.349
       239.000         200.000
  24456537.235    -1013670.78049   -785449.03745  24456537.808    24456549.792
       203.000         149.000
  20406504.615    -3707041.04849  -2709381.76747  20406504.383    20406511.659
       241.000         208.000
  21441034.575    -5694958.20549  -4415319.67147  21441035.097    21441041.475
       235.000         192.000
 02  5 25  4 54 59.9990000  0  8G20G 2G 3G27G22G 4G 1G13
  20840245.979      958926.08349    746954.32546  20840245.759    20840252.913
       233.000         187.000
  20995529.247    -2319772.61149  -1673926.87048  20995528.880    20995536.604
       245.000         215.000
  24250437.582    -2429136.79549  -1608856.25545  24250437.149    24250448.301
       201.000         147.000
  22911693.116    -5820564.28549  -4268689.49046  22911692.898    22911701.824
       220.000         172.000
  20834305.403     -117480.97849    -89649.46947  20834304.862    20834312.156
       239.000         200.000
  24454800.469    -1022800.11549   -792562.81845  24454801.117    24454812.262
       205.000         150.000
  20395372.798    -3765540.99649  -2754966.12047  20395372.483    20395379.433
       242.000         210.000
  21422577.792    -5791948.06249  -4490896.13347  21422578.169    21422585.137
       235.000         191.000
 02  5 25  4 55 29.9990000  0  8G20G 2G 3G27G22G 4G 1G13
  20846620.178      992420.73549    773054.02546  20846619.560    20846626.590
       234.000         186.000
  20990830.787    -2344462.42649  -1693165.65348  20990830.441    20990838.105
       244.000         216.000
  24230325.232    -2534825.52949  -1691210.93545  24230325.773    24230336.623
       198.000         146.000
  22893529.637    -5916014.25349  -4343065.97246  22893529.393    22893538.089
       221.000         172.000
  20837615.894     -100082.95449    -76092.56947  20837615.355    20837622.574
       238.000         201.000
  24453162.317    -1031413.47449   -799274.55045  24453162.244    24453173.434
       205.000         151.000
  20384304.439    -3823706.67149  -2800289.99547  20384304.119    20384311.100
       245.000         212.000
  21404166.761    -5888699.09949  -4566286.50247  21404166.838    21404173.671
       234.000         191.000
 02  5 25  4 55 59.9990000  0  8G20G 2G 3G27G22G 4G 1G13
  20853103.953     1026493.46049    799604.17246  20853103.722    20853110.863
       232.000         185.000
  20986243.632    -2368568.31549  -1711949.42648  20986243.183    20986250.992
       244.000         216.000
  24210250.400    -2640322.41249  -1773416.12545  24210251.051    24210261.182
       201.000         147.000
  22875419.621    -6011184.77349  -4417224.70446  22875418.538    22875427.861
       222.000         173.000
  20841055.591      -82007.24349    -62007.60247  20841054.962    20841062.379
       238.000         200.000
  24451621.959    -1039505.68649   -805580.18245  24451621.948    24451634.081
       205.000         150.000
  20373301.056    -3881529.92249  -2845347.04648  20373300.763    20373307.902
       246.000         214.000
  21385802.539    -5985203.52949  -4641484.70747  21385802.786    21385809.422
       236.000         191.000
 02  5 25  4 56 29.9990000  0  8G20G 2G 3G27G22G 4G 1G13
  20859706.062     1061188.31749    826639.09346  20859705.575    20859712.890
       231.000         184.000
  20981776.301    -2392044.66349  -1730242.64948  20981775.740    20981783.660
       243.000         216.000
  24190220.835    -2745578.43049  -1855433.64745  24190220.841    24190231.981
       201.000         148.000
  22857371.094    -6106029.80949  -4491129.81746  22857370.996    22857379.930
       222.000         173.000
  20844632.781      -63209.84249    -47360.27847  20844632.250    20844639.369
       238.000         200.000
  24450189.488    -1047032.78049   -811445.48345  24450189.639    24450201.061
       208.000         150.000
  20362371.839    -3938963.18849  -2890100.21348  20362371.686    20362378.865
       248.000         216.000
  21367494.386    -6081413.49449  -4716453.46447  21367494.794    21367501.483
       236.000         193.000
 02  5 25  4 56 59.9990000  0  8G20G 2G 3G27G22G 4G 1G13
  20866422.492     1096482.75849    854141.22546  20866422.059    20866429.054
       230.000         184.000
  20977424.632    -2414912.77549  -1748061.92248  20977424.253    20977431.957
       244.000         216.000
  24170234.299    -2850611.33949  -1937277.33845  24170234.480    24170244.650
       201.000         149.000
  22839380.113    -6200570.06249  -4564797.44246  22839379.691    22839388.880
       221.000         173.000
  20848342.675      -43713.32849    -32168.18347  20848342.198    20848349.363
       237.000         200.000
  24448860.854    -1054017.04449   -816887.80245  24448860.290    24448871.528
       206.000         150.000
  20351513.366    -3996025.75849  -2934564.52648  20351513.102    20351520.261
       248.000         218.000
  21349238.901    -6177348.45449  -4791207.92747  21349239.063    21349245.587
       237.000         194.000
 02  5 25  4 57 29.9990000  0  8G20G 2G 3G27G22G 4G 1G13
  20873251.580     1132371.18649    882106.21146  20873251.237    20873258.302
       229.000         184.000
  20973187.945    -2437176.65549  -1765410.36648  20973187.461    20973194.911
       244.000         216.000
  24150289.047    -2955421.10449  -2018947.14445  24150288.501    24150301.150
       203.000         149.000
  22821446.863    -6294809.10649  -4638230.35946  22821446.999    22821456.710
       222.000         173.000
  20852184.866      -23522.99949    -16435.45847  20852184.242    20852191.839
       237.000         201.000
  24447634.642    -1060463.46049   -821911.03345  24447635.047    24447645.876
       208.000         151.000
  20340724.825    -4052719.53949  -2978741.46848  20340724.585    20340731.690
       249.000         218.000
  21331035.009    -6273010.07049  -4865749.39947  21331035.363    21331041.350
       237.000         194.000
 02  5 25  4 57 59.9990000  0  8G20G 2G 3G27G22G 4G 1G13
  20880193.641     1168852.63549    910533.28446  20880193.533    20880200.615
       229.000         184.000
  20969066.246    -2458836.00049  -1782287.75248  20969065.844    20969073.549
       244.000         215.000
  24130386.822    -3060003.82849  -2100440.03345  24130385.895    24130398.280
       201.000         148.000
  22803571.458    -6388746.08249  -4711427.90346  22803571.007    22803580.807
       221.000         174.000
  20856158.641       -2640.37549      -163.27547  20856157.939    20856165.646
       238.000         201.000
  24446510.019    -1066372.94249   -826515.87945  24446510.679    24446521.367
       212.000         153.000
  20330006.729    -4109042.30749  -3022629.31348  20330006.586    20330013.851
       248.000         218.000
  21312883.396    -6368396.30749  -4940076.28447  21312883.843    21312890.496
       237.000         195.000
 02  5 25  4 58 29.9980000  0  8G20G 2G 3G27G22G 4G 1G13
  20887244.668     1205904.06049    939404.50546  20887244.169    20887251.499
       229.000         184.000
  20965055.975    -2479910.43349  -1798709.36548  20965055.497    20965062.991
       245.000         214.000
  24110525.875    -3164372.61049  -2181766.23145  24110526.326    24110536.330
       204.000         148.000
  22785750.173    -6482397.67949  -4784403.09046  22785750.729    22785759.323
       221.000         174.000
  20860260.094       18912.25849     16630.98647  20860259.632    20860266.757
       238.000         202.000
  24445483.323    -1071766.98649   -830719.06245  24445483.672    24445495.638
       210.000         153.000
  20319356.498    -4165010.42949  -3066240.80948  20319356.198    20319363.469
       247.000         217.000
  21294781.818    -6463522.11449  -5014200.24547  21294782.243    21294788.279
       238.000         196.000
 02  5 25  4 58 59.9980000  0  8G20G 2G 3G27G22G 4G 1G13
  20894408.209     1243548.53549    968737.84046  20894408.189    20894415.265
       230.000         184.000
  20961160.865    -2500379.30149  -1814659.11148  20961160.454    20961167.930
       246.000         214.000
  24090709.902    -3268508.58249  -2262911.03745  24090709.674    24090720.972
       202.000         149.000
  22767985.864    -6575747.46049  -4857143.08346  22767985.377    22767995.629
       222.000         174.000
  20864493.038       41156.98549     33964.54747  20864492.492    20864500.087
       239.000         203.000
  24444559.132    -1076625.02649   -834504.59745  24444558.709    24444570.087
       212.000         152.000
  20308777.314    -4220603.58949  -3109560.13248  20308777.141    20308784.405
       246.000         216.000
  21276733.206    -6558369.39149  -5088107.16947  21276733.505    21276739.859
       239.000         198.000
 02  5 25  4 59 29.9980000  0  8G20G 2G 3G27G22G 4G 1G13
  20901677.609     1281748.27749    998503.85046  20901676.723    20901684.639
       230.000         184.000
  20957374.276    -2520277.08949  -1830163.86748  20957373.989    20957381.368
       245.000         213.000
  24070931.787    -3372440.01049  -2343896.44745  24070932.013    24070942.664
       205.000         151.000
  22750273.587    -6668826.81349  -4929672.35646  22750273.412    22750283.122
       220.000         175.000
  20868850.559       64056.26249     51808.14747  20868849.740    20868857.486
       238.000         202.000
  24443729.199    -1080983.32349   -837900.72245  24443729.882    24443740.998
       208.000         151.000
  20298263.529    -4275853.06449  -3152611.64748  20298263.204    20298270.661
       244.000         213.000
  21258731.217    -6652968.31649  -5161820.56747  21258731.651    21258738.133
       238.000         198.000
 02  5 25  4 59 59.9980000  0  8G20G 2G 3G27G22G 4G 1G13
  20909059.549     1320541.82049   1028732.56546  20909059.373    20909066.887
       228.000         183.000
  20953704.165    -2539563.47449  -1845192.20847  20953703.733    20953711.239
       246.000         212.000
  24051201.522    -3476122.72449  -2424688.03445  24051201.573    24051212.157
       205.000         152.000
  22732619.753    -6761595.05949  -5001959.21646  22732619.565    22732629.774
       220.000         174.000
  20873340.206       87648.90649     70192.02947  20873339.667    20873346.850
       238.000         202.000
  24443001.917    -1084802.89849   -840877.05845  24443002.187    24443013.354
       209.000         151.000
  20287822.886    -4330716.54549  -3195362.39847  20287822.613    20287830.449
       241.000         211.000
  21240785.038    -6747276.48249  -5235307.40447  21240785.150    21240791.823
       238.000         198.000
 02  5 25  5  0 29.9980000  0  8G20G 2G 3G27G22G 4G 1G13
  20916546.000     1359884.79449   1059389.40446  20916545.531    20916553.803
       228.000         182.000
  20950142.307    -2558281.48349  -1859777.66147  20950141.850    20950149.251
       246.000         210.000
  24031511.742    -3579595.94449  -2505316.38645  24031511.703    24031521.915
       207.000         153.000
  22715018.235    -6854094.49549  -5074036.61346  22715017.958    22715027.676
       221.000         177.000
  20877953.352      111890.44749     89081.54347  20877953.115    20877960.206
       239.000         201.000
  24442369.961    -1088127.94649   -843468.03845  24442369.672    24442381.449
       212.000         153.000
  20277448.408    -4385234.95649  -3237844.26347  20277448.157    20277455.944
       241.000         209.000
  21222886.166    -6841334.57749  -5308599.37847  21222886.721    21222893.228
       238.000         198.000
 02  5 25  5  0 59.9980000  0  8G20G 2G 3G27G22G 4G 1G13
  20924133.664     1399755.58449   1090457.52546  20924133.111    20924140.930
       229.000         181.000
  20946684.742    -2576451.55349  -1873936.15247  20946684.296    20946691.566
       246.000         210.000
  24011858.429    -3682876.31249  -2585794.49345  24011857.812    24011868.743
       207.000         154.000
  22697463.572    -6946344.84649  -5145919.91646  22697463.281    22697472.517
       221.000         176.000
  20882685.806      136758.88349    108459.54147  20882685.320    20882692.328
       238.000         199.000
  24441827.335    -1090979.94549   -845690.42545  24441827.535    24441838.578
       212.000         155.000
  20267135.893    -4439426.57049  -3280071.48147  20267135.725    20267143.569
       240.000         207.000
  21205031.675    -6935160.97649  -5381710.80947  21205031.957    21205038.509
       239.000         199.000
 02  5 25  5  1 29.9980000  0  8G20G 2G 3G27G22G 4G 1G13
  20931829.561     1440197.98749   1121971.05646  20931829.005    20931836.972
       229.000         181.000
  20943339.826    -2594028.51449  -1887632.48247  20943339.360    20943346.861
       245.000         210.000
  23992250.948    -3785914.82349  -2666084.13845  23992250.846    23992261.060
       208.000         154.000
  22679964.787    -7038300.36749  -5217573.48646  22679964.576    22679974.186
       222.000         177.000
  20887545.524      162298.25849    128360.34447  20887544.729    20887551.950
       237.000         197.000
  24441383.890    -1093314.88949   -847509.91145  24441383.768    24441394.147
       213.000         155.000
  20256895.106    -4493243.88249  -3322007.03447  20256895.053    20256901.805
       241.000         207.000
  21187230.769    -7028708.07849  -5454604.60747  21187230.861    21187237.156
       240.000         199.000
 02  5 25  5  1 59.9980000  0  8G20G 2G 3G27G22G 4G 1G13
  20939632.506     1481204.09849   1153923.83046  20939632.171    20939640.348
       229.000         180.000
  20940106.934    -2611018.40849  -1900871.35347  20940106.351    20940113.687
       245.000         210.000
  23972687.393    -3888713.93649  -2746187.25645  23972687.238    23972699.759
       207.000         152.000
  22662520.999    -7129966.68749  -5289001.68046  22662520.808    22662530.724
       222.000         178.000
  20892531.674      188500.58649    148777.73447  20892531.078    20892537.995
       236.000         195.000
  24441036.037    -1095140.30449   -848932.35245  24441036.832    24441046.953
       209.000         154.000
  20246724.587    -4546691.16249  -3363654.24147  20246724.245    20246731.262
       243.000         208.000
  21169481.671    -7121979.78749  -5527283.81647  21169482.024    21169488.132
       240.000         200.000
 02  5 25  5  2 29.9980000  0  7G20G 2G 3G27G22G 1G13
  20947545.953     1522788.22949   1186327.01046  20947545.405    20947553.382
       229.000         179.000
  20936988.524    -2627405.63549  -1913640.61047  20936988.110    20936995.471
       245.000         211.000
  23953174.722    -3991254.09149  -2826088.57145  23953174.955    23953185.374
       208.000         152.000
  22645135.265    -7221327.44349  -5360191.76246  22645135.277    22645144.743
       223.000         178.000
  20897646.727      215380.33049    169722.98647  20897645.878    20897653.323
       235.000         194.000
  20236627.771    -4599750.54949  -3404999.19247  20236627.507    20236634.356
       245.000         209.000
  21151788.416    -7214958.21949  -5599734.48347  21151788.725    21151794.586
       240.000         200.000
 02  5 25  5  2 59.9980000  0  7G20G 2G 3G27G22G 1G13
  20955560.735     1564904.48249   1219144.81746  20955559.604    20955567.740
       230.000         179.000
  20933976.423    -2643234.75449  -1925974.97048  20933976.074    20933983.338
       244.000         213.000
  23933703.942    -4093575.88149  -2905819.72745  23933704.584    23933714.267
       210.000         151.000
  22627800.159    -7312426.61549  -5431178.01946  22627800.183    22627809.097
       225.000         179.000
  20902881.921      242891.33749    191160.13347  20902881.086    20902888.394
       236.000         195.000
  20226596.672    -4652464.32449  -3446074.82847  20226596.440    20226603.200
       246.000         211.000
  21134142.612    -7307685.64949  -5671989.56947  21134142.828    21134149.379
       239.000         200.000
 02  5 25  5  3 29.9980000  0  7G20G 2G 3G27G22G 1G13
  20963676.372     1607553.59149   1252377.84646  20963676.142    20963683.394
       230.000         178.000
  20931070.834    -2658503.78449  -1937872.89648  20931070.453    20931077.764
       245.000         214.000
  23914276.247    -4195672.91049  -2985375.76645  23914275.581    23914286.659
       213.000         152.000
  22610515.195    -7403261.38749  -5501958.25046  22610514.114    22610523.567
       225.000         179.000
  20908237.378      271034.17249    213089.61047  20908236.893    20908244.241
       237.000         197.000
  20216632.326    -4704828.13949  -3486877.77448  20216632.202    20216638.869
       247.000         213.000
  21116545.619    -7400157.61149  -5744045.59247  21116545.891    21116552.269
       238.000         199.000
 02  5 25  5  3 59.9980000  0  7G20G 2G 3G27G22G 1G13
  20971888.908     1650711.15649   1286007.07146  20971888.173    20971895.614
       229.000         178.000
  20928267.507    -2673235.49549  -1949352.12748  20928267.150    20928274.504
       245.000         215.000
  23894887.085    -4297564.57349  -3064771.75845  23894886.666    23894896.832
       213.000         153.000
  22593275.941    -7493853.92749  -5572549.73546  22593275.519    22593284.592
       226.000         178.000
  20913708.614      299784.57349    235492.51947  20913708.195    20913715.331
       238.000         199.000
  20206730.488    -4756862.69549  -3527424.14748  20206730.288    20206737.207
       248.000         214.000
  21098993.181    -7492394.72249  -5815918.61147  21098993.257    21099000.306
       237.000         199.000
 02  5 25  5  4 29.9980000  0  7G20G 2G 3G27G22G 1G13
  20980213.470     1694457.92849   1320095.41746  20980213.172    20980221.083
       228.000         177.000
  20925581.961    -2687347.74649  -1960348.65648  20925581.565    20925588.992
       245.000         216.000
  23875552.643    -4399164.75749  -3143940.63245  23875552.506    23875562.627
       212.000         152.000
  22576098.135    -7584121.52649  -5642888.00846  22576098.054    22576106.454
       225.000         179.000
  20919310.758      329223.23349    258431.72847  20919310.079    20919317.364
       239.000         201.000
  20196907.364    -4808483.62849  -3567648.22548  20196907.045    20196914.322
       248.000         215.000
  21081501.749    -7584312.52649  -5887542.82247  21081502.106    21081508.613
       237.000         198.000
 02  5 25  5  4 59.9980000  0  7G20G 2G 3G27G22G 1G13
  20988642.928     1738753.66249   1354611.53146  20988642.421    20988650.073
       228.000         177.000
  20923007.086    -2700879.32049  -1970892.71148  20923006.561    20923014.217
       245.000         217.000
  23856267.147    -4500508.53849  -3222909.68945  23856266.442    23856277.700
       210.000         151.000
  22558975.431    -7674102.18849  -5713002.69446  22558975.399    22558983.674
       226.000         178.000
  20925035.752      359309.67349    281875.70847  20925035.138    20925042.691
       237.000         200.000
  20187155.863    -4859727.44649  -3607578.45448  20187155.718    20187162.815
       248.000         216.000
  21064063.977    -7675947.42049  -5958946.58847  21064064.349    21064071.235
       237.000         198.000
 02  5 25  5  5 29.9980000  0  7G20G 2G 3G27G22G 1G13
  20997171.780     1783571.13549   1389534.20246  20997171.389    20997178.343
       227.000         177.000
  20920537.662    -2713855.76549  -1981004.20348  20920537.309    20920544.755
       246.000         217.000
  23837026.066    -4601617.21949  -3301695.54645  23837025.421    23837036.828
       208.000         150.000
  22541902.341    -7763820.80149  -5782913.20046  22541901.828    22541910.343
       226.000         178.000
  20930878.782      390016.97749    305803.48347  20930878.467    20930886.015
       236.000         199.000
  20177471.842    -4910617.49349  -3647233.02048  20177471.582    20177478.626
       246.000         215.000
  21046675.650    -7767322.47849  -6030147.88547  21046675.953    21046682.887
       237.000         199.000
 02  5 25  5  5 59.9980000  0  7G20G 2G 3G27G22G 1G13
  21005798.580     1828908.55449   1424862.02846  21005798.173    21005805.639
       225.000         176.000
  20918173.886    -2726277.62449  -1990683.54948  20918173.309    20918180.833
       246.000         217.000
  23817831.875    -4702487.56149  -3380295.69445  23817831.583    23817842.179
       208.000         148.000
  22524879.146    -7853277.13949  -5852619.34046  22524879.228    22524888.172
       224.000         177.000
  20936839.724      421343.15549    330213.50547  20936838.997    20936847.504
       234.000         197.000
  20167855.294    -4961152.07949  -3686610.60548  20167855.057    20167862.197
       244.000         215.000
  21029337.673    -7858435.90549  -6101145.31047  21029338.052    21029344.228
       238.000         200.000
 02  5 25  5  6 29.9980000  0  7G20G 2G 3G27G22G 1G13
  21014524.658     1874762.03749   1460591.98146  21014523.960    21014531.971
       226.000         176.000
  20915914.999    -2738147.47949  -1999932.76048  20915914.511    20915922.117
       245.000         216.000
  23798682.208    -4803118.36549  -3458709.19045  23798680.558    23798691.846
       210.000         146.000
  22507905.414    -7942473.08049  -5922122.56146  22507905.237    22507913.268
       223.000         176.000
  20942917.680      453283.99449    355102.48247  20942917.601    20942925.332
       234.000         196.000
  20158306.289    -5011331.46049  -3725711.41248  20158306.146    20158313.511
       243.000         213.000
  21012049.558    -7949287.85449  -6171938.98547  21012049.985    21012056.191
       239.000         201.000
 02  5 25  5  6 59.9980000  0  7G20G 2G 3G27G22G 1G13
  21023357.018     1921175.91349   1496758.61446  21023356.433    21023364.055
       226.000         175.000
  20913769.924    -2749419.40549  -2008716.05748  20913769.552    20913776.864
       245.000         214.000
  23779587.591    -4903459.46249  -3536896.95545  23779587.552    23779599.100
       211.000         147.000
  22490990.276    -8031362.05049  -5991386.58446  22490990.087    22490998.753
       223.000         176.000
  20949121.781      485883.98849    380505.07347  20949121.081    20949128.773
       235.000         196.000
  20148833.987    -5061107.39149  -3764497.84547  20148833.923    20148841.583
       241.000         212.000
  20994820.064    -8039829.81449  -6242491.10347  20994820.244    20994826.222
       241.000         201.000
 02  5 25  5  7 29.9980000  0  7G20G 2G 3G27G22G 1G13
  21032288.837     1968111.41649   1533331.69546  21032288.669    21032295.926
       226.000         175.000
  20911731.520    -2760130.98549  -2017062.72847  20911731.032    20911738.499
       245.000         212.000
  23760541.891    -5003544.44849  -3614885.13645  23760541.162    23760551.073
       208.000         145.000
  22474126.546    -8119980.87049  -6060440.10146  22474125.877    22474135.428
       222.000         175.000
  20955443.559      519104.03649    406390.80947  20955443.010    20955450.427
       237.000         196.000
  20139431.942    -5110515.12449  -3802997.37447  20139431.943    20139439.435
       241.000         211.000
  20977642.401    -8130096.72949  -6312828.90147  20977642.969    20977649.032
       240.000         201.000
 02  5 25  5  7 59.9980000  0  7G20G 2G 3G27G22G 1G13
  21041313.838     2015539.78049   1570288.83246  21041313.366    21041320.942
       226.000         175.000
  20909794.521    -2770309.47249  -2024994.00147  20909794.092    20909801.444
       244.000         211.000
  23741540.137    -5103396.46449  -3692691.77945  23741540.017    23741550.003
       208.000         143.000
  22457308.846    -8208355.57849  -6129303.41146  22457308.987    22457317.966
       222.000         174.000
  20961878.042      552915.67649    432737.52647  20961877.335    20961884.199
       237.000         195.000
  20130095.522    -5159579.29549  -3841229.19147  20130095.234    20130102.861
       241.000         211.000
  20960512.723    -8220113.60649  -6382971.86347  20960513.046    20960519.145
       240.000         200.000
 02  5 25  5  8 29.9980000  0  7G20G 2G 3G27G22G 1G13
  21050435.493     2063476.15349   1607641.79946  21050435.316    21050443.065
       226.000         175.000
  20907962.199    -2779938.36049  -2032497.02347  20907962.003    20907969.176
       245.000         209.000
  23722587.390    -5202994.89449  -3770300.82545  23722585.867    23722597.458
       211.000         143.000
  22440541.811    -8296469.05649  -6197963.16546  22440542.291    22440550.607
       221.000         173.000
  20968427.235      587333.92149    459556.92747  20968426.650    20968433.930
       236.000         194.000
  20120827.831    -5208281.10349  -3879178.65247  20120827.457    20120835.413
       242.000         211.000
  20943434.328    -8309861.00949  -6452904.85647  20943434.700    20943440.733
       241.000         200.000
 02  5 25  5  8 59.9980000  0  7G20G 2G 3G27G22G 1G13
  21059659.319     2111945.96949   1645410.43946  21059658.193    21059666.341
       226.000         173.000
  20906239.529    -2788990.60949  -2039550.71347  20906239.343    20906246.383
       245.000         208.000
  23703688.300    -5302309.09549  -3847688.39345  23703688.049    23703696.745
       211.000         143.000
  22423828.824    -8384293.82749  -6266397.94946  22423828.421    22423837.530
       220.000         173.000
  20975096.891      622383.97049    486868.65147  20975096.365    20975103.624
       235.000         193.000
  20111634.831    -5256591.46949  -3916823.07747  20111634.450    20111642.070
       244.000         212.000
  20926412.820    -8399309.66349  -6522605.05147  20926413.163    20926419.007
       241.000         200.000
 02  5 25  5  9 29.9980000  0  7G20G 2G 3G27G22G 1G13
  21068979.798     2160924.58449   1683575.55546  21068978.991    21068986.689
       224.000         171.000
  20904622.492    -2797489.70549  -2046173.38147  20904622.004    20904629.346
       245.000         209.000
  23684839.705    -5401358.18449  -3924869.38145  23684840.063    23684850.030
       211.000         145.000
  22407167.278    -8471852.38749  -6334625.31246  22407166.830    22407175.792
       220.000         174.000
  20981882.417      658041.07249    514653.40747  20981881.625    20981889.292
       234.000         192.000
  20102512.388    -5304531.28549  -3954178.76448  20102512.204    20102519.416
       244.000         213.000
  20909444.172    -8488480.40049  -6592088.69547  20909444.633    20909450.450
       241.000         200.000
 02  5 25  5  9 59.9980000  0  7G20G 2G 3G27G22G 1G13
  21078396.991     2210411.88149   1722137.04846  21078396.221    21078404.386
       222.000         170.000
  20903110.622    -2805434.11149  -2052363.82547  20903110.142    20903117.325
       246.000         210.000
  23666043.023    -5500136.39949  -4001839.30845  23666042.365    23666053.035
       212.000         147.000
  22390556.284    -8559142.42749  -6402643.42746  22390555.929    22390565.574
       221.000         174.000
  20988783.491      694305.32549    542911.26547  20988782.742    20988789.648
       235.000         193.000
  20093461.111    -5352096.60049  -3991242.62648  20093460.826    20093467.833
       246.000         213.000
  20892529.336    -8577369.15549  -6661352.61047  20892529.501    20892535.432
       242.000         202.000
 02  5 25  5 10 29.9980000  0  7G20G 2G 3G27G22G 1G13
  21087905.883     2260385.11149   1761077.20246  21087906.515    21087913.482
       221.000         169.000
  20901700.272    -2812845.61249  -2058139.01447  20901699.842    20901707.284
       245.000         211.000
  23647294.727    -5598661.39149  -4078611.88445  23647294.483    23647305.125
       214.000         149.000
  22373993.246    -8646184.61949  -6470468.41446  22373992.974    22374001.421
       222.000         174.000
  20995795.565      731153.64749    571624.23347  20995794.974    20995801.730
       236.000         194.000
  20084477.250    -5399306.53449  -4028029.56248  20084477.271    20084483.928
       244.000         213.000
  20875664.285    -8665994.91249  -6730411.59347  20875664.681    20875670.720
       242.000         202.000
 02  5 25  5 10 59.9980000  0  7G20G 2G 3G27G22G 1G13
  21097505.763     2310833.55249   1800387.62446  21097506.096    21097514.622
       221.000         169.000
  20900389.739    -2819733.21449  -2063505.96748  20900389.227    20900396.569
       245.000         213.000
  23628593.542    -5696938.01449  -4155190.95245  23628593.366    23628603.394
       215.000         152.000
  22357475.117    -8732987.40249  -6538106.85046  22357474.741    22357483.019
       222.000         175.000
  21002916.864      768575.48649    600784.08647  21002916.165    21002922.397
       237.000         194.000
  20075559.955    -5446167.79449  -4064544.80348  20075559.518    20075566.555
       244.000         213.000
  20858848.268    -8754364.21049  -6799270.73747  20858848.701    20858854.362
       243.000         203.000
 02  5 25  5 11 29.9980000  0  7G20G 2G 3G27G22G 1G13
  21107193.219     2361735.53749   1840051.47546  21107192.521    21107200.544
       223.000         171.000
  20899174.850    -2826117.27749  -2068480.55048  20899174.519    20899181.901
       245.000         214.000
  23609936.120    -5794982.85049  -4231589.40645  23609935.561    23609945.819
       218.000         155.000
  22340998.791    -8819570.31449  -6605573.95046  22340998.431    22341007.077
       224.000         178.000
  21010142.766      806548.77749    630373.64747  21010142.340    21010148.996
       236.000         193.000
  20066705.349    -5492698.32549  -4100802.33948  20066705.227    20066712.337
       245.000         213.000
  20842077.787    -8842494.69549  -6867943.79547  20842077.944    20842083.835
       244.000         204.000
 02  5 25  5 11 59.9980000  0  7G20G 2G 3G27G22G 1G13
  21116972.380     2413126.85749   1880096.62746  21116971.662    21116979.383
       223.000         170.000
  20898062.925    -2831960.44249  -2073033.65248  20898062.427    20898070.059
       244.000         215.000
  23591330.824    -5892754.25449  -4307774.78645  23591330.806    23591339.301
       219.000         157.000
  22324571.493    -8905895.00549  -6672839.84946  22324571.342    22324579.922
       225.000         179.000
  21017480.326      845109.59649    660421.02547  21017479.807    21017486.871
       234.000         193.000
  20057921.369    -5538858.51549  -4136771.29448  20057921.041    20057928.179
       244.000         213.000
  20825360.130    -8930346.30849  -6936399.55747  20825360.278    20825366.347
       243.000         204.000
 02  5 25  5 12 29.9980000  0  7G20G 2G 3G27G22G 1G13
  21126849.579     2465032.64649   1920542.65346  21126849.702    21126856.815
       225.000         172.000
  20897058.762    -2837236.35849  -2077144.74248  20897058.254    20897065.950
       244.000         215.000
  23572782.897    -5990221.40449  -4383723.10345  23572782.809    23572791.581
       218.000         157.000
  22308199.740    -8991934.23549  -6739883.30846  22308199.644    22308207.486
       228.000         181.000
  21024934.251      884282.77449    690945.58047  21024934.177    21024941.476
       232.000         192.000
  20049213.298    -5584619.11749  -4172428.88648  20049213.123    20049220.020
       244.000         213.000
  20808701.062    -9017889.83449  -7004615.25247  20808701.448    20808707.447
       242.000         204.000
 02  5 25  5 12 59.9980000  0  7G20G 2G 3G27G22G 1G13
  21136821.043     2517432.08849   1961373.34146  21136820.769    21136828.137
       225.000         173.000
  20896159.068    -2841964.45549  -2080828.95848  20896158.604    20896166.223
       244.000         215.000
  23554290.608    -6087399.94349  -4459446.51645  23554290.142    23554299.492
       217.000         158.000
  22291877.633    -9077706.67749  -6806718.88946  22291877.311    22291885.043
       228.000         183.000
  21032501.093      924047.49149    721931.08347  21032500.868    21032508.615
       231.000         192.000
  20040577.976    -5629997.43649  -4207788.59748  20040577.735    20040584.877
       243.000         213.000
  20792097.104    -9105142.15649  -7072604.03647  20792097.578    20792103.747
       241.000         204.000
 02  5 25  5 13 29.9980000  0  7G20G 2G 3G27G22G 1G13
  21146870.037     2570238.11249   2002520.83646  21146869.677    21146877.201
       224.000         172.000
  20895347.185    -2846230.41649  -2084153.06648  20895346.677    20895354.448
       243.000         214.000
  23535837.172    -6184371.39549  -4535008.56745  23535836.994    23535847.665
       215.000         157.000
  22275590.405    -9163297.08549  -6873412.62946  22275590.285    22275597.278
       229.000         184.000
  21040164.593      964316.50449    753309.54847  21040163.831    21040171.498
       234.000         194.000
  20031999.723    -5675076.48749  -4242915.11148  20031999.469    20032006.677
       243.000         213.000
  20775533.228    -9192186.04049  -7140430.40347  20775533.424    20775540.023
       241.000         204.000
 02  5 25  5 13 59.9980000  0  7G20G 2G 3G27G22G 1G13
  21157015.611     2623550.40749   2044062.82846  21157014.954    21157022.618
       224.000         171.000
  20894642.609    -2849933.03549  -2087038.20848  20894642.204    20894649.716
       244.000         214.000
  23517443.151    -6281030.35149  -4610327.10345  23517442.926    23517453.452
       214.000         158.000
  22259356.596    -9248603.35349  -6939884.94946  22259356.232    22259364.963
       229.000         185.000
  21047942.536     1005189.65449    785158.75947  21047941.842    21047949.723
       235.000         195.000
  20023498.078    -5719752.69749  -4277727.72748  20023497.927    20023505.174
       243.000         213.000
  20759028.639    -9278917.77049  -7208013.53547  20759028.939    20759035.363
       240.000         203.000
 02  5 25  5 14 29.9980000  0  7G20G 2G 3G27G22G 1G13
  21167252.450     2677348.05749   2085983.02746  21167251.509    21167259.450
       222.000         168.000
  20894041.392    -2853092.24849  -2089499.92048  20894040.890    20894048.402
       244.000         213.000
  23499105.867    -6377392.05549  -4685414.03545  23499106.153    23499115.902
       214.000         158.000
  22243173.853    -9333644.11049  -7006150.38946  22243173.229    22243181.376
       228.000         185.000
  21055831.702     1046645.67449    817462.14747  21055830.874    21055838.138
       236.000         195.000
  20015069.986    -5764043.20149  -4312239.79448  20015069.632    20015076.958
       243.000         213.000
  20742580.503    -9365354.18049  -7275366.54547  20742580.667    20742586.952
       240.000         204.000
 02  5 25  5 14 59.9980000  0  7G20G 2G 3G27G22G 1G13
  21177577.874     2731611.80849   2128266.42146  21177578.403    21177584.362
       220.000         166.000
  20893540.289    -2855725.91749  -2091552.11947  20893539.840    20893547.102
       244.000         212.000
  23480822.258    -6473470.46149  -4760280.20145  23480822.337    23480832.989
       210.000         156.000
  22227038.290    -9418436.54249  -7072222.34946  22227038.107    22227046.163
       229.000         185.000
  21063827.952     1088665.14949    850204.58647  21063827.108    21063834.111
       236.000         193.000
  20006712.397    -5807963.17549  -4346463.12948  20006712.083    20006719.273
       242.000         214.000
  20726185.322    -9451510.17349  -7342501.04347  20726185.637    20726192.196
       240.000         203.000
 02  5 25  5 15 29.9980000  0  7G20G 2G 3G27G22G 1G13
  21187985.922     2786306.94249   2170885.97146  21187985.160    21187992.800
       220.000         166.000
  20893132.869    -2857867.03549  -2093220.52147  20893132.418    20893139.618
       245.000         211.000
  23462587.959    -6569294.20449  -4834947.92045  23462587.640    23462598.307
       211.000         156.000
  22210943.747    -9503012.73749  -7138125.81346  22210943.326    22210951.691
       228.000         186.000
  21071924.175     1131213.77149    883359.35447  21071923.573    21071930.355
       234.000         191.000
  19998419.306    -5851543.26849  -4380421.62548  19998419.027    19998426.050
       243.000         214.000
  20709837.983    -9537416.24649  -7409440.80047  20709838.286    20709844.696
       240.000         203.000
 02  5 25  5 15 59.9980000  0  7G20G 2G 3G27G22G 1G13
  21198485.705     2841480.36249   2213878.19246  21198485.687    21198492.867
       220.000         167.000
  20892828.192    -2859467.55049  -2094467.67447  20892827.855    20892834.982
       245.000         211.000
  23444411.507    -6664811.08849  -4909376.52545  23444410.909    23444421.748
       210.000         153.000
  22194899.725    -9587323.62949  -7203822.53846  22194899.890    22194907.822
       227.000         185.000
  21080130.350     1174338.08049    916962.70347  21080129.789    21080136.891
       233.000         189.000
  19990200.634    -5894732.82149  -4414075.80448  19990200.212    19990207.434
       243.000         214.000
  20693547.764    -9623021.50349  -7476146.15247  20693548.155    20693554.019
       241.000         203.000
 02  5 25  5 16 29.9980000  0  7G20G 2G 3G27G22G 1G13
  21209079.876     2897151.44249   2257258.19746  21209079.298    21209086.782
       220.000         168.000
  20892630.656    -2860506.58349  -2095277.31447  20892630.206    20892637.323
       245.000         210.000
  23426297.867    -6759996.28349  -4983546.66645  23426298.393    23426306.856
       209.000         151.000
  22178910.752    -9671347.48249  -7269295.59746  22178910.609    22178919.459
       227.000         185.000
  21088450.290     1218057.34649    951029.66347  21088449.586    21088456.128
       234.000         189.000
  19982060.717    -5937508.49949  -4447407.48648  19982060.456    19982067.525
       243.000         214.000
  20677319.327    -9708302.15549  -7542598.55947  20677319.967    20677325.664
       241.000         203.000
 02  5 25  5 16 59.9980000  0  7G20G 2G 3G27G22G 1G13
  21219760.637     2953279.39149   2300994.20646  21219760.295    21219768.256
       222.000         168.000
  20892532.108    -2861023.86149  -2095680.39247  20892531.784    20892539.007
       245.000         210.000
  23408241.190    -6854884.86149  -5057485.68845  23408240.033    23408250.115
       208.000         149.000
  22162968.227    -9755122.96049  -7334575.11846  22162967.704    22162977.254
       225.000         185.000
  21096875.273     1262330.53549    985528.24147  21096874.619    21096880.992
       234.000         191.000
  19973992.327    -5979907.38649  -4480445.56248  19973992.174    19973998.966
       242.000         213.000
  20661146.108    -9793295.04149  -7608826.74147  20661146.249    20661152.324
       242.000         203.000
 02  5 25  5 17 29.9980000  0  7G20G 2G 3G27G22G 1G13
  21230516.370     3009802.60249   2345038.21446  21230515.473    21230523.497
       221.000         169.000
  20892521.585    -2861079.32449  -2095723.60947  20892521.071    20892528.416
       245.000         210.000
  23390230.605    -6949532.77449  -5131237.18845  23390230.086    23390240.353
       207.000         150.000
  22147062.351    -9838709.07249  -7399707.08946  22147061.797    22147070.723
       226.000         186.000
  21105394.109     1307096.14849   1020410.52647  21105393.512    21105400.176
       236.000         192.000
  19965984.787    -6021986.84049  -4513234.72948  19965984.613    19965991.741
       242.000         213.000
  20645016.105    -9878057.41149  -7674875.29047  20645016.461    20645022.436
       242.000         204.000
 02  5 25  5 17 59.9980000  0  7G20G 2G 3G27G22G 1G13
  21241359.428     3066783.88449   2389439.15646  21241359.121    21241367.034
       221.000         168.000
  20892611.351    -2860608.96349  -2095357.09147  20892610.770    20892618.010
       244.000         211.000
  23372278.798    -7043871.52549  -5204747.77545  23372279.390    23372287.111
       206.000         149.000
  22131204.914    -9922040.81649  -7464640.85046  22131205.467    22131213.615
       226.000         185.000
  21114018.309     1352416.84049   1055725.32947  21114017.601    21114024.375
       235.000         192.000
  19958050.886    -6063680.17349  -4545723.02548  19958050.699    19958057.873
       242.000         213.000
  20628943.093    -9962522.10649  -7740691.88047  20628943.357    20628949.319
       243.000         204.000
 02  5 25  5 18 29.9980000  0  7G20G 2G 3G27G22G 1G13
  21252281.582     3124177.95749   2434161.76446  21252281.484    21252288.862
       219.000         167.000
  20892792.463    -2859656.69249  -2094615.05647  20892791.996    20892799.257
       244.000         211.000
  23354377.919    -7137940.54849  -5278048.16945  23354377.232    23354387.057
       204.000         148.000
  22115387.742   -10005160.94349  -7529409.72446  22115387.634    22115396.409
       226.000         185.000
  21122739.085     1398247.40549   1091437.45147  21122738.560    21122745.536
       233.000         191.000
  19950182.557    -6105028.46449  -4577942.45348  19950182.356    19950189.582
       242.000         213.000
  20612918.870   -10046730.06249  -7806308.41647  20612919.078    20612924.827
       243.000         204.000
 02  5 25  5 18 59.9980000  0  7G20G 2G 3G27G22G 1G13
  21263281.472     3181984.70449   2479205.94146  21263280.647    21263289.271
       217.000         163.000
  20893065.654    -2858221.37049  -2093496.61447  20893065.186    20893072.577
       244.000         212.000
  23336529.413    -7231734.69649  -5351134.38745  23336528.387    23336539.216
       203.000         150.000
  22099611.541   -10088067.27449  -7594012.00846  22099610.748    22099619.435
       226.000         185.000
  21131557.006     1444587.52649   1127546.63247  21131556.401    21131563.453
       230.000         188.000
  19942380.706    -6146027.93049  -4609890.07548  19942380.285    19942387.593
       242.000         213.000
  20596943.922   -10130677.08849  -7871721.63547  20596944.517    20596950.275
       243.000         204.000
 02  5 25  5 19 29.9980000  0  7G20G 2G 3G27G22G 1G13
  21274361.396     3240211.12949   2524577.13445  21274360.828    21274368.954
       216.000         162.000
  20893432.129    -2856294.48749  -2091995.13547  20893431.651    20893439.191
       243.000         212.000
  23318735.498    -7325241.29549  -5423996.52345  23318734.747    23318745.412
       206.000         150.000
  22083876.845   -10170750.49649  -7658440.44146  22083876.756    22083885.324
       225.000         185.000
  21140473.431     1491444.10849   1164058.26346  21140472.807    21140480.349
       230.000         187.000
  19934647.027    -6186667.75449  -4641557.45048  19934646.753    19934653.884
       242.000         213.000
  20581021.411   -10214351.90349  -7936922.73347  20581021.696    20581027.282
       243.000         203.000
 02  5 25  5 19 59.9980000  0  7G20G 2G 3G27G22G 1G13
  21285519.840     3298842.87549   2570264.16745  21285518.771    21285526.440
       215.000         162.000
  20893889.855    -2853889.15249  -2090120.83648  20893889.540    20893896.994
       244.000         213.000
  23300994.503    -7418468.98649  -5496641.32745  23300994.272    23301004.879
       206.000         149.000
  22068182.931   -10253222.69749  -7722704.46146  22068182.613    22068191.398
       225.000         185.000
  21149485.472     1538802.73549   1200961.09247  21149485.170    21149492.949
       231.000         188.000
  19926980.101    -6226958.17749  -4672952.56948  19926979.894    19926986.824
       243.000         213.000
  20565148.496   -10297764.63249  -8001919.61347  20565148.623    20565154.074
       242.000         203.000
 02  5 25  5 20 29.9980000  0  7G20G 2G 3G27G22G 1G13
  21296758.957     3357909.09449   2616289.74345  21296758.676    21296765.784
       215.000         162.000
  20894444.414    -2850975.06749  -2087850.10748  20894443.943    20894451.350
       244.000         213.000
  23283313.301    -7511383.05449  -5569041.77745  23283314.206    23283322.665
       208.000         149.000
  22052535.494   -10335452.44149  -7786779.54146  22052535.097    22052543.988
       227.000         186.000
  21158599.114     1586692.33149   1238277.65747  21158598.514    21158606.026
       233.000         190.000
  19919385.903    -6266866.09049  -4704049.62648  19919385.589    19919392.714
       244.000         214.000
  20549331.377   -10380881.90049  -8066686.27047  20549331.696    20549337.245
       241.000         203.000
 02  5 25  5 20 59.9980000  0  7G20G 2G 3G27G22G 1G13
  21308081.326     3417409.77549   2662653.87045  21308080.945    21308088.575
       216.000         162.000
  20895095.902    -2847550.85849  -2085181.88048  20895095.530    20895103.074
       244.000         213.000
  23265694.177    -7603977.77449  -5641193.36945  23265693.861    23265702.347
       210.000         151.000
  22036934.157   -10417437.20449  -7850663.72346  22036934.494    22036942.759
       227.000         187.000
  21167813.475     1635112.96249   1276008.01547  21167812.783    21167819.893
       233.000         192.000
  19911865.232    -6306387.45449  -4734845.48048  19911864.993    19911871.997
       244.000         214.000
  20533571.741   -10463699.22949  -8131219.19947  20533571.876    20533577.669
       241.000         203.000
 02  5 25  5 21 29.9980000  0  7G20G 2G 3G27G22G 1G13
  21319478.217     3477299.98449   2709321.52046  21319478.262    21319485.891
       217.000         163.000
  20895836.411    -2843659.95149  -2082149.99548  20895836.076    20895843.452
       245.000         213.000
  23248126.516    -7696292.15149  -5713126.50045  23248126.663    23248135.875
       210.000         153.000
  22021371.971   -10499219.34649  -7914390.03846  22021371.590    22021379.779
       228.000         187.000
  21177120.064     1684019.61049   1314117.07647  21177119.476    21177126.913
       234.000         191.000
  19904410.464    -6345563.01049  -4765371.87648  19904410.148    19904417.134
       245.000         215.000
  20517861.328   -10546257.14149  -8195549.99247  20517861.869    20517867.824
       241.000         204.000
 02  5 25  5 21 59.9980000  0  7G20G 2G 3G27G22G 1G13
  21330954.539     3537607.44449   2756314.29646  21330954.183    21330962.201
       218.000         164.000
  20896671.247    -2839273.42949  -2078731.91548  20896670.790    20896678.104
       245.000         213.000
  23230618.276    -7788293.02049  -5784815.33545  23230617.989    23230629.280
       211.000         156.000
  22005852.884   -10580769.02549  -7977935.21846  22005853.195    22005861.604
       228.000         187.000
  21186524.311     1733439.93849   1352626.41047  21186523.894    21186531.123
       232.000         190.000
  19897027.464    -6384361.19249  -4795604.20848  19897027.195    19897033.866
       245.000         215.000
  20502206.755   -10628523.43149  -8259653.55147  20502207.126    20502212.904
       241.000         205.000
 02  5 25  5 22 29.9980000  0  7G20G 2G 3G27G22G 1G13
  21342512.217     3598338.49049   2803637.13546  21342512.022    21342518.751
       219.000         166.000
  20897601.682    -2834383.88849  -2074921.87348  20897601.146    20897608.698
       245.000         213.000
  23213172.585    -7879968.48949  -5856250.61545  23213172.505    23213184.156
       211.000         155.000
  21990380.810   -10662077.51149  -8041292.45346  21990380.601    21990388.523
       229.000         187.000
  21196027.318     1783380.09649   1391540.81747  21196026.251    21196034.009
       231.000         188.000
  19889718.083    -6422771.80049  -4825534.53648  19889717.905    19889724.675
       245.000         215.000
  20486609.883   -10710487.59549  -8323521.68847  20486609.747    20486615.843
       241.000         206.000
 02  5 25  5 22 59.9970000  0  7G20G 2G 3G27G22G 1G13
  21354152.026     3659505.30949   2851299.55246  21354151.368    21354158.016
       218.000         163.000
  20898630.913    -2828975.69849  -2070707.69247  20898630.491    20898637.793
       245.000         212.000
  23195793.664    -7971295.53949  -5927414.40245  23195794.097    23195805.171
       213.000         158.000
  21974957.639   -10743125.38749  -8104446.60046  21974957.870    21974965.629
       228.000         186.000
  21205632.125     1833852.66149   1430870.07346  21205631.399    21205639.232
       231.000         187.000
  19882486.201    -6460775.10149  -4855147.48148  19882486.006    19882492.965
       245.000         215.000
  20471073.862   -10792128.28849  -8387137.77347  20471074.180    20471080.220
       242.000         207.000
 02  5 25  5 23 29.9970000  0  7G20G 2G 3G27G22G 1G13
  21365863.770     3721054.21949   2899259.69745  21365862.765    21365871.268
       215.000         161.000
  20899748.127    -2823104.80049  -2066132.96247  20899747.598    20899754.910
       245.000         211.000
  23178471.666    -8062332.13849  -5998351.89345  23178471.006    23178481.083
       217.000         162.000
  21959573.047   -10823973.18849  -8167444.86446  21959573.243    21959580.680
       229.000         186.000
  21215328.001     1884803.26849   1470571.83046  21215327.626    21215333.906
       232.000         187.000
  19875321.219    -6498427.39849  -4884486.92148  19875321.077    19875327.902
       245.000         215.000
  20455588.627   -10873503.90149  -8450547.30747  20455588.918    20455595.075
       241.000         208.000
 02  5 25  5 23 59.9970000  0  7G20G 2G 3G27G22G 1G13
  21377656.818     3783028.59749   2947551.37145  21377655.797    21377663.146
       214.000         161.000
  20900962.088    -2816724.65549  -2061161.41547  20900961.839    20900968.982
       244.000         211.000
  23161213.203    -8153024.05549  -6069020.80146  23161212.829    23161221.827
       218.000         164.000
  21944235.864   -10904570.28749  -8230247.76646  21944236.089    21944243.578
       229.000         187.000
  21225122.977     1936275.50149   1510680.02946  21225122.529    21225128.932
       233.000         186.000
  19868232.923    -6535677.75049  -4913513.15648  19868232.621    19868239.248
       245.000         215.000
  20440163.677   -10954562.12149  -8513709.51547  20440164.064    20440170.093
       242.000         209.000
 02  5 25  5 24 29.9970000  0  7G20G 2G 3G27G22G 1G13
  21389540.737     3845477.44749   2996212.77145  21389540.545    21389548.462
       216.000         161.000
  20902282.410    -2809785.35549  -2055754.16047  20902282.009    20902289.385
       243.000         209.000
  23144030.641    -8243316.83049  -6139378.68546  23144030.608    23144039.988
       219.000         166.000
  21928955.996   -10984865.72649  -8292815.62747  21928955.950    21928964.106
       229.000         188.000
  21235026.311     1988318.02349   1551232.61446  21235025.723    21235032.615
       232.000         186.000
  19861230.829    -6572473.38149  -4942185.06648  19861230.540    19861237.304
       244.000         215.000
  20424809.286   -11035249.88649  -8576583.06647  20424809.658    20424815.789
       242.000         209.000
 02  5 25  5 24 59.9970000  0  7G20G 2G 3G27G22G 1G13
  21401491.943     3908280.13649   3045149.88445  21401491.960    21401498.980
       217.000         161.000
  20903686.616    -2802406.03449  -2050004.03347  20903686.116    20903693.403
       243.000         209.000
  23126903.039    -8333325.27649  -6209515.02446  23126902.892    23126911.481
       221.000         167.000
  21913711.105   -11064977.53349  -8355240.38046  21913710.895    21913719.154
       230.000         187.000
  21245014.889     2040810.48849   1592135.80046  21245014.248    21245020.859
       231.000         185.000
  19854293.161    -6608930.84949  -4970593.47048  19854292.908    19854299.763
       244.000         215.000
  20409503.187   -11115683.01949  -8639258.20147  20409503.581    20409509.812
       242.000         210.000
 02  5 25  5 25 29.9970000  0  7G20G 2G 3G27G22G 1G13
  21413513.926     3971456.68849   3094378.31445  21413512.133    21413521.367
       214.000         161.000
  20905178.498    -2794565.75149  -2043894.70747  20905178.192    20905185.629
       242.000         209.000
  23109833.410    -8423023.87949  -6279409.92946  23109833.276    23109842.152
       220.000         167.000
  21898505.914   -11144883.26049  -8417504.55546  21898505.791    21898513.571
       230.000         187.000
  21255092.999     2093772.55049   1633404.91946  21255092.523    21255099.796
       229.000         183.000
  19847424.265    -6645026.11349  -4998719.64448  19847424.055    19847431.091
       243.000         214.000
  20394250.673   -11195836.95049  -8701715.77647  20394251.101    20394256.897
       243.000         210.000
 02  5 25  5 25 59.9970000  0  7G20G 2G 3G27G22G 1G13
  21425610.903     4035030.72249   3143916.46445  21425610.648    21425619.614
       213.000         161.000
  20906762.887    -2786239.22449  -2037406.49247  20906762.411    20906770.330
       242.000         209.000
  23092829.573    -8512383.18449  -6349040.45246  23092829.490    23092838.029
       222.000         169.000
  21883343.865   -11224556.71049  -8479587.72446  21883343.839    21883352.301
       229.000         186.000
  21265265.046     2147227.88849   1675058.42246  21265263.864    21265272.199
       228.000         184.000
  19840629.941    -6680731.19249  -5026541.78148  19840629.645    19840636.699
       242.000         213.000
  20379056.211   -11275683.69749  -8763933.98247  20379056.568    20379062.450
       244.000         209.000
 02  5 25  5 26 29.9970000  0  7G20G 2G 3G27G22G 1G13
  21437780.205     4098980.53249   3193747.43245  21437780.204    21437788.648
       213.000         161.000
  20908436.242    -2777446.85049  -2030555.27847  20908435.809    20908443.231
       244.000         211.000
  23075886.274    -8601419.25649  -6418419.10246  23075885.598    23075895.998
       219.000         170.000
  21868223.321   -11304017.03449  -8541504.83646  21868223.065    21868231.307
       229.000         187.000
  21275527.053     2201154.74149   1717079.33446  21275526.477    21275534.040
       230.000         185.000
  19833906.254    -6716063.87049  -5054073.73748  19833906.297    19833912.836
       242.000         213.000
  20363917.018   -11355240.61349  -8825926.34447  20363917.309    20363923.164
       244.000         207.000
 02  5 25  5 26 59.9970000  0  7G20G 2G 3G27G22G 1G13
  21450014.615     4163272.70049   3243845.18545  21450014.689    21450022.372
       214.000         162.000
  20910191.925    -2768220.81049  -2023366.14447  20910191.523    20910198.865
       244.000         212.000
  23058999.069    -8690159.67149  -6487567.36446  23058999.305    23059008.708
       218.000         169.000
  21853136.766   -11383295.38449  -8603280.13046  21853136.414    21853145.023
       228.000         186.000
  21285872.940     2255519.64649   1759441.57346  21285872.327    21285879.824
       231.000         185.000
  19827247.896    -6751053.44649  -5081338.34447  19827247.858    19827254.753
       241.000         212.000
  20348827.057   -11434536.50349  -8887715.30547  20348827.582    20348833.154
       243.000         205.000
 02  5 25  5 27 29.9970000  0  7G20G 2G 3G27G22G 1G13
  21462316.135     4227913.14349   3294214.31945  21462315.879    21462324.555
       215.000         162.000
  20912031.588    -2758554.11849  -2015833.64348  20912031.068    20912038.318
       246.000         213.000
  23042171.128    -8778593.16849  -6556476.47946  23042170.491    23042179.765
       219.000         168.000
  21838086.766   -11462383.49949  -8664907.18746  21838086.346    21838095.499
       228.000         185.000
  21296302.709     2310328.28749   1802149.56846  21296302.150    21296309.485
       231.000         186.000
  19820656.621    -6785690.19749  -5108328.02147  19820656.565    19820663.492
       241.000         212.000
  20333788.962   -11513561.09249  -8949292.86747  20333789.629    20333794.768
       241.000         203.000
 02  5 25  5 27 59.9970000  0  8G20G 2G 3G27G22G 1G31G13
  21474688.079     4292929.49249   3344876.36745  21474688.445    21474696.131
       215.000         162.000
  20913960.827    -2748417.80049  -2007935.20448  20913960.190    20913967.389
       247.000         214.000
  23025407.121    -8866686.23749  -6625120.34646  23025406.939    23025416.583
       217.000         166.000
  21823078.628   -11541251.23349  -8726362.52346  21823078.162    21823086.881
       227.000         185.000
  21306822.022     2365608.17449   1845224.77546  21306821.781    21306828.454
       230.000         185.000
  19814138.827    -6819942.36149  -5135018.02147  19814138.545    19814145.709
       242.000         212.000
  23913898.405     -963489.75559   -730434.79055  23913898.113    23913909.928
       201.000         144.000
  20318808.969   -11592282.08649  -9010633.86047  20318809.321    20318814.651
       242.000         202.000
 02  5 25  5 28 29.9970000  0  8G20G 2G 3G27G22G 1G31G13
  21487129.321     4358308.27949   3395820.80846  21487129.456    21487137.025
       215.000         163.000
  20915976.416    -2737824.05449  -1999680.32948  20915975.805    20915983.049
       247.000         213.000
  23008706.315    -8954446.69749  -6693505.03346  23008706.122    23008715.518
       217.000         163.000
  21808110.699   -11619909.62449  -8787654.73446  21808110.681    21808118.758
       230.000         187.000
  21317428.449     2421345.80649   1888656.67546  21317427.348    21317435.061
       230.000         185.000
  19807692.145    -6853819.29849  -5161415.63447  19807691.928    19807699.008
       242.000         212.000
  23891221.070    -1082659.84149   -823294.47545  23891221.008    23891231.434
       202.000         145.000
  20303884.991   -11670708.44549  -9071745.27547  20303885.328    20303890.996
       242.000         203.000
 02  5 25  5 28 59.9970000  0  8G20G 2G 3G27G22G 1G31G13
  21499648.421     4424091.75949   3447080.60445  21499647.396    21499654.679
       216.000         161.000
  20918087.920    -2726729.08049  -1991034.89048  20918087.285    20918094.659
       246.000         213.000
  22992078.845    -9041826.31249  -6761592.94546  22992078.579    22992087.994
       216.000         164.000
  21793190.640   -11698313.55449  -8848748.66446  21793190.199    21793198.724
       228.000         186.000
  21328130.397     2477583.84249   1932478.50446  21328129.929    21328136.959
       229.000         185.000
  19801326.010    -6887274.24249  -5187484.41948  19801325.722    19801332.529
       243.000         213.000
  23868548.980    -1201802.17849   -916132.51645  23868549.194    23868559.214
       200.000         146.000
  20289026.363   -11748793.13449  -9132590.45147  20289026.596    20289031.952
       242.000         205.000
 02  5 25  5 29 29.9970000  0  8G20G 2G 3G27G22G 1G31G13
  21512236.210     4490241.58149   3498625.86945  21512235.459    21512242.568
       216.000         158.000
  20920287.185    -2715170.22749  -1982027.98647  20920286.712    20920294.076
       245.000         211.000
  22975517.212    -9128857.81949  -6829409.60346  22975517.324    22975526.519
       218.000         163.000
  21778312.466   -11776499.10649  -8909672.44946  21778312.385    21778321.168
       228.000         187.000
  21338919.973     2534283.52949   1976660.06546  21338919.449    21338926.702
       229.000         185.000
  19795033.566    -6920341.71649  -5213251.27948  19795033.442    19795040.180
       244.000         214.000
  23845875.803    -1320949.63649  -1008974.53645  23845875.224    23845885.896
       201.000         144.000
  20274225.885   -11826570.06749  -9193195.82647  20274226.166    20274231.974
       244.000         208.000
 02  5 25  5 29 59.9970000  0  8G20G 2G 3G27G22G 1G31G13
  21524888.907     4556734.79849   3550438.71245  21524888.850    21524895.517
       214.000         156.000
  20922570.958    -2703169.30949  -1972676.61247  20922570.356    20922577.713
       243.000         209.000
  22959018.486    -9215558.53949  -6896968.52046  22959018.432    22959027.578
       216.000         163.000
  21763472.006   -11854486.75249  -8970442.01546  21763472.081    21763479.977
       229.000         187.000
  21349793.301     2591421.91249   2021183.46446  21349792.725    21349800.044
       229.000         186.000
  19788811.287    -6953040.71549  -5238731.01448  19788811.086    19788817.932
       244.000         215.000
  23823197.992    -1440119.51249  -1101834.02345  23823197.581    23823208.351
       202.000         146.000
  20259480.551   -11904058.35449  -9253576.28247  20259480.923    20259486.428
       245.000         210.000
 02  5 25  5 30 29.9970000  0  8G20G 2G 3G27G22G 1G31G13
  21537608.180     4623577.15849   3602523.60945  21537607.994    21537616.298
       213.000         157.000
  20924940.094    -2690719.04449  -1962975.09647  20924939.491    20924946.734
       241.000         207.000
  22942585.057    -9301916.88149  -6964260.63145  22942585.062    22942593.731
       215.000         162.000
  21748670.617   -11932268.12449  -9031050.83046  21748670.703    21748678.343
       230.000         187.000
  21360751.171     2649004.59949   2066053.07346  21360750.500    21360757.679
       229.000         185.000
  19782660.856    -6985361.03349  -5263915.67048  19782660.568    19782667.307
       246.000         216.000
  23800517.575    -1559300.37749  -1194702.09245  23800516.808    23800529.621
       199.000         145.000
  20244792.124   -11981246.70149  -9313723.01747  20244792.455    20244797.971
       246.000         212.000
 02  5 25  5 30 59.9970000  0  8G20G 2G 3G27G22G 1G31G13
  21550402.046     4690808.44949   3654911.57245  21550401.572    21550410.266
       214.000         159.000
  20927402.182    -2677778.72049  -1952891.71947  20927401.856    20927409.025
       240.000         206.000
  22926225.017    -9387887.55649  -7031250.66145  22926224.591    22926235.184
       215.000         162.000
  21733916.611   -12009801.30149  -9091466.25147  21733916.261    21733924.780
       230.000         188.000
  21371800.713     2707071.23449   2111299.77446  21371800.221    21371807.152
       227.000         184.000
  19776590.865    -7017259.29949  -5288771.45848  19776590.695    19776597.406
       246.000         217.000
  23777846.166    -1678446.95149  -1287543.46845  23777845.292    23777857.377
       201.000         147.000
  20230168.992   -12058091.12749  -9373601.76548  20230169.132    20230175.141
       245.000         213.000
 02  5 25  5 31 29.9970000  0  8G20G 2G 3G27G22G 1G31G13
  21563258.540     4758370.88649   3707557.56045  21563259.024    21563266.762
       214.000         160.000
  20929947.239    -2664404.93649  -1942470.58247  20929946.819    20929954.419
       241.000         206.000
  22909929.201    -9473522.53549  -7097979.10445  22909929.070    22909938.574
       215.000         161.000
  21719199.368   -12087141.54149  -9151731.32447  21719199.321    21719207.490
       230.000         188.000
  21382930.532     2765563.83049   2156878.39346  21382930.810    21382938.124
       226.000         182.000
  19770591.167    -7048789.13949  -5313340.16048  19770590.857    19770597.451
       247.000         217.000
  23755167.234    -1797611.40449  -1380398.80345  23755167.104    23755181.636
       196.000         144.000
  20215601.312   -12134645.10149  -9433254.19148  20215601.561    20215607.378
       245.000         214.000
 02  5 25  5 31 59.9970000  0  8G20G 2G 3G27G22G 1G31G13
  21576179.310     4826267.20349   3760463.71645  21576179.317    21576186.367
       216.000         161.000
  20932575.470    -2650593.56749  -1931708.46847  20932575.204    20932582.492
       242.000         208.000
  22893698.410    -9558813.63749  -7164439.59145  22893698.889    22893708.222
       216.000         161.000
  21704520.320   -12164283.60249  -9211841.96647  21704520.051    21704527.635
       231.000         188.000
  21394143.061     2824485.25649   2202791.16946  21394142.023    21394150.119
       224.000         179.000
  19764662.567    -7079943.74549  -5337616.47248  19764662.437    19764669.052
       247.000         218.000
  23732489.336    -1916785.03049  -1473261.27745  23732488.820    23732502.360
       199.000         144.000
  20201089.858   -12210901.11049  -9492674.44148  20201090.128    20201096.314
       243.000         213.000
 02  5 25  5 32 29.9970000  0  8G20G 2G 3G27G22G 1G31G13
  21589164.374     4894501.06849   3813632.89345  21589163.686    21589171.714
       218.000         162.000
  20935288.061    -2636339.68649  -1920601.54847  20935287.896    20935294.970
       244.000         210.000
  22877535.949    -9643751.45249  -7230624.80045  22877535.556    22877544.902
       217.000         159.000
  21689879.134   -12241221.24349  -9271793.31347  21689878.902    21689886.614
       232.000         189.000
  21405437.526     2883839.15349   2249040.93146  21405437.030    21405444.681
       226.000         179.000
  19758806.895    -7110715.15049  -5361594.18448  19758806.675    19758813.520
       246.000         217.000
  23709812.311    -2035958.51049  -1566123.61845  23709811.687    23709824.353
       201.000         146.000
  20186636.893   -12286850.99349  -9551856.15247  20186637.377    20186643.532
       243.000         211.000
 02  5 25  5 32 59.9970000  0  8G20G 2G 3G27G22G 1G31G13
  21602210.530     4963062.96049   3867057.67145  21602209.560    21602218.920
       214.000         159.000
  20938083.274    -2621651.41349  -1909156.14247  20938082.909    20938089.916
       246.000         211.000
  22861439.546    -9728339.50349  -7296537.47945  22861439.991    22861447.250
       218.000         161.000
  21675275.991   -12317961.45649  -9331590.82947  21675275.679    21675283.576
       232.000         189.000
  21416813.016     2943615.94249   2295620.23146  21416812.520    21416819.862
       227.000         180.000
  19753023.014    -7141108.82049  -5385277.56248  19753022.808    19753029.847
       245.000         217.000
  23687134.440    -2155135.47549  -1658988.66245  23687135.037    23687144.997
       205.000         143.000
  20172241.559   -12362499.40949  -9610802.95747  20172241.579    20172247.916
       242.000         210.000
 02  5 25  5 33 29.9970000  0  8G20G 2G 3G27G22G 1G31G13
  21615324.624     5031976.50849   3920756.46745  21615324.661    21615332.483
       213.000         155.000
  20940965.766    -2606504.11649  -1897353.05647  20940965.241    20940972.510
       246.000         212.000
  22845415.042    -9812548.64449  -7362154.92345  22845415.244    22845423.503
       218.000         162.000
  21660715.173   -12394478.07349  -9391214.10447  21660714.814    21660722.724
       232.000         190.000
  21428273.710     3003839.20749   2342547.42646  21428272.484    21428280.067
       227.000         181.000
  19747316.396    -7171097.05949  -5408645.01448  19747316.195    19747323.123
       244.000         216.000
  23664460.268    -2274286.69649  -1751833.64345  23664459.448    23664469.234
       202.000         142.000
  20157908.583   -12437818.09949  -9669492.82947  20157909.113    20157915.094
       242.000         209.000
 02  5 25  5 33 59.9970000  0  8G20G 2G 3G27G22G 1G31G13
  21628504.512     5101239.34949   3974727.44045  21628504.137    21628512.330
       209.000         153.000
  20943935.452    -2590898.86849  -1885193.12747  20943935.005    20943942.336
       246.000         212.000
  22829462.983    -9896375.72549  -7427474.61145  22829462.392    22829471.443
       217.000         160.000
  21646196.923   -12470770.88849  -9450662.99047  21646196.708    21646204.661
       233.000         190.000
  21439818.423     3064506.56549   2389820.65746  21439817.252    21439824.833
       228.000         181.000
  19741687.170    -7200678.03749  -5431695.12248  19741686.991    19741694.230
       243.000         215.000
  23641791.702    -2393408.67049  -1844655.82945  23641791.511    23641803.495
       199.000         142.000
  20143639.376   -12512804.87849  -9727924.07047  20143639.554    20143645.453
       243.000         209.000
 02  5 25  5 34 29.9970000  0  8G20G 2G 3G27G22G 1G31G13
  21641742.693     5170811.60049   4028939.54545  21641742.443    21641752.704
       206.000         150.000
  20946984.712    -2574874.38549  -1872706.51547  20946984.159    20946991.522
       244.000         211.000
  22813577.748    -9979854.84849  -7492523.19146  22813577.445    22813586.279
       220.000         163.000
  21631714.065   -12546877.36549  -9509966.67047  21631714.060    21631722.103
       233.000         190.000
  21451439.877     3125578.02349   2437408.79146  21451439.180    21451446.289
       228.000         183.000
  19736128.798    -7229887.53649  -5454455.77148  19736128.775    19736135.552
       242.000         214.000
  23619122.278    -2512535.68149  -1937481.92645  23619123.164    23619133.085
       202.000         144.000
  20129426.193   -12587495.24749  -9786124.33447  20129426.632    20129431.959
       244.000         209.000
 02  5 25  5 34 59.9970000  0  8G20G 2G 3G27G22G 1G31G13
  21655045.581     5240710.73849   4083406.33845  21655044.415    21655053.356
       207.000         150.000
  20950117.220    -2558412.24749  -1859878.87147  20950116.603    20950124.044
       242.000         209.000
  22797762.647   -10062962.96049  -7557282.68045  22797762.240    22797770.375
       219.000         161.000
  21617271.200   -12622777.60549  -9569109.64147  21617271.058    21617278.707
       234.000         191.000
  21463141.371     3187070.92449   2485325.30846  21463140.460    21463148.514
       229.000         181.000
  19730645.255    -7258704.21149  -5476910.32048  19730644.938    19730651.956
       242.000         214.000
  23596457.870    -2631644.31649  -2030293.70445  23596456.180    23596468.014
       207.000         147.000
  20115273.790   -12661867.12449  -9844076.41347  20115274.043    20115279.374
       245.000         209.000
 02  5 25  5 35 29.9970000  0  9G20G 2G 3G27G22G 1G31G 8G13
  21668408.535     5310930.69349   4138123.11145  21668407.122    21668416.372
       212.000         155.000
  20953331.857    -2541517.21349  -1846713.90647  20953331.412    20953339.210
       240.000         207.000
  22782018.040   -10145700.26949  -7621753.21545  22782017.559    22782024.725
       219.000         161.000
  21602866.432   -12698475.08849  -9628094.61947  21602866.315    21602873.800
       234.000         191.000
  21474922.617     3248979.21249   2533565.50846  21474921.563    21474929.442
       230.000         182.000
  19725235.900    -7287129.97749  -5499060.27248  19725235.816    19725242.788
       242.000         213.000
  23573795.186    -2750734.96049  -2123091.43345  23573795.299    23573806.272
       206.000         150.000
  23852957.186    -5282851.59559  -4071338.79955  23852957.496    23852967.538
       209.000         146.000
  20101181.749   -12735921.84749  -9901781.35647  20101181.848    20101186.993
       246.000         209.000
 02  5 25  5 35 59.9970000  0  9G20G 2G 3G27G22G 1G31G 8G13
  21681828.419     5381453.18349   4193075.61945  21681828.348    21681836.397
       215.000         158.000
  20956625.883    -2524206.13649  -1833224.73847  20956625.504    20956633.390
       239.000         205.000
  22766341.513   -10228079.36549  -7685944.64245  22766341.037    22766349.262
       219.000         162.000
  21588497.273   -12773985.28949  -9686933.65347  21588496.983    21588504.683
       235.000         190.000
  21486779.112     3311284.85449   2582115.32746  21486778.586    21486785.717
       230.000         183.000
  19719898.518    -7315178.97149  -5520916.62848  19719898.280    19719905.168
       242.000         213.000
  23551134.678    -2869819.94149  -2215884.77545  23551134.093    23551144.545
       209.000         151.000
  23832205.961    -5391899.45849  -4156310.97745  23832205.832    23832216.005
       209.000         147.000
  20087147.585   -12809672.90149  -9959249.67047  20087147.800    20087153.031
       246.000         210.000
 02  5 25  5 36 29.9970000  0  9G20G 2G 3G27G22G 1G31G 8G13
  21695311.385     5452305.76049   4248285.34245  21695310.435    21695319.040
       215.000         161.000
  20960004.663    -2506450.41849  -1819389.10247  20960004.411    20960012.221
       239.000         204.000
  22750739.469   -10310067.11749  -7749831.12345  22750738.821    22750747.749
       218.000         161.000
  21574169.236   -12849278.26749  -9745603.42647  21574168.951    21574177.068
       233.000         190.000
  21498716.214     3374014.80449   2630995.76546  21498716.021    21498722.720
       229.000         183.000
  19714638.801    -7342819.73049  -5542454.88048  19714638.493    19714645.285
       242.000         214.000
  23528480.342    -2988865.91649  -2308647.73745  23528479.690    23528491.002
       205.000         150.000
  23811487.708    -5500773.47649  -4241147.66345  23811487.233    23811499.802
       208.000         150.000
  20073177.185   -12883088.06649 -10016456.25347  20073177.311    20073182.857
       246.000         211.000
 02  5 25  5 36 59.9970000  0  9G20G 2G 3G27G22G 1G31G 8G13
  21708854.904     5523477.02849   4303743.40345  21708854.528    21708863.592
       215.000         162.000
  20963466.489    -2488260.21849  -1805214.92147  20963466.140    20963473.561
       241.000         206.000
  22735210.733   -10391669.18349  -7813417.07745  22735210.734    22735219.032
       216.000         161.000
  21559881.040   -12924362.92149  -9804110.88047  21559881.160    21559888.193
       233.000         190.000
  21510732.155     3437158.05749   2680198.26346  21510731.765    21510738.573
       230.000         184.000
  19709455.055    -7370059.45449  -5563680.63748  19709454.861    19709461.822
       242.000         214.000
  23505832.025    -3107878.39549  -2401384.60745  23505831.849    23505843.214
       200.000         147.000
  23790800.945    -5609482.04349  -4325855.41745  23790800.481    23790812.350
       208.000         152.000
  20059269.235   -12956174.23049 -10073406.47647  20059269.576    20059274.902
       245.000         211.000
 02  5 25  5 37 29.9970000  0  9G20G 2G 3G27G22G 1G31G 8G13
  21722449.394     5594918.66149   4359412.13245  21722448.689    21722458.633
       213.000         160.000
  20967001.983    -2469682.66749  -1790738.90947  20967001.388    20967008.668
       243.000         207.000
  22719747.696   -10472928.31649  -7876735.80546  22719747.512    22719757.212
       216.000         163.000
  21545623.807   -12999284.97749  -9862491.62247  21545623.999    21545630.781
       233.000         189.000
  21522817.300     3500666.17149   2729685.07546  21522816.458    21522824.484
       229.000         182.000
  19704339.698    -7396942.46549  -5584628.43548  19704339.388    19704346.126
       243.000         215.000
  23483183.450    -3226899.80649  -2494128.42445  23483182.225    23483193.163
       196.000         145.000
  23770137.127    -5718070.37549  -4410469.47245  23770137.060    23770148.572
       207.000         152.000
  20045415.686   -13028975.06049 -10130134.36547  20045416.039    20045421.473
       245.000         212.000
 02  5 25  5 37 59.9970000  0  9G20G 2G 3G27G22G 1G31G 8G13
  21736099.364     5666649.90949   4415306.55045  21736098.987    21736108.141
       211.000         157.000
  20970615.031    -2450697.19549  -1775945.04547  20970614.506    20970621.465
       245.000         209.000
  22704355.304   -10553819.42049  -7939767.75945  22704355.214    22704363.838
       215.000         162.000
  21531401.889   -13074022.56549  -9920728.61547  21531402.016    21531408.950
       233.000         189.000
  21534975.183     3564558.26249   2779471.09846  21534974.787    21534982.360
       226.000         180.000
  19699296.212    -7423445.17349  -5605279.88948  19699296.059    19699302.828
       244.000         215.000
  23460536.745    -3345905.13549  -2586859.68145  23460536.162    23460548.664
       198.000         147.000
  23749500.054    -5826516.07649  -4494972.38045  23749500.206    23749512.301
       206.000         150.000
  20031620.679   -13101466.52649 -10186621.19747  20031620.932    20031626.904
       243.000         212.000
 02  5 25  5 38 29.9970000  0  9G20G 2G 3G27G22G 1G31G 8G13
  21749813.036     5738715.26649   4471461.32845  21749812.167    21749821.071
       209.000         155.000
  20974314.191    -2431258.54449  -1760798.05547  20974313.887    20974320.492
       246.000         211.000
  22689040.320   -10634293.00649  -8002474.38345  22689040.435    22689049.686
       212.000         159.000
  21517223.346   -13148529.03349  -9978785.51547  21517223.266    21517230.551
       232.000         188.000
  21547214.570     3628878.70349   2829590.90046  21547213.788    21547222.524
       226.000         178.000
  19694334.463    -7449519.45549  -5625597.51048  19694334.356    19694341.126
       244.000         216.000
  23437904.281    -3464844.26149  -2679539.38245  23437904.551    23437914.616
       202.000         150.000
  23728899.109    -5934771.96749  -4579327.37245  23728899.407    23728910.881
       201.000         149.000
  20017894.173   -13173599.58249 -10242828.74848  20017894.463    20017900.504
       243.000         213.000
 02  5 25  5 38 59.9970000  0  9G20G 2G 3G27G22G 1G31G 8G13
  21763585.858     5811092.02749   4527858.72245  21763586.227    21763593.708
       211.000         152.000
  20978095.307    -2411388.33049  -1745314.77747  20978094.791    20978101.847
       245.000         211.000
  22673802.896   -10714365.92049  -8064868.80745  22673803.303    22673812.521
       211.000         160.000
  21503085.530   -13222824.62049 -10036678.08947  21503085.067    21503092.683
       232.000         188.000
  21559531.783     3693604.64949   2880026.67646  21559531.855    21559538.144
       225.000         176.000
  19689450.540    -7475183.98849  -5645595.84248  19689450.447    19689457.340
       245.000         216.000
  23415279.381    -3583733.99749  -2772180.61645  23415279.216    23415290.466
       203.000         151.000
  23708330.267    -6042857.78049  -4663549.84845  23708330.102    23708342.293
       202.000         146.000
  20004232.464   -13245392.24449 -10298771.05448  20004232.605    20004238.728
       243.000         213.000
 02  5 25  5 39 29.9970000  0  9G20G 2G 3G27G22G 1G31G 8G13
  21777413.820     5883754.09749   4584478.43945  21777412.822    21777420.625
       213.000         153.000
  20981953.921    -2391111.19749  -1729514.42247  20981953.415    20981960.397
       244.000         210.000
  22658638.126   -10794058.32949  -8126966.73345  22658637.813    22658647.018
       211.000         160.000
  21488983.095   -13296932.45749 -10094424.36947  21488983.005    21488990.453
       231.000         188.000
  21571920.936     3758710.20349   2930758.23746  21571920.035    21571927.483
       225.000         174.000
  19684640.824    -7500460.34449  -5665291.70148  19684640.594    19684647.279
       246.000         217.000
  23392661.137    -3702594.22049  -2864798.85445  23392660.868    23392671.718
       199.000         150.000
  23687790.032    -6150796.23549  -4747657.50445  23687789.469    23687802.007
       200.000         145.000
  19990631.391   -13316866.04249 -10354464.90148  19990631.783    19990637.711
       243.000         214.000
 02  5 25  5 39 59.9970000  0  9G20G 2G 3G27G22G 1G31G 8G13
  21791297.893     5956719.27949   4641334.35145  21791297.873    21791305.918
       213.000         154.000
  20985893.357    -2370407.95149  -1713382.01947  20985892.942    20985900.222
       242.000         209.000
  22643549.473   -10873346.69049  -8188749.81645  22643549.444    22643558.938
       209.000         158.000
  21474920.274   -13370832.19049 -10152008.48947  21474919.803    21474927.722
       231.000         189.000
  21584385.477     3824213.27449   2981799.56446  21584385.609    21584391.315
       224.000         173.000
  19679908.859    -7525326.76049  -5684668.12248  19679908.614    19679915.319
       247.000         217.000
  23370052.205    -3821401.18549  -2957375.61045  23370052.350    23370063.819
       203.000         148.000
  23667281.682    -6258566.37249  -4831633.99345  23667281.562    23667292.868
       199.000         146.000
  19977095.302   -13387998.27049 -10409892.58348  19977095.521    19977101.646
       243.000         214.000
 02  5 25  5 40 29.9970000  0  9G20G 2G 3G27G22G 1G31G 8G13
  21805237.691     6029972.34049   4698414.57545  21805237.267    21805244.960
       213.000         155.000
  20989911.237    -2349292.90449  -1696928.72747  20989910.503    20989918.015
       239.000         207.000
  22628537.076   -10952240.65249  -8250225.56845  22628537.455    22628546.469
       211.000         160.000
  21460894.669   -13444536.65249 -10209440.46247  21460894.292    21460901.710
       230.000         190.000
  21596922.800     3890098.37349   3033138.56746  21596922.534    21596930.144
       224.000         173.000
  19675252.849    -7549794.42249  -5703733.83048  19675252.528    19675259.360
       247.000         218.000
  23347451.900    -3940164.23849  -3049918.13445  23347451.673    23347463.195
       206.000         149.000
  23646804.438    -6366180.47349  -4915488.91945  23646804.631    23646815.464
       202.000         148.000
  19963622.163   -13458799.57549 -10465062.40548  19963622.681    19963628.550
       244.000         214.000
 02  5 25  5 40 59.9970000  0  9G20G 2G 3G27G22G 1G31G 8G13
  21819233.552     6103516.11849   4755721.35245  21819233.139    21819240.034
       214.000         156.000
  20994008.138    -2327762.16249  -1680151.51547  20994007.608    20994015.437
       238.000         205.000
  22613601.184   -11030732.01249  -8311387.60845  22613600.699    22613610.013
       211.000         161.000
  21446907.538   -13518040.34149 -10266715.99347  21446907.171    21446914.662
       232.000         191.000
  21609533.563     3956368.52049   3084777.62246  21609532.877    21609540.353
       222.000         171.000
  19670673.878    -7573856.42949  -5722483.43748  19670673.698    19670680.261
       247.000         218.000
  23324863.288    -4058874.66649  -3142419.63045  23324862.863    23324873.163
       207.000         151.000
  23626356.857    -6473632.75149  -4999217.74045  23626356.795    23626368.483
       200.000         148.000
  19950213.833   -13529262.60849 -10519968.63248  19950214.080    19950219.617
       244.000         214.000
 02  5 25  5 41 29.9970000  0  9G20G 2G 3G27G22G 1G31G 8G13
  21833275.920     6177316.21749   4813227.87645  21833275.120    21833284.311
       210.000         156.000
  20998177.993    -2305849.07949  -1663076.37047  20998177.797    20998185.105
       238.000         204.000
  22598735.055   -11108849.59749  -8372258.37845  22598735.395    22598744.485
       211.000         161.000
  21432952.160   -13591375.18349 -10323859.96247  21432952.157    21432959.443
       232.000         192.000
  21622211.032     4022989.06049   3136689.71946  21622210.934    21622218.353
       221.000         172.000
  19666166.565    -7597543.23249  -5740940.67948  19666166.335    19666172.989
       247.000         218.000
  23302278.289    -4177561.02449  -3234902.33545  23302277.521    23302288.330
       210.000         154.000
  23605932.968    -6580954.66549  -5082844.96645  23605932.583    23605945.910
       200.000         148.000
  19936863.718   -13599417.10049 -10574634.44048  19936864.014    19936869.864
       244.000         214.000
 02  5 25  5 41 59.9970000  0  9G20G 2G 3G27G22G 1G31G 8G13
  21847367.346     6251370.25349   4870932.27645  21847366.599    21847376.768
       209.000         154.000
  21002420.580    -2283554.79149  -1645704.18947  21002420.232    21002427.517
       239.000         204.000
  22583941.852   -11186590.04349  -8432835.27345  22583942.192    22583950.776
       212.000         162.000
  21419029.411   -13664540.85549 -10380872.10347  21419029.076    21419036.316
       232.000         192.000
  21634954.531     4089957.64449   3188873.01746  21634954.257    21634962.488
       221.000         173.000
  19661730.831    -7620852.99149  -5759104.12048  19661730.683    19661737.076
       247.000         217.000
  23279698.051    -4296219.84349  -3327363.59045  23279697.978    23279708.555
       213.000         157.000
  23585535.930    -6688145.40349  -5166370.00145  23585536.481    23585547.898
       203.000         149.000
  19923573.292   -13669260.47949 -10629057.81948  19923573.441    19923578.953
       245.000         214.000
 02  5 25  5 42 29.9970000  0  9G20G 2G 3G27G22G 1G31G 8G13
  21861516.757     6325728.71349   4928873.89945  21861517.407    21861526.744
       208.000         153.000
  21006745.857    -2260827.42649  -1627994.54947  21006745.436    21006752.448
       241.000         205.000
  22569231.038   -11263897.17449  -8493074.53645  22569230.803    22569239.183
       214.000         162.000
  21405148.602   -13737484.09849 -10437710.92047  21405148.610    21405155.769
       232.000         193.000
  21647774.730     4157324.94249   3241366.99246  21647773.844    21647781.573
       222.000         173.000
  19657377.321    -7643731.01849  -5776931.14248  19657377.132    19657383.840
       246.000         217.000
  23257133.747    -4414794.33449  -3419759.13345  23257133.664    23257144.163
       214.000         158.000
  23565173.063    -6795151.33249  -5249751.04745  23565172.595    23565183.707
       206.000         149.000
  19910351.962   -13738737.46249 -10683195.69248  19910352.393    19910357.938
       245.000         213.000
 02  5 25  5 42 59.9970000  0  9G20G 2G 3G27G22G 1G31G 8G13
  21875717.842     6400352.26749   4987022.06545  21875717.453    21875726.931
       210.000         153.000
  21011146.053    -2237705.52449  -1609977.48947  21011145.526    21011152.073
       242.000         206.000
  22554596.163   -11340805.17449  -8553002.78345  22554595.587    22554604.119
       213.000         162.000
  21391303.256   -13810242.01849 -10494405.32647  21391302.969    21391310.419
       232.000         193.000
  21660663.042     4225051.39649   3294140.82746  21660662.935    21660669.456
       224.000         172.000
  19653099.085    -7666212.92049  -5794449.50348  19653098.841    19653105.600
       246.000         217.000
  23234578.956    -4533318.12149  -3512115.16845  23234578.735    23234589.586
       215.000         158.000
  23544838.784    -6902008.87049  -5333016.46445  23544838.067    23544848.898
       204.000         147.000
  19897194.138   -13807882.87649 -10737075.20148  19897194.312    19897199.800
       244.000         213.000
 02  5 25  5 43 29.9970000  0  9G20G 2G 3G27G22G 1G31G 8G13
  21889966.936     6475224.49949   5045363.99145  21889966.485    21889973.899
       212.000         154.000
  21015618.091    -2214204.28949  -1591664.84647  21015617.675    21015624.208
       243.000         207.000
  22540034.914   -11417324.64949  -8612628.27846  22540034.957    22540043.515
       217.000         165.000
  21377490.193   -13882828.39249 -10550966.07147  21377489.930    21377497.927
       232.000         193.000
  21673616.592     4293120.59049   3347181.72546  21673615.750    21673623.010
       223.000         171.000
  19648893.976    -7688311.03149  -5811668.80848  19648893.680    19648900.554
       245.000         217.000
  23212032.438    -4651801.62049  -3604439.80745  23212032.044    23212042.991
       216.000         157.000
  23524530.221    -7008731.46249  -5416176.74645  23524529.868    23524539.767
       208.000         147.000
  19884096.852   -13876708.40049 -10790705.44748  19884097.277    19884102.760
       244.000         213.000
 02  5 25  5 43 59.9970000  0  9G20G 2G 3G27G22G 1G31G 8G13
  21904264.219     6550358.39949   5103909.83045  21904263.670    21904271.276
       211.000         154.000
  21020165.109    -2190309.58849  -1573045.61147  21020164.601    21020171.607
       243.000         207.000
  22525551.169   -11493437.09049  -8671936.61846  22525551.305    22525559.603
       217.000         164.000
  21363712.816   -13955227.61849 -10607380.97547  21363712.708    21363720.742
       231.000         193.000
  21686636.824     4361545.50949   3400499.80346  21686637.178    21686642.705
       224.000         171.000
  19644765.132    -7710008.33849  -5828575.80448  19644764.905    19644771.801
       245.000         217.000
  23189497.654    -4770225.80049  -3696718.21745  23189497.167    23189506.885
       219.000         157.000
  23504250.526    -7115302.91649  -5499219.23345  23504249.856    23504260.613
       206.000         146.000
  19871063.982   -13945196.39449 -10844072.68948  19871064.426    19871069.894
       244.000         213.000
 02  5 25  5 44 29.9970000  0  9G20G 2G 3G27G22G 1G31G 8G13
  21918610.444     6625754.12849   5162659.68445  21918610.093    21918620.259
       208.000         152.000
  21024787.104    -2166020.13149  -1554118.76547  21024786.664    21024793.461
       242.000         207.000
  22511145.197   -11569136.61049  -8730923.17846  22511145.594    22511154.402
       217.000         164.000
  21349971.758   -14027436.97049 -10663647.92947  21349971.611    21349979.677
       232.000         195.000
  21699725.234     4430326.40049   3454095.28446  21699724.515    21699732.375
       224.000         172.000
  19640713.260    -7731300.60649  -5845167.18448  19640713.008    19640720.037
       244.000         216.000
  23166974.579    -4888584.52949  -3788945.61245  23166974.586    23166984.026
       220.000         156.000
  23483999.332    -7221720.12949  -5582141.51745  23483998.996    23484010.291
       206.000         147.000
  19858096.638   -14013341.94549 -10897173.08848  19858096.739    19858102.223
       244.000         213.000
 02  5 25  5 44 59.9970000  0  9G20G 2G 3G27G22G 1G31G 8G13
  21933008.936     6701416.87349   5221617.57745  21933009.021    21933018.052
       209.000         153.000
  21029485.444    -2141329.62349  -1534879.41347  21029485.125    21029492.329
       241.000         207.000
  22496821.548   -11644412.64349  -8789579.75246  22496821.028    22496830.331
       219.000         166.000
  21336268.625   -14099448.63049 -10719760.83447  21336267.948    21336276.283
       233.000         195.000
  21712882.888     4499468.34149   3507972.09246  21712881.873    21712889.916
       225.000         174.000
  19636740.013    -7752178.61049  -5861435.76548  19636739.870    19636747.097
       244.000         216.000
  23144465.436    -5006866.59249  -3881113.26345  23144464.876    23144474.644
       219.000         155.000
  23463780.071    -7327974.82749  -5664937.17045  23463780.366    23463789.923
       208.000         145.000
  19845196.035   -14081134.97049 -10949998.79848  19845196.262    19845201.504
       244.000         214.000
 02  5 25  5 45 29.9970000  0  9G20G 2G 3G27G22G 1G31G 8G13
  21947458.686     6777341.55449   5280779.59945  21947458.133    21947466.149
       215.000         156.000
  21034259.265    -2116242.09549  -1515330.68747  21034258.876    21034266.044
       240.000         206.000
  22482576.970   -11719264.68049  -8847905.93346  22482576.295    22482585.553
       218.000         165.000
  21322602.319   -14171265.14949 -10775721.67947  21322601.905    21322609.923
       232.000         195.000
  21726108.308     4568966.34649   3562126.35946  21726107.757    21726115.611
       227.000         176.000
  19632845.857    -7772643.50549  -5877382.44248  19632845.644    19632852.744
       244.000         217.000
  23121971.536    -5125071.10749  -3973220.47845  23121971.234    23121980.898
       217.000         153.000
  23443591.288    -7434069.30449  -5747608.00845  23443590.314    23443599.965
       207.000         144.000
  19832362.377   -14148575.96249 -11002550.19548  19832362.691    19832367.790
       244.000         214.000
 02  5 25  5 45 59.9970000  0  9G20G 2G 3G27G22G 1G31G 8G13
  21961954.937     6853522.30449   5340141.15845  21961954.706    21961962.698
       214.000         156.000
  21039107.854    -2090762.26349  -1495476.26447  21039107.629    21039114.986
       239.000         206.000
  22468414.400   -11793693.19249  -8905902.11746  22468414.128    22468422.341
       219.000         165.000
  21308972.351   -14242889.93649 -10831533.14347  21308972.359    21308979.985
       233.000         195.000
  21739399.950     4638814.50649   3616553.47246  21739398.699    21739407.158
       226.000         176.000
  19629029.782    -7792697.17749  -5893008.68448  19629029.579    19629036.640
       244.000         217.000
  23099492.172    -5243197.94949  -4065267.19345  23099492.547    23099502.136
       216.000         151.000
  23423431.932    -7540006.16049  -5830156.04045  23423430.639    23423440.297
       207.000         144.000
  19819595.520   -14215666.20949 -11054828.28648  19819595.912    19819600.946
       244.000         214.000
 02  5 25  5 46 29.9970000  0  9G20G 2G 3G27G22G 1G31G 8G13
  21976497.619     6929944.16549   5399690.58245  21976497.254    21976506.038
       211.000         155.000
  21044028.453    -2064903.85249  -1475326.84347  21044028.049    21044035.749
       238.000         205.000
  22454330.162   -11867707.17749  -8963575.30246  22454329.943    22454337.673
       220.000         164.000
  21295376.915   -14314335.03549 -10887204.58947  21295377.157    21295384.316
       233.000         195.000
  21752755.493     4708997.97949   3671241.85446  21752754.610    21752762.389
       225.000         175.000
  19625290.065    -7812350.32749  -5908322.83348  19625289.785    19625296.626
       244.000         217.000
  23077026.796    -5361255.76049  -4157260.12545  23077026.736    23077037.217
       215.000         151.000
  23403300.732    -7645797.16749  -5912590.41745  23403300.108    23403309.657
       209.000         144.000
  19806893.510   -14282415.85649 -11106840.97848  19806893.947    19806898.849
       244.000         214.000
 02  5 25  5 46 59.9970000  0  9G20G 2G 3G27G22G 1G31G 8G13
  21991084.268     7006602.08649   5459423.94845  21991084.064    21991093.513
       206.000         152.000
  21049020.716    -2038670.89149  -1454885.56847  21049020.084    21049027.808
       239.000         206.000
  22440323.796   -11941306.73449  -9020925.53746  22440324.399    22440330.942
       218.000         163.000
  21281814.899   -14385603.06449 -10942738.05947  21281814.379    21281822.760
       233.000         195.000
  21766173.770     4779511.72149   3726187.58646  21766173.235    21766180.387
       224.000         173.000
  19621626.082    -7831604.23949  -5923325.88448  19621625.859    19621632.716
       244.000         217.000
  23054573.881    -5479243.84249  -4249198.74145  23054573.577    23054584.014
       213.000         150.000
  23383195.563    -7751444.54749  -5994912.86345  23383195.688    23383205.320
       208.000         143.000
  19794256.244   -14348825.25649 -11158588.54348  19794256.633    19794261.712
       244.000         215.000
 02  5 25  5 47 29.9970000  0  9G20G 2G 3G27G22G 1G31G 8G13
  22005717.071     7083499.04249   5519343.55445  22005717.330    22005726.118
       208.000         150.000
  21054084.666    -2012059.44949  -1434149.37147  21054084.030    21054091.354
       239.000         206.000
  22426398.965   -12014483.34549  -9077946.22346  22426398.601    22426405.878
       220.000         163.000
  21268287.680   -14456688.73549 -10998129.42947  21268287.338    21268295.548
       232.000         195.000
  21779654.722     4850358.47849   3781392.81646  21779654.200    21779661.836
       223.000         171.000
  19618039.430    -7850452.12449  -5938012.55048  19618039.095    19618046.184
       244.000         217.000
  23032136.035    -5597153.19349  -4341075.99745  23032137.139    23032145.622
       212.000         148.000
  23363119.560    -7856942.46249  -6077118.85945  23363119.711    23363128.998
       209.000         144.000
  19781684.948   -14414886.81249 -11210065.06148  19781685.209    19781690.625
       245.000         215.000
 02  5 25  5 47 59.9970000  0  9G20G 2G 3G27G22G 1G31G 8G13
  22020394.780     7160628.06449   5579444.02345  22020393.955    22020403.153
       207.000         150.000
  21059219.549    -1985075.38149  -1413122.82347  21059219.195    21059226.475
       239.000         205.000
  22412553.687   -12087238.59949  -9134638.55646  22412553.966    22412562.422
       218.000         163.000
  21254794.407   -14527596.34149 -11053382.05147  21254794.147    21254802.702
       233.000         194.000
  21793198.622     4921531.31149   3836852.12546  21793198.276    21793206.105
       221.000         169.000
  19614529.555    -7868896.87449  -5952385.08248  19614529.328    19614536.249
       244.000         217.000
  23009714.175    -5714984.81949  -4432892.69845  23009713.581    23009724.184
       214.000         148.000
  23343071.682    -7962294.81549  -6159211.43845  23343071.415    23343082.974
       210.000         146.000
  19769179.646   -14480602.66249 -11261272.20048  19769179.936    19769185.013
       245.000         216.000
 02  5 25  5 48 29.9970000  0  9G20G 2G 3G27G22G 1G31G 8G13
  22035111.408     7237960.97449   5639703.37245  22035111.085    22035120.381
       210.000         153.000
  21064420.278    -1957745.87849  -1391827.10347  21064419.858    21064426.984
       240.000         206.000
  22398784.537   -12159595.03849  -9191020.11946  22398784.960    22398793.644
       218.000         163.000
  21241330.040   -14598351.23749 -11108515.67847  21241330.089    21241337.851
       232.000         194.000
  21806798.706     4993002.09849   3892543.62446  21806798.152    21806805.782
       220.000         170.000
  19611091.932    -7886962.76349  -5966462.39748  19611091.629    19611098.554
       245.000         217.000
  22987301.700    -5832760.76949  -4524666.00145  22987302.162    22987310.932
       214.000         148.000
  23323046.718    -8067526.62349  -6241210.05945  23323046.174    23323058.341
       211.000         149.000
  19756735.893   -14545996.51549 -11312228.43148  19756736.107    19756741.199
       245.000         216.000
 02  5 25  5 48 59.9970000  0  9G20G 2G 3G27G22G 1G31G 8G13
  22049874.934     7315539.48349   5700154.07645  22049873.998    22049882.784
       214.000         156.000
  21069695.055    -1930027.73849  -1370228.55147  21069694.347    21069701.638
       241.000         206.000
  22385101.217   -12231505.37149  -9247054.10046  22385100.995    22385109.050
       219.000         165.000
  21227903.367   -14668908.97749 -11163495.67047  21227903.233    21227911.189
       232.000         193.000
  21820464.502     5064812.84249   3948500.02346  21820463.817    21820471.696
       222.000         170.000
  19607734.720    -7904603.82449  -5980208.67948  19607734.406    19607741.517
       245.000         217.000
  22964909.127    -5950433.00249  -4616358.50145  22964908.530    22964917.318
       213.000         146.000
  23303052.890    -8172593.18649  -6323079.92945  23303052.622    23303063.395
       212.000         149.000
  19744361.753   -14611021.61549 -11362897.32048  19744362.096    19744367.420
       246.000         216.000
 02  5 25  5 49 29.9970000  0  9G20G 2G 3G27G22G 1G31G 8G13
  22064680.364     7393345.29549   5760781.87345  22064679.694    22064688.961
       215.000         158.000
  21075040.159    -1901938.60649  -1348340.92047  21075039.410    21075046.856
       242.000         206.000
  22371499.363   -12302982.68849  -9302750.65546  22371499.514    22371507.118
       217.000         164.000
  21214511.109   -14739285.39049 -11218334.38047  21214510.979    21214518.411
       232.000         192.000
  21834191.463     5136945.04049   4004706.90246  21834190.419    21834198.555
       222.000         172.000
  19604455.787    -7921834.58949  -5993635.25248  19604455.556    19604462.664
       245.000         217.000
  22942534.338    -6068014.01649  -4707979.90245  22942535.626    22942543.422
       214.000         146.000
  23283088.035    -8277509.71149  -6404832.91245  23283087.318    23283098.413
       213.000         151.000
  19732055.264   -14675691.62649 -11413289.52048  19732055.670    19732061.231
       245.000         215.000
 02  5 25  5 49 59.9970000  0  9G20G 2G 3G27G22G 1G31G 8G13
  22079529.768     7471377.94749   5821586.43445  22079529.374    22079537.478
       215.000         159.000
  21080456.072    -1873477.80849  -1326163.68547  21080455.441    21080462.579
       242.000         205.000
  22357980.967   -12374021.85649  -9358105.80046  22357981.139    22357988.775
       217.000         165.000
  21201154.046   -14809478.32349 -11273030.11747  21201153.972    21201161.206
       232.000         192.000
  21847979.010     5209398.25449   4061163.92346  21847978.084    21847985.591
       221.000         171.000
  19601255.761    -7938651.47249  -6006739.31648  19601255.748    19601262.442
       245.000         217.000
  22920177.202    -6185498.07149  -4799525.78145  22920176.843    22920187.293
       213.000         149.000
  23263152.000    -8382273.59749  -6486466.93145  23263151.559    23263163.402
       213.000         153.000
  19719817.538   -14740002.18349 -11463401.63248  19719817.997    19719823.069
       244.000         215.000
 02  5 25  5 50 29.9970000  0  9G20G 2G 3G27G22G 1G31G 8G13
  22094418.927     7549619.77849   5882554.00045  22094418.070    22094426.776
       214.000         159.000
  21085939.598    -1844661.78049  -1303709.65247  21085939.375    21085946.059
       242.000         204.000
  22344543.351   -12444635.16749  -9413129.10446  22344542.824    22344550.830
       216.000         163.000
  21187829.082   -14879502.81049 -11327594.59347  21187828.911    21187835.758
       232.000         192.000
  21861822.995     5282155.01249   4117857.47846  21861822.475    21861830.221
       217.000         168.000
  19598131.782    -7955067.98249  -6019531.40448  19598131.586    19598138.492
       245.000         217.000
  22897837.328    -6302896.69449  -4891005.08345  22897837.302    22897847.664
       214.000         154.000
  23243242.508    -8486899.59449  -6567993.51645  23243242.182    23243252.987
       213.000         154.000
  19707645.503   -14803966.20649 -11513243.71848  19707645.979    19707651.326
       244.000         214.000
 02  5 25  5 50 59.9960000  0  9G20G 2G 3G27G22G 1G31G 8G13
  22109340.125     7628034.72249   5943656.46545  22109340.544    22109348.452
       210.000         155.000
  21091484.182    -1815524.15149  -1281005.01747  21091483.809    21091490.822
       240.000         203.000
  22331181.725   -12514848.55849  -9467840.78846  22331182.195    22331189.532
       216.000         164.000
  21174530.083   -14949387.71349 -11382050.30047  21174530.040    21174537.489
       232.000         192.000
  21875718.431     5355179.10549   4174759.33546  21875716.861    21875726.096
       218.000         164.000
  19595078.309    -7971113.55749  -6032034.45048  19595078.161    19595085.027
       245.000         217.000
  22875509.990    -6420233.59449  -4982436.27345  22875509.063    22875519.662
       218.000         160.000
  23223353.179    -8591414.95049  -6649433.89545  23223352.851    23223364.001
       213.000         155.000
  19695534.369   -14867610.84149 -11562836.93048  19695534.664    19695539.993
       243.000         213.000
 02  5 25  5 51 29.9960000  0  9G20G 2G 3G27G22G 1G31G 8G13
  22124304.839     7706677.82249   6004936.73545  22124304.607    22124312.513
       203.000         148.000
  21097100.024    -1786012.00649  -1258008.54547  21097099.488    21097106.768
       239.000         202.000
  22317907.292   -12584611.21449  -9522201.24446  22317907.261    22317914.625
       217.000         165.000
  21161266.698   -15019085.06749 -11436359.87547  21161266.596    21161274.096
       232.000         192.000
  21889676.249     5428525.48449   4231912.33846  21889675.151    21889683.331
       218.000         165.000
  19592105.818    -7986735.28549  -6044207.22548  19592105.423    19592112.235
       246.000         217.000
  22853202.323    -6537460.56549  -5073781.81445  22853201.785    22853211.957
       218.000         160.000
  23203494.085    -8695773.43549  -6730752.01545  23203493.807    23203505.848
       215.000         155.000
  19683493.521   -14930885.29849 -11612141.69248  19683493.706    19683499.355
       243.000         213.000
 02  5 25  5 51 59.9960000  0  9G20G 2G 3G27G22G 1G31G 8G13
  22139310.651     7785541.97949   6066389.27645  22139310.168    22139320.284
       201.000         144.000
  21102786.273    -1756129.61149  -1234723.56747  21102785.940    21102793.041
       238.000         201.000
  22304718.018   -12653919.89649  -9576207.95946  22304718.312    22304726.389
       217.000         167.000
  21148039.902   -15088594.32949 -11490522.88347  21148039.683    21148047.019
       232.000         193.000
  21903694.454     5502187.47349   4289311.26546  21903693.588    21903700.848
       220.000         167.000
  19589213.789    -8001933.19949  -6056049.76048  19589213.540    19589220.185
       246.000         217.000
  22830916.499    -6654571.93749  -5165037.29045  22830916.238    22830926.116
       217.000         159.000
  23183665.830    -8799973.17049  -6811946.43545  23183665.157    23183676.882
       216.000         156.000
  19671523.759   -14993787.15149 -11661156.11548  19671524.142    19671529.622
       244.000         214.000
 02  5 25  5 52 29.9960000  0  9G20G 2G 3G27G22G 1G31G 8G13
  22154354.724     7864589.53549   6127984.67945  22154354.415    22154363.632
       208.000         150.000
  21108536.121    -1725913.70349  -1211178.69647  21108535.840    21108543.416
       237.000         201.000
  22291609.313   -12722806.88149  -9629886.09046  22291608.719    22291617.211
       218.000         168.000
  21134841.601   -15157950.65549 -11544566.72147  21134841.320    21134849.020
       233.000         193.000
  21917765.039     5576127.20749   4346926.62146  21917764.761    21917771.892
       221.000         169.000
  19586395.935    -8016741.02249  -6067588.32648  19586395.572    19586402.353
       246.000         217.000
  22808646.786    -6771599.43549  -5256227.42245  22808646.412    22808655.878
       217.000         157.000
  23163861.402    -8904048.76949  -6893044.14945  23163861.279    23163871.029
       218.000         156.000
  19659618.605   -15056349.57449 -11709906.04048  19659618.919    19659624.336
       245.000         214.000
 02  5 25  5 52 59.9960000  0  9G20G 2G 3G27G22G 1G31G 8G13
  22169437.892     7943848.13349   6189744.49845  22169437.958    22169446.439
       215.000         155.000
  21114355.109    -1695335.73249  -1187351.69247  21114354.607    21114362.142
       238.000         203.000
  22278587.019   -12791239.59149  -9683210.23246  22278587.100    22278594.691
       218.000         168.000
  21121678.389   -15227123.97749 -11598467.95147  21121678.095    21121685.661
       234.000         193.000
  21931893.610     5650372.32749   4404779.93646  21931892.936    21931900.501
       220.000         170.000
  19583658.313    -8031127.33549  -6078798.44048  19583658.135    19583664.703
       245.000         217.000
  22786399.086    -6888509.33549  -5347325.93445  22786398.914    22786408.363
       216.000         155.000
  23144085.822    -9007969.74449  -6974021.36845  23144085.252    23144096.097
       218.000         156.000
  19647784.076   -15118540.45149 -11758366.44548  19647784.356    19647789.749
       246.000         215.000
 02  5 25  5 53 29.9960000  0  9G20G 2G 3G27G22G 1G31G 8G13
  22184564.512     8023331.19649   6251679.23045  22184563.774    22184571.627
       217.000         159.000
  21120245.715    -1664381.02949  -1163231.13647  21120245.233    21120252.736
       239.000         205.000
  22265654.360   -12859198.86949  -9736165.44246  22265654.403    22265662.045
       219.000         169.000
  21108553.393   -15296097.86849 -11652213.80447  21108552.796    21108560.226
       234.000         194.000
  21946082.307     5724936.39749   4462881.78246  21946081.471    21946089.326
       218.000         168.000
  19581004.131    -8045074.57249  -6089666.41948  19581003.902    19581010.689
       245.000         216.000
  22764178.028    -7005281.83849  -5438317.36145  22764177.513    22764186.753
       213.000         151.000
  23124342.612    -9111719.39349  -7054865.08745  23124341.873    23124352.238
       215.000         154.000
  19636023.792   -15180341.12649 -11806522.79648  19636023.959    19636029.342
       246.000         216.000
 02  5 25  5 53 59.9960000  0  9G20G 2G 3G27G22G 1G31G 8G13
  22199729.395     8103027.58449   6313780.19845  22199729.205    22199736.183
       214.000         156.000
  21126206.265    -1633059.89149  -1138825.05447  21126205.782    21126213.166
       241.000         206.000
  22252810.673   -12926690.74849  -9788756.45946  22252810.403    22252818.438
       219.000         168.000
  21095464.712   -15364881.00749 -11705811.01647  21095464.192    21095470.934
       235.000         195.000
  21960329.473     5799808.42249   4521223.59946  21960328.643    21960337.435
       216.000         167.000
  19578432.205    -8058590.37849  -6100198.22248  19578432.009    19578438.846
       245.000         216.000
  22741982.246    -7121922.28149  -5529205.86045  22741980.617    22741989.959
       211.000         148.000
  23104630.540    -9215306.23849  -7135581.96945  23104630.463    23104640.160
       217.000         151.000
  19624336.154   -15241758.55849 -11854380.51248  19624336.505    19624341.975
       246.000         216.000
 02  5 25  5 54 29.9960000  0  9G20G 2G 3G27G22G 1G31G 8G13
  22214931.406     8182918.98349   6376033.08745  22214931.446    22214940.860
       211.000         152.000
  21132232.891    -1601389.60549  -1114146.91047  21132232.380    21132239.859
       241.000         206.000
  22240054.045   -12993728.58249  -9840993.66946  22240054.325    22240062.085
       220.000         171.000
  21082408.939   -15433489.23849 -11759271.92847  21082408.830    21082415.589
       235.000         195.000
  21974631.904     5874969.77249   4579790.86646  21974631.554    21974639.046
       217.000         164.000
  19575939.614    -8071689.23049  -6110405.12948  19575939.412    19575946.105
       245.000         215.000
  22719808.833    -7238442.82249  -5620000.94045  22719808.441    22719815.242
       210.000         146.000
  23084945.732    -9318745.73049  -7216184.02945  23084945.548    23084956.120
       213.000         152.000
  19612719.304   -15302806.24049 -11901950.11548  19612719.698    19612725.179
       245.000         215.000
 02  5 25  5 54 59.9960000  0  9G20G 2G 3G27G22G 1G31G 8G13
  22230176.556     8263032.15549   6438458.80845  22230177.365    22230186.513
       208.000         150.000
  21138331.282    -1569342.07149  -1089174.80547  21138330.889    21138338.229
       240.000         206.000
  22227389.902   -13060279.82349  -9892851.72146  22227389.471    22227397.324
       221.000         173.000
  21069391.727   -15501892.90049 -11812573.44447  21069391.241    21069398.773
       235.000         195.000
  21988995.419     5950447.67049   4638604.79446  21988994.613    21989001.566
       220.000         165.000
  19573532.175    -8084340.14449  -6120262.98948  19573532.012    19573538.582
       245.000         215.000
  22697663.405    -7354810.34549  -5710676.78545  22697662.119    22697673.770
       207.000         148.000
  23065296.303    -9422007.49549  -7296647.59145  23065296.516    23065305.933
       215.000         149.000
  19601178.584   -15363452.00849 -11949206.54248  19601178.963    19601184.602
       243.000         214.000
 02  5 25  5 55 29.9960000  0  9G20G 2G 3G27G22G 1G31G 8G13
  22245461.584     8343352.94849   6501046.34145  22245460.432    22245469.897
       202.000         145.000
  21144498.792    -1536930.32149  -1063918.89547  21144498.637    21144505.813
       239.000         204.000
  22214816.780   -13126352.95249  -9944337.21646  22214816.517    22214824.270
       222.000         174.000
  21056411.603   -15570103.29249 -11865724.35847  21056411.354    21056418.372
       234.000         195.000
  22003416.711     6026228.10549   4697654.46046  22003416.185    22003421.934
       220.000         166.000
  19571208.097    -8096553.28649  -6129779.72548  19571207.699    19571214.557
       244.000         214.000
  22675546.026    -7471032.63849  -5801239.44745  22675546.684    22675557.243
       205.000         148.000
  23045677.968    -9525102.94849  -7376981.58745  23045677.910    23045686.698
       215.000         149.000
  19589712.568   -15423706.18149 -11996157.83448  19589712.768    19589718.503
       242.000         213.000
 02  5 25  5 55 59.9960000  0  9G20G 2G 3G27G22G 1G31G 8G13
  22260782.355     8423868.54749   6563785.68745  22260779.369    22260791.937
       200.000         141.000
  21150733.349    -1504166.49049  -1038388.63747  21150732.984    21150740.434
       238.000         202.000
  22202332.951   -13191955.98949  -9995456.40646  22202333.064    22202341.466
       224.000         177.000
  21043466.089   -15638131.10649 -11918733.00547  21043465.629    21043472.607
       234.000         195.000
  22017891.857     6102298.09449   4756929.73746  22017891.090    22017898.395
       220.000         168.000
  19568965.535    -8108337.76149  -6138962.44148  19568965.345    19568971.936
       244.000         213.000
  22653456.421    -7587116.75849  -5891694.46745  22653455.885    22653467.737
       206.000         149.000
  23026088.552    -9628041.94649  -7457193.66145  23026088.718    23026097.094
       212.000         147.000
  19578319.607   -15483576.51849 -12042810.03348  19578319.853    19578325.492
       241.000         213.000
 02  5 25  5 56 29.9960000  0  9G20G 2G 3G27G22G 1G31G 8G13
  22276138.832     8504571.71749   6626671.18045  22276139.160    22276148.392
       202.000         141.000
  21157033.860    -1471056.95549  -1012588.99847  21157033.708    21157040.738
       237.000         200.000
  22189937.977   -13257091.09249 -10046210.97446  22189938.003    22189946.330
       224.000         177.000
  21030554.683   -15705980.93549 -11971602.95947  21030554.595    21030561.998
       235.000         196.000
  22032421.194     6178650.47149   4816425.06446  22032420.129    22032428.231
       218.000         167.000
  19566803.998    -8119697.12749  -6147813.90448  19566803.907    19566810.446
       244.000         213.000
  22631392.930    -7703063.86549  -5982042.71045  22631392.497    22631402.813
       207.000         151.000
  23006528.785    -9730828.94349  -7537287.29545  23006529.269    23006538.576
       212.000         147.000
  19566999.232   -15543065.47549 -12089165.05848  19566999.642    19567005.063
       242.000         214.000
 02  5 25  5 56 59.9960000  0  9G20G 2G 3G27G22G 1G31G 8G13
  22291528.523     8585439.38149   6689684.82245  22291527.883    22291537.872
       204.000         147.000
  21163396.029    -1437623.65449   -986537.07147  21163395.581    21163402.946
       237.000         198.000
  22177628.566   -13321776.21649 -10096614.92146  22177628.580    22177636.705
       224.000         178.000
  21017673.533   -15773673.16949 -12024350.12047  21017673.123    21017680.715
       235.000         197.000
  22046999.223     6255262.19449   4876122.48046  22046998.405    22047007.025
       217.000         167.000
  19564719.610    -8130650.65949  -6156349.13048  19564719.406    19564726.147
       243.000         213.000
  22609352.122    -7818890.78849  -6072297.32145  22609351.105    22609361.037
       208.000         152.000
  22986993.609    -9833484.05749  -7617278.15445  22986992.650    22987002.957
       213.000         146.000
  19555747.997   -15602191.91149 -12135237.59348  19555748.324    19555753.684
       243.000         214.000
 02  5 25  5 57 29.9960000  0  9G20G 2G 3G27G22G 1G31G 8G13
  22306952.516     8666494.72649   6752844.67345  22306952.949    22306962.176
       208.000         150.000
  21169824.664    -1403842.48849   -960214.09147  21169823.922    21169831.178
       238.000         198.000
  22165410.713   -13385983.06449 -10146646.18146  22165410.259    22165418.182
       225.000         178.000
  21004827.266   -15841182.15149 -12076954.50147  21004826.619    21004834.220
       236.000         198.000
  22061631.737     6332156.29549   4936039.93346  22061630.984    22061640.092
       216.000         165.000
  19562717.597    -8141171.49649  -6164547.19247  19562717.303    19562724.184
       244.000         212.000
  22587339.343    -7934568.34349  -6162435.51545  22587338.839    22587348.433
       213.000         154.000
  22967489.866    -9935981.18149  -7697145.91545  22967488.190    22967499.698
       214.000         149.000
  19544571.154   -15660927.88749 -12181005.86548  19544571.413    19544576.644
       245.000         215.000
 02  5 25  5 57 59.9960000  0  9G20G 2G 3G27G22G 1G31G 8G13
  22322410.734     8747724.82449   6816140.71245  22322410.975    22322420.458
       212.000         152.000
  21176316.862    -1369724.97049   -933629.02147  21176316.612    21176323.050
       238.000         197.000
  22153282.065   -13449719.03449 -10196310.52246  22153281.784    22153289.430
       225.000         177.000
  20992013.685   -15908517.71049 -12129423.74047  20992013.378    20992020.741
       236.000         199.000
  22076315.789     6409320.39249   4996167.78646  22076315.762    22076322.905
       216.000         164.000
  19560796.196    -8151268.50649  -6172414.99647  19560795.997    19560802.686
       243.000         212.000
  22565353.651    -8050103.00849  -6252462.38145  22565353.512    22565363.019
       215.000         158.000
  22948013.564   -10038329.96449  -7776898.08245  22948012.471    22948022.913
       213.000         148.000
  19533466.827   -15719281.26349 -12226476.00248  19533467.044    19533472.329
       245.000         216.000
 02  5 25  5 58 29.9960000  0  9G20G 2G 3G27G22G 1G31G 8G13
  22337907.678     8829153.53249   6879591.51045  22337907.188    22337915.049
       215.000         155.000
  21182878.006    -1335246.67949   -906762.83147  21182877.573    21182884.021
       237.000         197.000
  22141248.424   -13512955.26449 -10245585.45446  22141248.877    22141256.168
       225.000         177.000
  20979238.044   -15975653.82249 -12181737.55747  20979238.169    20979244.980
       237.000         199.000
  22091056.143     6486778.12649   5056524.42646  22091054.780    22091062.517
       217.000         163.000
  19558960.494    -8160914.33149  -6179931.22947  19558960.325    19558967.311
       243.000         211.000
  22543400.515    -8165465.02249  -6342354.72145  22543400.600    22543410.144
       213.000         159.000
  22928570.049   -10140503.91049  -7856514.05045  22928569.933    22928578.389
       213.000         149.000
  19522440.935   -15777223.73749 -12271625.95248  19522441.068    19522446.209
       246.000         216.000
 02  5 25  5 58 59.9960000  0  9G20G 2G 3G27G22G 1G31G 8G13
  22353429.916     8910724.99749   6943153.55245  22353430.045    22353438.016
       215.000         155.000
  21189497.105    -1300462.26549   -879658.09647  21189496.619    21189503.862
       236.000         196.000
  22129300.759   -13575742.10849 -10294510.21146  22129300.824    22129308.656
       226.000         177.000
  20966490.407   -16042643.48149 -12233937.26047  20966490.116    20966497.143
       237.000         199.000
  22105841.613     6564474.06949   5117066.68545  22105840.599    22105847.781
       217.000         162.000
  19557200.950    -8170160.77649  -6187136.25347  19557200.722    19557207.740
       242.000         212.000
  22521471.752    -8280703.76849  -6432151.01446  22521471.438    22521480.857
       217.000         163.000
  22909149.697   -10242555.64749  -7936034.76445  22909148.583    22909159.360
       213.000         151.000
  19511483.207   -15834806.30149 -12316495.45148  19511483.460    19511488.611
       245.000         215.000
 02  5 25  5 59 29.9960000  0  9G20G 2G 3G27G22G 1G31G 8G13
  22368984.395     8992462.46549   7006844.94245  22368984.040    22368992.220
       209.000         150.000
  21196178.956    -1265347.65949   -852296.06447  21196178.656    21196185.824
       235.000         198.000
  22117443.451   -13638051.51649 -10343062.94746  22117442.623    22117451.132
       225.000         176.000
  20953775.318   -16109460.73449 -12286002.61747  20953775.250    20953782.126
       237.000         200.000
  22120676.324     6642431.28849   5177812.51945  22120676.078    22120683.917
       215.000         161.000
  19555522.506    -8178981.00049  -6194009.16247  19555522.472    19555529.212
       242.000         212.000
  22499571.924    -8395790.02549  -6521828.48646  22499571.938    22499580.672
       221.000         167.000
  22889758.459   -10344459.18949  -8015439.99445  22889759.325    22889767.677
       213.000         152.000
  19500599.102   -15892001.23949 -12361062.91048  19500599.383    19500604.853
       243.000         214.000
 02  5 25  5 59 59.9960000  0  9G20G 2G 3G27G22G 1G31G 8G13
  22384570.284     9074368.92249   7070667.97845  22384569.548    22384579.048
       204.000         146.000
  21202924.855    -1229899.04849   -824673.76047  21202924.544    21202931.463
       236.000         198.000
  22105678.709   -13699875.31149 -10391237.29146  22105678.757    22105686.435
       225.000         175.000
  20941094.211   -16176100.27749 -12337929.49447  20941093.879    20941100.741
       237.000         199.000
  22135561.354     6720652.66249   5238764.19245  22135560.128    22135567.180
       214.000         160.000
  19553926.582    -8187368.52549  -6200544.90347  19553926.413    19553933.213
       242.000         212.000
  22477702.711    -8510714.93349  -6611380.24446  22477701.885    22477710.683
       221.000         169.000
  22870396.099   -10446208.79449  -8094725.28245  22870395.410    22870405.908
       213.000         153.000
  19489790.194   -15948800.93849 -12405322.38947  19489790.828    19489796.036
       242.000         212.000
 02  5 25  6  0 29.9960000  0  9G20G 2G 3G27G22G 1G31G 8G13
  22400188.902     9156440.97249   7134620.08745  22400187.560    22400196.954
       206.000         143.000
  21209733.812    -1194118.36249   -796792.70047  21209733.163    21209740.672
       237.000         200.000
  22094006.810   -13761211.44749 -10439031.62446  22094007.068    22094014.050
       225.000         173.000
  20928446.557   -16242562.38849 -12389718.11047  20928446.475    20928453.915
       237.000         200.000
  22150495.487     6799135.35649   5299919.50245  22150493.896    22150502.580
       214.000         157.000
  19552413.169    -8195322.43749  -6206742.76847  19552412.850    19552419.603
       242.000         212.000
  22455863.518    -8625475.09349  -6700803.60846  22455863.299    22455872.650
       217.000         167.000
  22851063.193   -10547804.38949  -8173890.55345  22851062.870    22851072.321
       215.000         154.000
  19479057.086   -16005204.06249 -12449272.85847  19479057.418    19479062.797
       240.000         211.000
 02  5 25  6  0 59.9960000  0  9G20G 2G 3G27G22G 1G31G 8G13
  22415837.041     9238674.78449   7198698.22345  22415835.152    22415844.470
       204.000         143.000
  21216605.308    -1158008.72549   -768655.31047  21216604.826    21216611.987
       238.000         202.000
  22082427.893   -13822058.92649 -10486445.20746  22082427.000    22082434.569
       225.000         170.000
  20915832.822   -16308848.56949 -12441369.64047  20915832.856    20915840.045
       237.000         200.000
  22165479.640     6877875.42649   5361275.35845  22165478.429    22165485.707
       213.000         157.000
  19550981.958    -8202843.11849  -6212603.04547  19550981.627    19550988.456
       242.000         212.000
  22434057.229    -8740068.58449  -6790097.08046  22434057.022    22434066.072
       219.000         166.000
  22831758.961   -10649247.20249  -8252936.77745  22831758.545    22831768.345
       215.000         153.000
  19468399.308   -16061209.65149 -12492913.56247  19468399.787    19468405.266
       240.000         211.000
 02  5 25  6  1 29.9960000  0  9G20G 2G 3G27G22G 1G31G 8G13
  22431518.751     9321079.63649   7262909.63945  22431518.117    22431526.870
       209.000         147.000
  21223541.508    -1121559.95549   -740253.67347  21223540.818    21223548.374
       239.000         202.000
  22070944.249   -13882403.98649 -10533467.28746  22070944.067    22070951.679
       224.000         170.000
  20903254.737   -16374947.09449 -12492874.94947  20903254.680    20903261.723
       236.000         200.000
  22180513.153     6956882.17349   5422839.03045  22180512.984    22180521.102
       211.000         155.000
  19549635.484    -8209917.75549  -6218115.76647  19549635.323    19549642.350
       242.000         212.000
  22412285.263    -8854479.99949  -6879248.68746  22412284.805    22412293.816
       218.000         166.000
  22812486.946   -10750525.03749  -8331854.44845  22812487.094    22812495.787
       215.000         155.000
  19457820.189   -16116804.06849 -12536233.87747  19457820.562    19457826.065
       240.000         212.000
 02  5 25  6  1 59.9960000  0  9G20G 2G 3G27G22G 1G31G 8G13
  22447228.786     9403635.42249   7327238.65845  22447228.093    22447237.313
       213.000         152.000
  21230538.150    -1084791.30149   -711602.76747  21230537.672    21230545.220
       238.000         202.000
  22059554.234   -13942261.46749 -10580109.42546  22059554.594    22059561.292
       224.000         169.000
  20890709.132   -16440875.57149 -12544247.74747  20890708.700    20890716.081
       237.000         200.000
  22195594.845     7036135.37649   5484594.73545  22195594.630    22195602.516
       212.000         156.000
  19548371.067    -8216562.78349  -6223293.71547  19548370.732    19548377.862
       242.000         212.000
  22390545.379    -8968723.33449  -6968269.32246  22390545.241    22390553.890
       220.000         166.000
  22793242.379   -10851655.26249  -8410657.08045  22793242.426    22793250.924
       216.000         154.000
  19447316.414   -16172002.78349 -12579245.84448  19447316.658    19447322.098
       242.000         214.000
 02  5 25  6  2 29.9960000  0  9G20G 2G 3G27G22G 1G31G 8G13
  22462970.327     9486358.87449   7391698.29645  22462969.987    22462979.393
       213.000         156.000
  21237599.389    -1047684.76749   -682688.58247  21237598.656    21237606.096
       236.000         200.000
  22048260.196   -14001609.17549 -10626354.34046  22048260.416    22048267.358
       222.000         167.000
  20878199.155   -16506614.11749 -12595472.55147  20878199.437    20878206.133
       236.000         199.000
  22210727.205     7115652.33149   5546555.95245  22210726.385    22210733.481
       213.000         158.000
  19547192.183    -8222757.39749  -6228120.70248  19547191.867    19547199.033
       242.000         213.000
  22368842.546    -9082775.37049  -7057140.91146  22368841.628    22368850.536
       221.000         166.000
  22774029.729   -10952617.78749  -8489329.06345  22774029.122    22774038.315
       216.000         153.000
  19436891.939   -16226784.48949 -12621932.87348  19436892.265    19436897.716
       243.000         215.000
 02  5 25  6  2 59.9960000  0  9G20G 2G 3G27G22G 1G31G 8G13
  22478739.576     9569226.34849   7456270.18345  22478739.384    22478748.739
       213.000         156.000
  21244720.294    -1010263.15549   -653528.88447  21244719.697    21244727.256
       236.000         199.000
  22037059.873   -14060465.93849 -10672216.71046  22037059.873    22037066.746
       220.000         167.000
  20865721.710   -16572183.96049 -12646565.89647  20865721.616    20865728.412
       236.000         199.000
  22225904.339     7195409.41849   5608704.29645  22225903.219    22225912.148
       215.000         161.000
  19546095.400    -8228521.67349  -6232612.35448  19546095.197    19546102.079
       242.000         213.000
  22347171.688    -9196653.62749  -7145877.08346  22347171.516    22347180.626
       220.000         167.000
  22754844.811   -11053433.29249  -8567886.44945  22754843.875    22754855.212
       216.000         154.000
  19426543.309   -16281167.70549 -12664309.38348  19426543.840    19426548.731
       244.000         217.000
 02  5 25  6  3 29.9960000  0  9G20G 2G 3G27G22G 1G31G 8G13
  22494535.018     9652230.64049   7520948.69445  22494533.998    22494544.401
       207.000         154.000
  21251899.768     -972532.72349   -624128.53647  21251899.379    21251906.968
       235.000         197.000
  22025953.137   -14118834.04049 -10717698.28746  22025952.185    22025959.823
       220.000         167.000
  20853275.401   -16637589.72349 -12697531.37647  20853275.206    20853282.420
       236.000         199.000
  22241125.819     7275399.66049   5671034.30945  22241125.100    22241133.860
       216.000         161.000
  19545079.558    -8233859.26949  -6236771.53048  19545079.524    19545086.378
       242.000         214.000
  22325534.115    -9310359.24949  -7234478.73846  22325533.983    22325542.034
       220.000         168.000
  22735685.924   -11154106.39149  -8646332.89645  22735687.388    22735695.511
       212.000         154.000
  19416269.764   -16335155.44749 -12706377.72948  19416270.064    19416275.206
       244.000         217.000
 02  5 25  6  3 59.9960000  0  9G20G 2G 3G27G22G 1G31G 8G13
  22510353.740     9735362.67349   7585726.75145  22510352.031    22510363.170
       204.000         149.000
  21259136.803     -934501.77449   -594494.02647  21259136.277    21259143.742
       234.000         196.000
  22014938.038   -14176717.48849 -10762802.20746  22014938.400    22014944.687
       221.000         168.000
  20840859.148   -16702837.98349 -12748374.13247  20840858.739    20840866.019
       236.000         199.000
  22256390.251     7355613.59649   5733538.63345  22256389.648    22256398.470
       216.000         162.000
  19544144.128    -8238775.65849  -6240602.49248  19544143.908    19544150.950
       243.000         214.000
  22303928.668    -9423895.24449  -7322948.20346  22303927.936    22303937.414
       220.000         168.000
  22716555.046   -11254643.27149  -8724673.22245  22716555.810    22716563.726
       212.000         153.000
  19406070.627   -16388752.19249 -12748141.40648  19406070.905    19406075.959
       244.000         216.000
 02  5 25  6  4 29.9960000  0  9G20G 2G 3G27G22G 1G31G 8G13
  22526196.997     9818622.75149   7650604.59945  22526196.977    22526207.646
       202.000         145.000
  21266431.473     -896168.90349   -564624.25647  21266430.790    21266438.208
       235.000         196.000
  22004016.220   -14234111.41449 -10807524.68946  22004015.893    22004023.901
       222.000         169.000
  20828473.213   -16767925.66549 -12799091.76147  20828472.651    20828480.260
       235.000         198.000
  22271696.842     7436052.05449   5796217.91045  22271696.354    22271705.345
       215.000         161.000
  19543289.587    -8243266.86149  -6244102.14348  19543289.266    19543296.419
       243.000         215.000
  22282356.998    -9537255.05949  -7411280.39846  22282356.603    22282365.505
       219.000         168.000
  22697449.788   -11355040.63749  -8802904.80145  22697449.469    22697460.505
       213.000         155.000
  19395946.798   -16441952.87449 -12789596.46648  19395947.085    19395952.276
       242.000         215.000
 02  5 25  6  4 59.9960000  0  9G20G 2G 3G27G22G 1G31G 8G13
  22542064.164     9901997.15449   7715571.54045  22542064.086    22542072.683
       206.000         147.000
  21273780.936     -857546.83049   -534529.14347  21273780.486    21273787.628
       237.000         196.000
  21993185.997   -14291024.28449 -10851872.31746  21993186.526    21993193.777
       223.000         170.000
  20816115.529   -16832863.86349 -12849692.91747  20816115.372    20816122.569
       235.000         199.000
  22287044.780     7516701.37249   5859061.49645  22287044.251    22287051.658
       215.000         161.000
  19542513.900    -8247342.96849  -6247278.34948  19542513.635    19542520.650
       243.000         216.000
  22260817.019    -9650446.13149  -7499481.10146  22260816.964    22260827.384
       219.000         167.000
  22678368.908   -11455309.23749  -8881036.04945  22678368.187    22678379.931
       209.000         155.000
  19385896.670   -16494766.68749 -12830750.07248  19385896.924    19385902.142
       242.000         213.000
 02  5 25  6  5 29.9960000  0  9G20G 2G 3G27G22G 1G31G 8G13
  22557954.533     9985504.99549   7780642.40145  22557954.249    22557965.110
       208.000         145.000
  21281189.440     -818615.69849   -504193.20547  21281189.039    21281195.958
       236.000         196.000
  21982452.162   -14347432.02449 -10895826.34546  21982452.453    21982459.494
       223.000         171.000
  20803790.652   -16897630.88349 -12900160.68247  20803790.522    20803797.777
       235.000         198.000
  22302435.651     7597580.81849   5922084.41045  22302434.666    22302441.901
       217.000         160.000
  19541821.625    -8250981.25249  -6250113.38848  19541821.325    19541828.286
       244.000         216.000
  22239314.469    -9763443.18349  -7587530.63046  22239314.147    22239322.865
       219.000         166.000
  22659317.641   -11555427.13849  -8959049.88345  22659317.136    22659327.138
       209.000         155.000
  19375924.628   -16547170.05049 -12871583.85147  19375924.829    19375929.925
       241.000         212.000
 02  5 25  6  5 59.9960000  0  9G20G 2G 3G27G22G 1G31G 8G13
  22573870.076    10069131.66249   7845805.80645  22573868.513    22573876.721
       212.000         145.000
  21288654.266     -779389.16649   -473627.08647  21288653.661    21288660.787
       237.000         196.000
  21971812.211   -14403344.43149 -10939394.40046  21971812.857    21971819.348
       225.000         173.000
  20791496.386   -16962238.87149 -12950504.52047  20791496.199    20791503.577
       235.000         198.000
  22317867.577     7678675.80749   5985275.25445  22317866.918    22317874.095
       218.000         161.000
  19541210.405    -8254192.78649  -6252615.89348  19541210.195    19541217.295
       244.000         217.000
  22217846.627    -9876254.82249  -7675435.69346  22217846.294    22217855.871
       218.000         165.000
  22640292.517   -11655406.15849  -9036955.49745  22640291.208    22640301.755
       209.000         154.000
  19366028.639   -16599172.90949 -12912105.55047  19366028.926    19366034.098
       241.000         212.000
 02  5 25  6  6 29.9960000  0  9G20G 2G 3G27G22G 1G31G 8G13
  22589807.088    10152881.60749   7911065.30345  22589806.808    22589813.457
       211.000         143.000
  21296176.141     -739861.54549   -442826.35247  21296175.814    21296182.544
       237.000         197.000
  21961268.625   -14458752.09849 -10982569.15746  21961269.062    21961275.096
       224.000         174.000
  20779233.613   -17026680.59649 -13000718.80747  20779233.389    20779240.473
       235.000         198.000
  22333341.319     7759990.93149   6048637.65045  22333341.003    22333348.519
       218.000         162.000
  19540682.074    -8256969.43149  -6254779.51948  19540681.805    19540688.781
       244.000         217.000
  22196416.882    -9988870.27249  -7763187.87146  22196416.934    22196425.067
       219.000         164.000
  22621294.278   -11755238.77249  -9114747.01045  22621293.953    22621303.896
       208.000         155.000
  19356210.787   -16650766.19049 -12952308.09147  19356211.121    19356216.170
       241.000         212.000
 02  5 25  6  6 59.9960000  0  9G20G 2G 3G27G22G 1G31G 8G13
  22605769.960    10236771.07049   7976433.46545  22605767.730    22605777.847
       207.000         142.000
  21303758.586     -700015.85549   -411777.77047  21303757.990    21303765.017
       237.000         198.000
  21950825.022   -14513634.32549 -11025334.46546  21950824.664    21950832.018
       226.000         175.000
  20767006.010   -17090937.19949 -13050788.84347  20767005.632    20767013.122
       236.000         197.000
  22348860.114     7841542.59749   6112184.35345  22348859.666    22348866.648
       217.000         162.000
  19540239.979    -8259291.57249  -6256588.99048  19540239.747    19540247.028
       245.000         217.000
  22175027.491   -10101267.25749  -7850769.81646  22175027.214    22175035.987
       216.000         163.000
  22602328.410   -11854906.00849  -9192409.65445  22602327.365    22602338.341
       210.000         156.000
  19346474.975   -16701928.93349 -12992175.15148  19346475.334    19346480.039
       242.000         213.000
 02  5 25  6  7 29.9960000  0  9G20G 2G 3G27G22G 1G31G 8G13
  22621757.131    10320776.45749   8041892.01745  22621756.552    22621763.997
       206.000         143.000
  21311397.197     -659874.97449   -380499.17247  21311396.487    21311403.561
       236.000         198.000
  21940477.276   -14568009.82849 -11067704.93846  21940477.808    21940485.000
       224.000         176.000
  20754809.604   -17155029.54349 -13100730.89647  20754809.429    20754816.210
       236.000         198.000
  22364419.980     7923307.41649   6175897.14146  22364419.368    22364426.673
       218.000         163.000
  19539881.013    -8261179.22249  -6258059.89948  19539880.900    19539887.970
       245.000         218.000
  22153677.752   -10213463.15949  -7938195.08346  22153677.616    22153686.469
       218.000         165.000
  22583389.702   -11954428.61649  -9269959.60845  22583389.333    22583399.088
       210.000         157.000
  19336817.206   -16752680.80449 -13031722.04448  19336817.574    19336822.526
       242.000         214.000
 02  5 25  6  7 59.9960000  0  9G20G 2G 3G27G22G 1G31G 8G13
  22637760.999    10404885.72049   8107431.52045  22637760.243    22637770.078
       200.000         142.000
  21319089.772     -619449.65049   -348998.92647  21319089.556    21319096.618
       236.000         198.000
  21930225.038   -14621885.58849 -11109685.98346  21930225.690    21930232.792
       224.000         176.000
  20742642.814   -17218966.79349 -13150552.08347  20742642.386    20742649.675
       236.000         198.000
  22380016.532     8005273.58449   6239766.85145  22380016.048    22380024.141
       214.000         162.000
  19539602.832    -8262640.56549  -6259198.62348  19539602.580    19539609.716
       245.000         218.000
  22132365.305   -10325463.58049  -8025468.02446  22132364.758    22132373.861
       220.000         168.000
  22564477.197   -12053815.41049  -9347403.73445  22564476.768    22564487.399
       212.000         160.000
  19327236.349   -16803028.62149 -13070954.09148  19327236.582    19327241.476
       243.000         214.000
 02  5 25  6  8 29.9960000  0  9G20G 2G 3G27G22G 1G31G 8G13
  22653784.702    10489092.68349   8173047.20245  22653784.011    22653795.810
       198.000         141.000
  21326835.374     -578745.47849   -317281.39447  21326835.049    21326842.190
       235.000         198.000
  21920067.649   -14675263.28349 -11151278.93946  21920067.434    21920075.166
       224.000         177.000
  20730504.715   -17282752.82549 -13200255.44747  20730504.362    20730511.108
       236.000         198.000
  22395651.181     8087434.90549   6303788.63345  22395649.956    22395658.556
       212.000         160.000
  19539405.342    -8263678.72149  -6260007.59348  19539405.005    19539412.186
       246.000         219.000
  22111089.659   -10437268.75049  -8112588.82046  22111089.354    22111097.632
       222.000         169.000
  22545589.650   -12153070.12149  -9424744.95245  22545589.901    22545599.703
       214.000         160.000
  19317731.977   -16852974.38249 -13109872.84948  19317732.277    19317736.940
       242.000         214.000
 02  5 25  6  8 59.9960000  0  9G20G 2G 3G27G22G 1G31G 8G13
  22669833.096    10573421.54149   8238757.81945  22669832.552    22669842.973
       202.000         143.000
  21334639.098     -537737.26749   -285326.94747  21334638.785    21334646.055
       233.000         197.000
  21910010.123   -14728113.55449 -11192460.91846  21910010.624    21910018.165
       224.000         177.000
  20718400.508   -17346360.74549 -13249820.02647  20718400.324    20718407.048
       237.000         198.000
  22411326.780     8169815.91549   6367981.60145  22411326.723    22411335.982
       210.000         159.000
  19539293.619    -8264265.96149  -6260465.19848  19539293.360    19539300.496
       246.000         219.000
  22089856.959   -10548848.37549  -8199533.87846  22089856.947    22089864.810
       222.000         170.000
  22526732.299   -12252165.51049  -9501962.03145  22526731.821    22526741.565
       215.000         161.000
  19308309.704   -16902489.40549 -13148455.97048  19308309.975    19308314.826
       242.000         215.000
 02  5 25  6  9 29.9960000  0  9G20G 2G 3G27G22G 1G31G 8G13
  22685899.155    10657843.04849   8304540.58145  22685898.672    22685907.381
       210.000         148.000
  21342494.795     -496453.52149   -253157.78747  21342494.507    21342501.988
       233.000         196.000
  21900048.876   -14780461.30549 -11233251.31546  21900048.644    21900056.466
       223.000         177.000
  20706325.177   -17409817.36949 -13299266.70547  20706324.860    20706331.446
       237.000         199.000
  22427040.659     8252387.27749   6432322.88245  22427040.163    22427049.082
       212.000         160.000
  19539262.693    -8264428.12649  -6260591.57948  19539262.645    19539269.583
       246.000         219.000
  22068662.346   -10660225.58749  -8286321.21146  22068661.551    22068670.489
       221.000         171.000
  22507900.995   -12351128.16449  -9579075.67645  22507900.309    22507909.370
       217.000         161.000
  19298964.389   -16951598.55849 -13186722.83248  19298964.857    19298969.601
       242.000         215.000
 02  5 25  6  9 59.9960000  0  9G20G 2G 3G27G22G 1G31G 8G13
  22701982.731    10742362.25449   8370399.51745  22701982.161    22701991.226
       211.000         152.000
  21350404.543     -454888.10749   -220769.15047  21350404.043    21350411.612
       233.000         195.000
  21890185.239   -14832296.87849 -11273642.61646  21890184.877    21890192.969
       222.000         177.000
  20694279.731   -17473114.99049 -13348589.48847  20694279.527    20694286.394
       237.000         199.000
  22442791.147     8335154.11649   6496816.47845  22442790.497    22442798.246
       216.000         160.000
  19539314.537    -8264156.62649  -6260380.03948  19539314.223    19539321.162
       246.000         219.000
  22047508.889   -10771389.18449  -8372942.09246  22047508.315    22047516.147
       222.000         172.000
  22489095.306   -12449950.10449  -9656079.64045  22489094.765    22489102.903
       217.000         160.000
  19289698.562   -17000291.94249 -13224665.72348  19289698.953    19289703.985
       242.000         215.000
 02  5 25  6 10 29.9960000  0  9G20G 2G 3G27G22G 1G31G 8G13
  22718086.888    10826992.71949   8436345.11445  22718086.093    22718096.628
       211.000         152.000
  21358370.730     -413026.48849   -188149.70547  21358370.032    21358377.514
       233.000         195.000
  21880421.834   -14883601.92349 -11313620.52546  21880421.958    21880429.796
       224.000         177.000
  20682267.971   -17536237.31349 -13397775.68547  20682267.597    20682274.804
       237.000         200.000
  22458581.972     8418130.72649   6561473.53345  22458581.131    22458588.610
       214.000         160.000
  19539451.972    -8263434.19649  -6259817.12648  19539451.588    19539458.683
       247.000         219.000
  22026399.119   -10882319.21049  -8459380.96946  22026398.868    22026406.664
       220.000         171.000
  22470319.800   -12548614.70949  -9732961.01445  22470319.198    22470327.854
       218.000         161.000
  19280515.026   -17048551.28549 -13262270.40348  19280515.374    19280520.197
       241.000         215.000
 02  5 25  6 10 59.9960000  0  9G20G 2G 3G27G22G 1G31G 8G13
  22734213.467    10911738.08949   8502380.24945  22734212.861    22734222.365
       207.000         148.000
  21366394.148     -370864.24449   -155296.02047  21366393.204    21366401.037
       234.000         194.000
  21870761.640   -14934368.05949 -11353178.49646  21870761.371    21870769.582
       223.000         176.000
  20670290.807   -17599178.17349 -13446820.47447  20670290.373    20670297.716
       238.000         201.000
  22474411.484     8501320.65149   6626296.82845  22474410.219    22474418.447
       211.000         157.000
  19539676.597    -8262253.90449  -6258897.44448  19539676.346    19539683.336
       247.000         219.000
  22005335.415   -10993005.94949  -8545630.28846  22005335.041    22005345.075
       218.000         170.000
  22451575.388   -12647115.67049  -9809714.87645  22451575.003    22451583.638
       216.000         160.000
  19271415.493   -17096368.99649 -13299530.95348  19271415.985    19271420.823
       241.000         215.000
 02  5 25  6 11 29.9960000  0  9G20G 2G 3G27G22G 1G31G 8G13
  22750358.347    10996586.52349   8568495.68445  22750357.126    22750369.458
       198.000         141.000
  21374472.310     -328412.30649   -122216.59047  21374471.970    21374479.241
       233.000         195.000
  21861201.966   -14984602.53649 -11392322.19846  21861201.958    21861210.049
       222.000         174.000
  20658346.376   -17661946.57449 -13495730.88347  20658346.203    20658353.186
       238.000         201.000
  22490279.363     8584712.00649   6691277.06945  22490278.837    22490287.783
       208.000         156.000
  19539986.715    -8260624.12049  -6257627.50648  19539986.580    19539993.444
       247.000         219.000
  21984317.764   -11103455.03449  -8631694.44746  21984317.611    21984326.612
       214.000         167.000
  22432860.753   -12745461.96949  -9886348.22645  22432859.664    22432869.269
       216.000         161.000
  19262398.820   -17143752.37649 -13336453.06148  19262399.000    19262404.013
       242.000         215.000
 02  5 25  6 11 59.9960000  0  9G20G 2G 3G27G22G 1G31G 8G13
  22766521.504    11081526.63749   8634682.57545  22766521.214    22766531.157
       197.000         137.000
  21382603.628     -285681.21749    -88919.63947  21382603.172    21382610.902
       233.000         195.000
  21851742.256   -15034312.23149 -11431056.97246  21851742.457    21851750.632
       222.000         173.000
  20646433.218   -17724551.24849 -13544513.71747  20646432.883    20646439.713
       238.000         201.000
  22506184.386     8668293.90449   6756405.80845  22506183.111    22506193.084
       208.000         154.000
  19540381.158    -8258552.85249  -6256013.55348  19540380.744    19540387.650
       247.000         219.000
  21963342.863   -11213671.69649  -8717577.47846  21963342.002    21963352.258
       211.000         164.000
  22414173.384   -12843662.09149  -9962867.66845  22414173.346    22414181.213
       217.000         162.000
  19253463.619   -17190708.05149 -13373041.89348  19253463.850    19253468.441
       242.000         215.000
 02  5 25  6 12 29.9960000  0  9G20G 2G 3G27G22G 1G31G 8G13
  22782707.054    11166570.98149   8700950.71545  22782704.227    22782716.170
       201.000         137.000
  21390791.028     -242657.47849    -55394.64747  21390790.664    21390798.126
       234.000         194.000
  21842386.173   -15083479.98049 -11469369.45346  21842386.379    21842394.485
       223.000         174.000
  20634553.555   -17786977.13849 -13593157.23647  20634553.464    20634560.297
       237.000         202.000
  22522128.640     8752079.01849   6821692.88845  22522128.052    22522136.706
       207.000         155.000
  19540861.932    -8256024.16049  -6254043.16748  19540861.868    19540868.905
       247.000         219.000
  21942417.711   -11323637.28449  -8803264.87846  21942417.941    21942427.132
       212.000         165.000
  22395517.391   -12941700.72949 -10039261.30346  22395516.587    22395525.841
       217.000         163.000
  19244612.655   -17237219.15649 -13409284.30748  19244612.988    19244617.811
       242.000         215.000
 02  5 25  6 12 59.9960000  0  9G20G 2G 3G27G22G 1G31G 8G13
  22798902.273    11251677.27549   8767267.16345  22798902.856    22798914.255
       202.000         140.000
  21399025.788     -199382.56849    -21673.93147  21399024.992    21399032.652
       233.000         194.000
  21833125.549   -15132143.24549 -11507288.83346  21833125.222    21833133.301
       223.000         172.000
  20622700.713   -17849263.86549 -13641692.31247  20622700.882    20622707.779
       237.000         201.000
  22538104.125     8836024.98149   6887105.30645  22538103.729    22538111.731
       210.000         156.000
  19541422.869    -8253077.01249  -6251746.71148  19541422.649    19541429.809
       247.000         219.000
  21921533.191   -11433387.95349  -8888784.78946  21921532.487    21921541.761
       215.000         166.000
  22376884.299   -13039617.37149 -10115559.84846  22376884.216    22376892.672
       218.000         165.000
  19235839.331   -17283323.79049 -13445209.98648  19235839.549    19235844.560
       242.000         214.000
 02  5 25  6 13 29.9960000  0  9G20G 2G 3G27G22G 1G31G 8G13
  22815116.727    11336891.27149   8833667.42645  22815116.020    22815128.070
       204.000         141.000
  21407317.317     -155809.91149     12278.78647  21407316.707    21407323.910
       233.000         193.000
  21823971.004   -15180251.91849 -11544776.06446  21823971.157    21823978.929
       224.000         172.000
  20610883.699   -17911363.25749 -13690081.41047  20610883.308    20610890.684
       235.000         201.000
  22554118.057     8920177.90449   6952678.99145  22554117.388    22554124.957
       211.000         155.000
  19542072.689    -8249662.34149  -6249085.95348  19542072.468    19542079.474
       247.000         218.000
  21900699.448   -11542871.87549  -8974096.85746  21900698.956    21900707.286
       218.000         169.000
  22358284.569   -13137363.36849 -10191725.44146  22358284.202    22358292.897
       219.000         166.000
  19227152.785   -17328971.44349 -13480779.58148  19227153.152    19227157.945
       241.000         214.000
 02  5 25  6 13 59.9960000  0  9G20G 2G 3G27G22G 1G31G 8G13
  22831352.875    11422201.14149   8900142.42145  22831352.799    22831361.242
       212.000         145.000
  21415663.350     -111950.29649     46455.10347  21415663.139    21415669.910
       232.000         191.000
  21814920.360   -15227813.38549 -11581836.90746  21814920.563    21814927.878
       223.000         172.000
  20599100.469   -17973284.30549 -13738331.54547  20599100.352    20599107.338
       236.000         202.000
  22570168.827     9004526.07549   7018404.81845  22570168.242    22570174.536
       209.000         153.000
  19542810.038    -8245788.52649  -6246067.41848  19542809.796    19542816.713
       247.000         218.000
  21879915.086   -11652094.68549  -9059205.45546  21879914.242    21879922.990
       220.000         169.000
  22339714.558   -13234947.87849 -10267765.22746  22339714.665    22339723.391
       220.000         168.000
  19218551.860   -17374169.85449 -13515999.11848  19218552.075    19218556.891
       241.000         214.000
 02  5 25  6 14 29.9960000  0  9G20G 2G 3G27G22G 1G31G 8G13
  22847599.187    11507569.50749   8966663.00245  22847597.977    22847607.110
       213.000         147.000
  21424057.392      -67840.19849     80826.60247  21424056.784    21424063.783
       232.000         189.000
  21805967.925   -15274860.53649 -11618496.98846  21805967.105    21805975.234
       225.000         172.000
  20587344.626   -18035061.79449 -13786469.81847  20587344.344    20587351.352
       236.000         202.000
  22586248.381     9089032.50049   7084253.96045  22586247.750    22586256.080
       205.000         150.000
  19543628.115    -8241489.55349  -6242717.58948  19543627.856    19543634.804
       247.000         218.000
  21859173.922   -11761087.67549  -9144134.97846  21859173.502    21859181.928
       219.000         168.000
  22321169.093   -13332405.47749 -10343706.10346  22321168.822    22321177.493
       220.000         168.000
  19210030.229   -17418951.58149 -13550893.96648  19210030.552    19210035.276
       241.000         214.000
 02  5 25  6 14 59.9960000  0  9G20G 2G 3G27G22G 1G31G 8G13
  22863859.840    11593027.36249   9033253.33245  22863859.905    22863870.727
       209.000         143.000
  21432504.891      -23447.89049    115418.00246  21432504.782    21432510.657
       231.000         187.000
  21797119.752   -15321357.88049 -11654728.65046  21797119.496    21797126.511
       225.000         173.000
  20575622.309   -18096662.11149 -13834470.03447  20575622.261    20575629.361
       236.000         202.000
  22602365.028     9173728.29349   7150250.66745  22602364.043    22602373.488
       205.000         149.000
  19544533.557    -8236731.19149  -6239009.79748  19544533.412    19544540.313
       247.000         217.000
  21838483.989   -11869813.61649  -9228856.42346  21838483.990    21838491.709
       220.000         168.000
  22302654.158   -13429702.12249 -10419521.56846  22302653.795    22302662.017
       220.000         169.000
  19201594.464   -17463281.35649 -13585436.64248  19201594.697    19201599.543
       241.000         214.000
 02  5 25  6 15 29.9960000  0  9G20G 2G 3G27G22G 1G31G 8G13
  22880136.244    11678566.13249   9099906.62445  22880136.935    22880146.378
       204.000         136.000
  21441004.942       21218.77849    150223.18246  21441004.168    21441011.052
       231.000         187.000
  21788375.614   -15367309.46049 -11690535.05646  21788375.393    21788382.371
       227.000         172.000
  20563932.898   -18158091.37749 -13882336.97547  20563932.969    20563939.817
       237.000         202.000
  22618517.069     9258604.98849   7216388.36645  22618516.070    22618523.881
       206.000         148.000
  19545525.459    -8231518.81649  -6234948.22748  19545525.253    19545532.257
       247.000         217.000
  21817844.277   -11978274.93549  -9313371.68046  21817843.915    21817852.617
       223.000         171.000
  22284168.562   -13526843.90049 -10495216.36246  22284168.435    22284176.361
       219.000         168.000
  19193243.994   -17507163.68649 -13619630.66748  19193244.325    19193249.139
       243.000         215.000
 02  5 25  6 15 59.9960000  0  9G20G 2G 3G27G22G 1G31G 8G13
  22896431.931    11764193.23549   9166628.75644  22896430.392    22896438.728
       199.000         131.000
  21449558.274       66168.10149    185248.62146  21449557.697    21449564.687
       230.000         187.000
  21779737.098   -15412703.52849 -11725907.02346  21779737.156    21779744.155
       226.000         172.000
  20552277.835   -18219339.22449 -13930062.54447  20552277.654    20552284.276
       237.000         202.000
  22634705.317     9343670.53549   7282673.19445  22634704.606    22634713.182
       208.000         151.000
  19546605.730    -8225841.68749  -6230524.51348  19546605.475    19546612.504
       246.000         215.000
  21797258.350   -12086458.13849  -9397670.21746  21797258.212    21797266.592
       224.000         173.000
  22265714.489   -13623820.17249 -10570782.17746  22265714.568    22265723.665
       218.000         167.000
  19184980.694   -17550586.66949 -13653466.75548  19184981.168    19184985.886
       242.000         216.000
 02  5 25  6 16 29.9960000  0  9G20G 2G 3G27G22G 1G31G 8G13
  22912739.463    11849895.03049   9233409.12945  22912738.842    22912749.542
       198.000         133.000
  21458163.188      111387.40249    220484.43846  21458162.471    21458170.003
       230.000         187.000
  21771203.092   -15457549.25549 -11760851.71146  21771203.536    21771210.587
       226.000         171.000
  20540655.128   -18280416.83149 -13977655.46647  20540655.047    20540661.734
       237.000         202.000
  22650926.782     9428911.05149   7349094.36745  22650925.399    22650933.894
       210.000         153.000
  19547772.613    -8219710.33749  -6225746.86148  19547772.506    19547779.274
       246.000         215.000
  21776722.975   -12194370.76649  -9481757.92546  21776722.838    21776731.479
       222.000         174.000
  22247289.041   -13720642.42749 -10646227.97146  22247288.828    22247297.995
       218.000         166.000
  19176803.345   -17593559.47549 -13686952.05448  19176803.643    19176808.553
       243.000         216.000
 02  5 25  6 16 59.9960000  0  9G20G 2G 3G27G22G 1G31G 8G13
  22929062.122    11935664.49949   9300242.23145  22929062.058    22929072.841
       205.000         139.000
  21466818.224      156870.77149    255926.02347  21466817.985    21466825.321
       230.000         189.000
  21762773.040   -15501849.42949 -11795371.28846  21762772.796    21762779.112
       226.000         172.000
  20529063.821   -18341328.49149 -14025119.07847  20529063.559    20529070.377
       237.000         201.000
  22667179.924     9514320.11449   7415646.88745  22667178.952    22667186.412
       213.000         153.000
  19549025.025    -8213128.35449  -6220618.06448  19549024.777    19549031.765
       245.000         214.000
  21756239.338   -12302013.61949  -9565635.41146  21756239.097    21756248.051
       222.000         172.000
  22228893.005   -13817314.27349 -10721556.58246  22228892.111    22228901.416
       216.000         164.000
  19168710.997   -17636084.63649 -13720088.54348  19168711.300    19168716.339
       242.000         216.000
 02  5 25  6 17 29.9960000  0  9G20G 2G 3G27G22G 1G31G 8G13
  22945396.900    12021503.16849   9367129.25245  22945395.666    22945407.812
       210.000         144.000
  21475524.136      202620.31949    291575.02547  21475523.568    21475531.702
       230.000         190.000
  21754447.756   -15545597.97249 -11829461.01746  21754447.956    21754455.337
       226.000         173.000
  20517505.134   -18402070.19649 -14072450.25247  20517505.035    20517511.973
       236.000         201.000
  22683463.845     9599899.27049   7482331.94245  22683462.536    22683471.408
       209.000         150.000
  19550364.385    -8206091.27049  -6215134.64848  19550364.091    19550370.979
       245.000         214.000
  21735808.235   -12409379.18149  -9649296.83246  21735807.666    21735816.759
       222.000         172.000
  22210526.164   -13913831.82849 -10796764.95845  22210525.818    22210535.147
       217.000         162.000
  19160705.066   -17678156.41049 -13752871.74048  19160705.377    19160710.240
       242.000         216.000
 02  5 25  6 17 59.9960000  0  9G20G 2G 3G27G22G 1G31G 8G13
  22961739.562    12107385.23549   9434050.06045  22961738.729    22961749.402
       210.000         146.000
  21484275.970      248611.10349    327412.00347  21484275.788    21484283.278
       232.000         191.000
  21746223.615   -15588816.65249 -11863137.86946  21746223.435    21746230.467
       225.000         174.000
  20505974.358   -18462665.16849 -14119667.08647  20505973.800    20505980.753
       237.000         202.000
  22699775.477     9685622.95449   7549129.63445  22699775.871    22699783.609
       209.000         149.000
  19551785.606    -8198621.58749  -6209314.13448  19551785.506    19551792.556
       244.000         213.000
  21715425.456   -12516487.13949  -9732757.52646  21715425.041    21715433.161
       221.000         169.000
  22192183.838   -14010218.01849 -10871870.97545  22192183.918    22192192.923
       213.000         161.000
  19152781.319   -17719796.20649 -13785318.33248  19152781.540    19152786.552
       241.000         216.000
 02  5 25  6 18 29.9960000  0  9G20G 2G 3G27G22G 1G31G 8G13
  22978096.204    12193331.84749   9501021.16145  22978096.222    22978106.444
       210.000         149.000
  21493078.386      294865.08049    363454.06747  21493077.711    21493084.975
       232.000         192.000
  21738104.894   -15631480.12249 -11896382.08446  21738104.338    21738113.358
       226.000         175.000
  20494475.919   -18523089.69749 -14166751.11347  20494475.755    20494482.587
       237.000         202.000
  22716120.087     9771512.52949   7616056.59245  22716120.234    22716128.048
       208.000         148.000
  19553294.108    -8190694.85449  -6203137.48347  19553293.961    19553301.112
       244.000         212.000
  21695098.522   -12623310.24949  -9815996.27446  21695097.810    21695106.383
       221.000         169.000
  22173871.151   -14106448.87449 -10946855.96145  22173870.747    22173879.842
       213.000         159.000
  19144944.349   -17760978.89149 -13817408.73948  19144944.670    19144949.814
       240.000         215.000
 02  5 25  6 18 59.9960000  0  9G20G 2G 3G27G22G 1G31G 8G13
  22994462.001    12279333.48549   9568035.14245  22994460.880    22994472.557
       206.000         147.000
  21501928.486      341373.67549    399694.52947  21501927.900    21501935.337
       232.000         191.000
  21730091.164   -15673593.32049 -11929197.52346  21730091.607    21730098.740
       225.000         175.000
  20483008.801   -18583350.29249 -14213707.39147  20483008.701    20483015.269
       237.000         202.000
  22732495.448     9857558.97349   7683105.79145  22732495.839    22732502.152
       213.000         150.000
  19554888.335    -8182317.33749  -6196609.56947  19554888.116    19554895.099
       243.000         211.000
  21674823.743   -12729851.67649  -9899015.52046  21674823.293    21674831.948
       219.000         168.000
  22155586.929   -14202530.98349 -11021725.03845  22155586.194    22155596.365
       212.000         158.000
  19137193.479   -17801709.39149 -13849146.79548  19137193.764    19137198.886
       240.000         215.000
 02  5 25  6 19 29.9960000  0  9G20G 2G 3G27G22G 1G31G 8G13
  23010838.154    12365405.93048   9635104.31845  23010837.257    23010851.099
       193.000         140.000
  21510830.258      388153.40749    436146.26447  21510829.926    21510836.988
       231.000         189.000
  21722185.675   -15715136.44049 -11961568.74546  21722184.933    21722193.224
       225.000         174.000
  20471576.152   -18643428.94649 -14260521.90547  20471576.179    20471582.818
       237.000         202.000
  22748902.702     9943778.02549   7750289.49945  22748902.696    22748909.089
       213.000         152.000
  19556571.780    -8173470.31849  -6189715.81047  19556571.676    19556578.578
       242.000         210.000
  21654607.819   -12836089.91949  -9981798.50746  21654607.988    21654616.243
       221.000         169.000
  22137334.976   -14298446.13249 -11096464.00545  22137334.574    22137344.854
       213.000         158.000
  19129532.745   -17841967.86649 -13880517.03948  19129532.830    19129538.112
       241.000         215.000
 02  5 25  6 19 59.9960000  0  9G20G 2G 3G27G22G 1G31G 8G13
  23027223.390    12451513.88048   9702201.17845  23027223.604    23027236.674
       190.000         134.000
  21519777.122      435170.03049    472782.59047  21519776.613    21519784.010
       231.000         189.000
  21714382.774   -15756140.54049 -11993519.96046  21714382.844    21714390.022
       224.000         174.000
  20460172.049   -18703357.90649 -14307219.76947  20460171.692    20460178.661
       237.000         202.000
  22765335.813    10030134.83449   7817580.54245  22765334.875    22765343.470
       216.000         151.000
  19558338.756    -8164185.71549  -6182481.07147  19558338.435    19558345.399
       242.000         209.000
  21634443.822   -12942053.83249 -10064367.74046  21634443.395    21634451.345
       220.000         168.000
  22119110.211   -14394226.60949 -11171098.08045  22119109.946    22119117.664
       216.000         160.000
  19121955.839   -17881784.96449 -13911543.35148  19121956.078    19121961.041
       241.000         216.000
 02  5 25  6 20 29.9960000  0  9G20G 2G 3G27G22G 1G31G 8G13
  23043613.820    12537635.15149   9769308.31745  23043613.786    23043626.533
       199.000         138.000
  21528764.731      482401.75349    509586.52047  21528764.115    21528772.113
       231.000         189.000
  21706678.748   -15796623.77549 -12025065.30246  21706678.748    21706685.939
       223.000         174.000
  20448792.389   -18763157.29549 -14353816.65847  20448791.758    20448799.211
       237.000         202.000
  22781790.676    10116607.19949   7884961.62145  22781789.914    22781797.589
       214.000         150.000
  19560185.176    -8154482.99549  -6174920.52847  19560184.794    19560191.661
       241.000         208.000
  21614327.695   -13047759.96849 -10146736.10846  21614327.813    21614336.016
       218.000         166.000
  22100905.485   -14489892.10549 -11245642.51845  22100904.543    22100912.434
       217.000         161.000
  19114459.395   -17921179.02549 -13942240.02548  19114459.832    19114464.612
       242.000         217.000
 02  5 25  6 20 59.9960000  0  9G20G 2G 3G27G22G 1G31G 8G13
  23060012.356    12623797.69149   9836447.58045  23060011.469    23060022.442
       211.000         144.000
  21537799.117      529877.37249    546580.49047  21537798.694    21537806.477
       232.000         190.000
  21699080.337   -15836554.12149 -12056179.82446  21699079.615    21699088.102
       224.000         173.000
  20437443.340   -18822796.40749 -14400288.65747  20437443.106    20437450.243
       236.000         202.000
  22798273.232    10203223.26449   7952454.66445  22798272.970    22798279.552
       214.000         150.000
  19562116.898    -8144331.16149  -6167010.02647  19562116.763    19562123.870
       240.000         207.000
  21594267.819   -13153174.29449 -10228877.10245  21594267.821    21594276.251
       217.000         162.000
  22082728.462   -14585412.00749 -11320073.50945  22082728.440    22082736.450
       218.000         162.000
  19107049.527   -17960118.04049 -13972582.11148  19107049.903    19107054.808
       243.000         217.000
 02  5 25  6 21 29.9960000  0  9G20G 2G 3G27G22G 1G31G 8G13
  23076416.465    12710001.04249   9903618.66145  23076415.016    23076422.926
       212.000         143.000
  21546880.520      577597.58349    583765.06047  21546880.366    21546887.228
       233.000         191.000
  21691587.546   -15875927.54749 -12086860.37546  21691587.210    21691595.414
       223.000         173.000
  20426125.404   -18882272.77649 -14446633.84847  20426125.127    20426131.912
       236.000         203.000
  22814783.246    10289983.14549   8020059.76445  22814781.515    22814789.476
       214.000         148.000
  19564134.681    -8133727.18949  -6158747.20647  19564134.447    19564141.653
       240.000         207.000
  21574264.859   -13258290.80849 -10310786.03445  21574264.363    21574272.195
       216.000         161.000
  22064579.282   -14680783.70049 -11394389.00546  22064578.978    22064587.886
       219.000         164.000
  19099727.178   -17998597.97849 -14002566.47348  19099727.637    19099732.111
       244.000         218.000
 02  5 25  6 21 59.9950000  0  9G20G 2G 3G27G22G 1G31G 8G13
  23092824.882    12796229.11949   9970809.00045  23092824.748    23092833.616
       212.000         144.000
  21556005.465      625548.10449    621129.09347  21556005.112    21556011.888
       232.000         190.000
  21684199.157   -15914752.16949 -12117113.28846  21684199.379    21684207.320
       223.000         173.000
  20414836.713   -18941595.14749 -14492859.03447  20414836.440    20414843.440
       237.000         203.000
  22831316.994    10376870.84749   8087764.47845  22831316.908    22831324.296
       213.000         150.000
  19566236.520    -8122682.03449  -6150140.61047  19566236.226    19566243.192
       240.000         206.000
  21554317.685   -13363113.62649 -10392466.11945  21554317.249    21554324.403
       216.000         161.000
  22046457.983   -14776014.78749 -11468594.95646  22046457.970    22046465.050
       220.000         165.000
  19092490.700   -18036626.36749 -14032198.97148  19092490.880    19092495.686
       244.000         218.000
 02  5 25  6 22 29.9950000  0  9G20G 2G 3G27G22G 1G31G 8G13
  23109242.328    12882500.95149  10038033.42145  23109241.747    23109251.811
       211.000         146.000
  21565177.477      673746.11449    658685.97547  21565176.628    21565184.001
       231.000         189.000
  21676918.609   -15953013.29049 -12146927.10846  21676918.448    21676926.352
       224.000         173.000
  20403579.595   -19000751.71249 -14538955.02647  20403579.608    20403586.541
       238.000         204.000
  22847879.363    10463905.29549   8155583.51645  22847879.268    22847885.578
       214.000         150.000
  19568425.385    -8111178.63249  -6141176.93547  19568425.303    19568432.154
       239.000         205.000
  21534428.712   -13467630.30149 -10473907.62845  21534428.901    21534436.150
       217.000         162.000
  22028364.261   -14871095.66449 -11542683.84446  22028364.101    22028372.276
       219.000         165.000
  19085342.821   -18074188.78249 -14061468.37948  19085343.202    19085347.769
       243.000         217.000
 02  5 25  6 22 59.9950000  0  9G20G 2G 3G27G22G 1G31G 8G13
  23125664.707    12968796.38349  10105276.26145  23125663.833    23125674.457
       204.000         145.000
  21574392.058      722173.99449    696421.98146  21574392.053    21574399.257
       229.000         186.000
  21669743.030   -15990722.54649 -12176310.91346  21669743.472    21669750.665
       225.000         175.000
  20392351.757   -19059755.00949 -14584931.58547  20392351.420    20392358.508
       238.000         205.000
  22864465.614    10551067.29949   8223501.96345  22864465.060    22864473.997
       213.000         152.000
  19570699.112    -8099231.24049  -6131867.30247  19570698.963    19570705.749
       240.000         205.000
  21514596.996   -13571848.38249 -10555116.46346  21514596.041    21514604.724
       219.000         163.000
  22010297.774   -14966037.46649 -11616664.38846  22010297.202    22010305.418
       219.000         166.000
  19078281.216   -18111296.73849 -14090383.66148  19078281.479    19078286.444
       242.000         216.000
 02  5 25  6 23 29.9950000  0  9G20G 2G 3G27G22G 1G31G 8G13
  23142088.891    13055117.70048  10172539.33645  23142088.898    23142101.101
       187.000         137.000
  21583651.805      770834.56349    734339.30146  21583651.180    21583658.775
       227.000         183.000
  21662673.246   -16027873.87949 -12205259.97446  21662674.153    21662680.141
       225.000         175.000
  20381153.853   -19118600.21149 -14630784.95447  20381153.599    20381160.570
       240.000         205.000
  22881077.430    10638359.11649   8291521.55245  22881077.997    22881085.526
       213.000         151.000
  19573058.131    -8086834.75449  -6122207.72247  19573057.911    19573064.765
       240.000         205.000
  21494823.161   -13675759.62149 -10636086.21046  21494823.003    21494830.514
       221.000         165.000
  21992258.437   -15060835.47049 -11690532.88146  21992257.515    21992266.177
       220.000         167.000
  19071307.323   -18147943.61549 -14118939.66248  19071307.681    19071312.830
       241.000         215.000
 02  5 25  6 23 59.9950000  0  9G20G 2G 3G27G22G 1G31G 8G13
  23158506.291    13141426.00758  10239792.23554  23158505.900    23158526.410
       174.000         127.000
  21592947.937      819689.92849    772408.40446  21592947.108    21592956.039
       227.000         182.000
  21655703.533   -16064502.12949 -12233801.44546  21655703.057    21655710.480
       226.000         175.000
  20369979.315   -19177323.57549 -14676543.38647  20369979.185    20369985.902
       240.000         205.000
  22897705.367    10725742.06749   8359612.17345  22897704.634    22897712.287
       212.000         149.000
  19575495.420    -8074025.07949  -6112226.18147  19575495.565    19575502.491
       240.000         204.000
  21475101.920   -13779396.90149 -10716842.47846  21475100.912    21475109.127
       222.000         168.000
  21974239.618   -15155525.69249 -11764317.38846  21974239.047    21974247.702
       219.000         166.000
  19064414.774   -18184164.41649 -14147163.66148  19064415.118    19064420.188
       240.000         214.000
 02  5 25  6 24 29.9950000  0  9G20G 2G 3G27G22G 1G31G 8G13
  23174940.275    13227757.88658  10307063.52554  23174937.843    23174953.836
       188.000         125.000
  21602289.251      868777.27649    810658.27246  21602288.790    21602296.810
       229.000         184.000
  21648840.694   -16100566.66749 -12261903.66246  21648840.597    21648847.865
       225.000         173.000
  20358835.278   -19235885.92349 -14722176.35047  20358834.815    20358841.842
       240.000         205.000
  22914357.566    10813253.15549   8427802.62645  22914355.799    22914366.489
       210.000         147.000
  19578019.618    -8060762.73149  -6101891.90647  19578019.337    19578026.314
       241.000         205.000
  21455440.545   -13882717.61749 -10797352.06246  21455440.354    21455449.257
       225.000         172.000
  21956248.207   -15250068.79849 -11837987.25346  21956248.030    21956255.864
       218.000         165.000
  19057610.846   -18219918.61249 -14175024.07748  19057611.135    19057616.316
       239.000         213.000
 02  5 25  6 24 59.9950000  0  9G20G 2G 3G27G22G 1G31G 8G13
  23191380.213    13314130.30349  10374366.41945  23191378.905    23191389.560
       199.000         136.000
  21611678.459      918114.72249    849103.00946  21611678.180    21611685.001
       230.000         185.000
  21642088.869   -16136046.49049 -12289550.24546  21642088.935    21642095.532
       224.000         172.000
  20347725.598   -19294267.52749 -14767668.47747  20347725.275    20347731.977
       240.000         205.000
  22931037.426    10900909.58749   8496106.31245  22931037.110    22931043.970
       208.000         146.000
  19580633.307    -8047027.60449  -6091189.23247  19580632.963    19580639.991
       241.000         205.000
  21435844.196   -13985698.68349 -10877596.99046  21435843.766    21435852.653
       227.000         177.000
  21938287.656   -15344445.14749 -11911527.18146  21938287.991    21938296.958
       215.000         163.000
  19050899.913   -18255184.69349 -14202504.14548  19050900.262    19050905.422
       239.000         213.000
 02  5 25  6 25 29.9950000  0  9G20G 2G 3G27G22G 1G31G 8G13
  23207816.932    13400512.46549  10441676.91045  23207816.851    23207830.460
       205.000         139.000
  21621109.008      967671.70949    887718.83246  21621108.652    21621115.462
       231.000         186.000
  21635443.668   -16170969.01749 -12316762.59246  21635443.064    21635450.133
       226.000         172.000
  20336644.544   -19352497.08149 -14813042.12347  20336644.363    20336651.310
       240.000         205.000
  22947740.617    10988680.55149   8564499.26245  22947738.615    22947747.750
       210.000         146.000
  19583331.689    -8032848.10849  -6080140.30147  19583331.362    19583338.171
       241.000         205.000
  21416307.556   -14088365.36349 -10957596.93646  21416306.843    21416315.522
       229.000         180.000
  21920354.494   -15438683.13349 -11984959.29545  21920354.390    21920363.707
       213.000         162.000
  19044276.780   -18289989.76249 -14229624.98048  19044277.086    19044282.222
       240.000         214.000
 02  5 25  6 25 59.9950000  0  9G20G 2G 3G27G22G 1G31G 8G13
  23224256.723    13486900.93849  10508992.24045  23224256.802    23224267.882
       207.000         138.000
  21630580.835     1017445.90549    926503.89946  21630580.482    21630587.178
       230.000         185.000
  21628904.007   -16205333.45649 -12343540.05946  21628903.161    21628911.361
       223.000         169.000
  20325592.789   -19410574.99249 -14858297.60047  20325592.634    20325599.521
       240.000         205.000
  22964463.811    11076563.16949   8632979.20345  22964463.603    22964470.611
       208.000         145.000
  19586114.393    -8018224.39749  -6068745.22647  19586114.236    19586121.194
       241.000         205.000
  21396830.831   -14190714.65149 -11037349.56946  21396830.601    21396839.425
       228.000         180.000
  21902448.659   -15532783.32949 -12058284.05945  21902448.592    21902457.779
       214.000         162.000
  19037741.479   -18324333.07949 -14256386.00848  19037741.781    19037746.952
       241.000         216.000
 02  5 25  6 26 29.9950000  0  9G20G 2G 3G27G22G 1G31G 8G13
  23240696.768    13573286.87249  10576305.67445  23240696.077    23240707.704
       210.000         143.000
  21640092.081     1067429.16449    965451.87546  21640091.558    21640098.604
       229.000         184.000
  21622470.075   -16239144.85049 -12369886.58446  21622469.533    21622476.877
       223.000         171.000
  20314568.498   -19468507.47849 -14903439.75647  20314568.335    20314574.815
       240.000         205.000
  22981207.413    11164548.81549   8701539.44645  22981206.209    22981215.477
       208.000         146.000
  19588980.671    -8003162.47749  -6057008.68747  19588980.326    19588987.092
       242.000         205.000
  21377414.149   -14292749.65349 -11116857.30946  21377414.132    21377421.786
       229.000         180.000
  21884566.802   -15626751.64149 -12131506.02846  21884566.923    21884576.014
       214.000         163.000
  19031293.141   -18358219.41949 -14282790.95148  19031293.707    19031298.570
       242.000         217.000
 02  5 25  6 26 59.9950000  0  9G20G 2G 3G27G22G 1G31G 8G13
  23257137.502    13659695.96249  10643637.13345  23257138.605    23257150.664
       203.000         137.000
  21649648.167     1117647.93249   1004583.37846  21649647.879    21649655.524
       229.000         185.000
  21616147.071   -16272373.84549 -12395779.28846  21616146.248    21616152.767
       223.000         170.000
  20303577.234   -19526266.45249 -14948446.71447  20303576.804    20303583.899
       240.000         205.000
  22997974.188    11252663.51649   8770200.23545  22997975.013    22997982.779
       207.000         144.000
  19591935.641    -7987633.88849  -6044908.51247  19591935.268    19591942.291
       242.000         205.000
  21358063.436   -14394438.74549 -11196095.50946  21358063.580    21358070.996
       229.000         180.000
  21866715.886   -15720560.29949 -12204603.60146  21866715.487    21866723.868
       216.000         164.000
  19024937.639   -18391619.08549 -14308816.66348  19024937.892    19024942.811
       243.000         218.000
 02  5 25  6 27 29.9950000  0  9G20G 2G 3G27G22G 1G31G 8G13
  23273582.475    13746110.76249  10710973.06045  23273583.222    23273594.946
       200.000         135.000
  21659246.650     1168085.54649   1043885.39846  21659246.284    21659253.361
       229.000         185.000
  21609931.839   -16305033.95349 -12421228.70946  21609931.856    21609937.795
       223.000         171.000
  20292616.197   -19583866.71449 -14993330.00147  20292615.880    20292623.040
       240.000         205.000
  23014762.300    11340889.98349   8838948.11245  23014762.654    23014770.487
       205.000         144.000
  19594976.825    -7971653.23949  -6032456.08247  19594976.459    19594983.402
       243.000         206.000
  21338776.487   -14495793.37249 -11275073.08146  21338776.578    21338783.953
       227.000         179.000
  21848892.322   -15814223.61449 -12277587.91746  21848892.066    21848900.727
       218.000         165.000
  19018672.045   -18424545.43149 -14334473.55348  19018672.178    19018677.073
       243.000         219.000
 02  5 25  6 27 59.9950000  0  9G20G 2G 3G27G22G 1G31G 8G13
  23290027.136    13832518.32149  10778303.39945  23290026.896    23290037.238
       207.000         137.000
  21668884.198     1218730.00949   1083348.60746  21668883.747    21668891.257
       231.000         186.000
  21603823.362   -16337134.18749 -12446241.87246  21603824.502    21603830.113
       224.000         171.000
  20281683.566   -19641318.40349 -15038097.51747  20281683.383    20281690.306
       240.000         206.000
  23031571.239    11429215.78949   8907773.39645  23031571.030    23031578.834
       205.000         144.000
  19598101.945    -7955230.58749  -6019659.23547  19598101.668    19598108.673
       243.000         206.000
  21319551.388   -14596820.33149 -11353795.32146  21319550.268    21319558.114
       226.000         178.000
  21831094.328   -15907751.99049 -12350467.08946  21831093.860    21831102.672
       218.000         166.000
  19012494.651   -18457007.24349 -14359768.47048  19012495.015    19012499.843
       243.000         219.000
 02  5 25  6 28 29.9950000  0  9G20G 2G 3G27G22G 1G31G 8G13
  23306470.346    13918933.53549  10845639.75245  23306468.800    23306482.507
       202.000         136.000
  21678564.352     1269596.82449   1122985.06047  21678563.858    21678570.713
       232.000         188.000
  21597824.775   -16368656.43649 -12470804.64746  21597824.572    21597831.436
       223.000         171.000
  20270782.601   -19698604.25849 -15082735.81247  20270782.352    20270789.168
       241.000         205.000
  23048401.526    11517655.91349   8976687.71945  23048401.699    23048409.090
       200.000         146.000
  19601314.475    -7938348.42749  -6006504.32847  19601314.132    19601321.202
       243.000         206.000
  21300392.824   -14697499.07749 -11432246.24746  21300391.870    21300400.420
       224.000         175.000
  21813325.248   -16001127.95149 -12423227.50246  21813325.343    21813333.690
       219.000         168.000
  19006409.204   -18488985.98849 -14384686.97148  19006409.577    19006414.646
       242.000         218.000
 02  5 25  6 28 59.9950000  0  9G20G 2G 3G27G22G 1G31G 8G13
  23322910.956    14005326.48449  10912958.64445  23322910.371    23322923.613
       204.000         139.000
  21688280.435     1320656.78949   1162772.02746  21688279.864    21688286.596
       232.000         186.000
  21591931.119   -16399626.55249 -12494937.19046  21591930.774    21591937.080
       221.000         170.000
  20259907.837   -19755751.50449 -15127266.10347  20259907.688    20259914.150
       240.000         206.000
  23065247.217    11606180.97749   9045668.27045  23065246.917    23065252.880
       201.000         144.000
  19604609.380    -7921033.82349  -5993012.46047  19604609.055    19604616.210
       244.000         207.000
  21281295.396   -14797853.45549 -11510444.40346  21281294.686    21281303.473
       221.000         172.000
  21795580.269   -16094378.65549 -12495890.29246  21795580.093    21795589.169
       220.000         169.000
  19000410.985   -18520507.40349 -14409249.11348  19000411.195    19000416.327
       241.000         218.000
 02  5 25  6 29 29.9950000  0  9G20G 2G 3G27G22G 1G31G 8G13
  23339353.749    14091725.71549  10980282.44345  23339353.693    23339364.360
       207.000         141.000
  21698038.982     1371939.25849   1202732.35846  21698038.564    21698045.456
       232.000         185.000
  21586148.407   -16430012.59849 -12518614.60546  21586148.327    21586155.741
       220.000         171.000
  20249065.406   -19812729.13749 -15171664.23447  20249065.049    20249071.605
       240.000         206.000
  23082113.764    11694819.59649   9114737.33645  23082111.837    23082121.677
       198.000         142.000
  19607992.263    -7903255.65949  -5979159.38047  19607992.245    19607999.460
       244.000         208.000
  21262266.199   -14897849.18849 -11588363.11346  21262266.452    21262274.434
       220.000         171.000
  21777865.715   -16187473.23249 -12568431.43746  21777864.959    21777873.487
       222.000         171.000
  18994505.892   -18551539.18949 -14433429.73448  18994506.119    18994511.072
       240.000         216.000
 02  5 25  6 29 59.9950000  0  9G20G 2G 3G27G22G 1G31G 8G13
  23355788.758    14178095.97849  11047583.75045  23355788.670    23355799.647
       203.000         138.000
  21707833.120     1423409.78149   1242839.24446  21707832.754    21707839.781
       230.000         184.000
  21580471.590   -16459846.15949 -12541861.50846  21580471.338    21580479.170
       221.000         170.000
  20238248.671   -19869569.69749 -15215955.55347  20238248.575    20238255.265
       241.000         206.000
  23098995.689    11783536.92849   9183867.69645  23098992.685    23099003.734
       196.000         139.000
  19611457.485    -7885046.27349  -5964970.27747  19611457.370    19611464.707
       244.000         208.000
  21243300.766   -14997515.55549 -11666025.16146  21243300.133    21243308.906
       219.000         172.000
  21760173.480   -16280443.96249 -12640876.07746  21760173.275    21760182.061
       223.000         171.000
  18988687.791   -18582112.43249 -14457253.04748  18988688.230    18988693.005
       239.000         215.000
 02  5 25  6 30 29.9950000  0  9G20G 2G 3G27G22G 1G31G 8G13
  23372223.726    14264469.49449  11114887.54945  23372223.128    23372237.011
       201.000         134.000
  21717669.611     1475101.33449   1283118.35546  21717669.365    21717676.032
       229.000         183.000
  21574906.335   -16489091.36849 -12564649.96446  21574906.052    21574913.908
       222.000         170.000
  20227465.121   -19926238.38049 -15260112.94547  20227464.795    20227471.655
       241.000         206.000
  23115900.122    11872365.53948   9253084.75345  23115898.500    23115907.642
       194.000         140.000
  19615011.455    -7866370.68649  -5950417.89747  19615011.291    19615018.419
       244.000         208.000
  21224404.993   -15096814.34049 -11743400.76846  21224404.532    21224413.192
       221.000         174.000
  21742511.296   -16373256.19849 -12713197.21846  21742510.877    21742519.450
       221.000         171.000
  18982964.276   -18612190.96949 -14480690.87848  18982964.580    18982969.220
       239.000         215.000
 02  5 25  6 30 59.9950000  0  9G20G 2G 3G27G22G 1G31G 8G13
  23388655.222    14350819.58348  11182173.13644  23388655.887    23388667.566
       192.000         129.000
  21727543.327     1526988.14249   1323549.61746  21727543.069    21727550.153
       228.000         183.000
  21569448.591   -16517771.09049 -12586997.77846  21569448.459    21569455.852
       221.000         171.000
  20216709.693   -19982759.13049 -15304155.06247  20216709.484    20216716.177
       241.000         206.000
  23132821.907    11961279.16949   9322368.04345  23132820.843    23132827.515
       199.000         143.000
  19618649.426    -7847252.93449  -5935520.97547  19618649.294    19618656.184
       245.000         209.000
  21205575.297   -15195766.34949 -11820506.18546  21205574.665    21205582.438
       222.000         175.000
  21724874.890   -16465933.67849 -12785413.36046  21724874.443    21724884.019
       219.000         168.000
  18977330.355   -18641797.61249 -14503760.99948  18977330.720    18977335.419
       240.000         214.000
 02  5 25  6 31 29.9950000  0  9G20G 2G 3G27G28G 1G31G 8G13
  23405087.308    14437187.65148  11249472.72544  23405087.193    23405103.296
       180.000         122.000
  21737462.111     1579112.08449   1364165.65846  21737461.322    21737469.466
       227.000         183.000
  21564107.623   -16545840.86049 -12608870.29546  21564107.621    21564113.766
       221.000         171.000
  20205990.409   -20039088.18749 -15348047.81447  20205990.295    20205997.148
       240.000         205.000
  23507082.420    -5089778.20059  -3947347.53254  23507082.350    23507094.711
       195.000         131.000
  19622379.945    -7827649.03249  -5920245.23247  19622379.606    19622386.707
       245.000         209.000
  21186819.792   -15294324.53049 -11897304.72046  21186819.395    21186827.807
       221.000         176.000
  21707272.760   -16558432.69249 -12857490.40946  21707272.439    21707281.633
       217.000         167.000
  18971794.657   -18670887.47649 -14526428.43348  18971794.942    18971799.741
       239.000         214.000
 02  5 25  6 31 59.9950000  0  9G20G 2G 3G27G28G 1G31G 8G13
  23421519.286    14523541.12358  11316761.07154                  23421524.070
       179.000         121.000
  21747420.450     1631441.86649   1404942.10146  21747419.592    21747427.217
       229.000         183.000
  21558876.450   -16573329.05349 -12630289.63646  21558876.627    21558884.206
       222.000         173.000
  20195302.239   -20095255.02649 -15391814.15947  20195301.763    20195308.975
       240.000         205.000
  23483323.520    -5214635.00549  -4044638.01445  23483322.107    23483334.383
       203.000         134.000
  19626197.472    -7807588.51949  -5904613.68547  19626197.151    19626204.319
       244.000         210.000
  21168135.067   -15392515.21949 -11973816.88746  21168134.435    21168142.870
       224.000         179.000
  21689699.827   -16650782.94449 -12929451.55546  21689698.870    21689707.664
       218.000         167.000
  18966352.101   -18699488.54149 -14548714.98348  18966352.384    18966357.150
       240.000         215.000
 02  5 25  6 32 29.9950000  0  9G20G 2G 3G27G28G 1G31G 8G13
  23437948.927    14609858.89759  11384021.54054  23437947.616    23437963.599
       197.000         129.000
  21757413.469     1683956.55049   1445862.62146  21757413.011    21757420.715
       228.000         182.000
  21553753.314   -16600253.97449 -12651270.07646  21553753.079    21553759.604
       224.000         174.000
  20184641.362   -20151278.62849 -15435468.89347  20184641.128    20184647.663
       240.000         205.000
  23459592.254    -5339343.62649  -4141813.08845  23459592.315    23459604.027
       208.000         138.000
  19630097.960    -7787090.56649  -5888641.27347  19630097.818    19630104.917
       244.000         210.000
  21149517.066   -15490354.12649 -12050054.94646  21149516.226    21149525.050
       224.000         180.000
  21672150.624   -16743003.26249 -13001311.44746  21672150.406    21672157.980
       216.000         166.000
  18960999.122   -18727618.66649 -14570634.56448  18960999.517    18961004.078
       241.000         215.000
 02  5 25  6 32 59.9950000  0  9G20G 2G 3G27G28G 1G31G 8G13
  23454372.449    14696151.37249  11451262.32745  23454372.663    23454384.914
       201.000         138.000
  21767444.061     1736667.43749   1486936.01946  21767443.630    21767451.155
       227.000         180.000
  21548739.481   -16626601.39349 -12671800.51346  21548739.295    21548746.510
       224.000         174.000
  20174009.799   -20207145.82149 -15479001.75347  20174009.838    20174016.449
       240.000         205.000
  23435891.484    -5463889.10349  -4238861.09945  23435891.284    23435900.384
       206.000         137.000
  19634084.599    -7766141.95849  -5872317.70647  19634084.276    19634091.579
       244.000         211.000
  21130968.988   -15587824.79149 -12126006.04346  21130968.174    21130976.929
       225.000         180.000
  21654628.810   -16835080.72849 -13073060.04746  21654628.160    21654636.738
       216.000         166.000
  18955738.609   -18755263.34449 -14592175.87048  18955738.870    18955743.452
       242.000         215.000
 02  5 25  6 33 29.9950000  0  8G 2G 3G27G28G 1G31G 8G13
  21777511.973     1789575.18749   1528162.82946  21777511.100    21777519.148
       226.000         177.000
  21543835.928   -16652368.33149 -12691878.61846  21543836.616    21543843.265
       223.000         174.000
  20163409.110   -20262854.24949 -15522410.90047  20163408.986    20163415.450
       240.000         205.000
  23412221.960    -5588267.11949  -4335778.63645  23412219.787    23412231.549
       200.000         134.000
  19638157.046    -7744740.13449  -5855640.98647  19638157.003    19638163.994
       244.000         211.000
  21112492.134   -15684921.57449 -12201665.81246  21112491.816    21112499.471
       224.000         180.000
  21637134.547   -16927012.62849 -13144695.20046  21637134.070    21637142.227
       217.000         167.000
  18950570.908   -18782419.11249 -14613336.20648  18950571.270    18950575.874
       242.000         215.000
 02  5 25  6 33 59.9950000  0  8G 2G 3G27G28G 1G31G 8G13
  21787619.885     1842693.10849   1569553.40646  21787619.150    21787625.881
       226.000         176.000
  21539046.111   -16677538.74149 -12711491.89646  21539045.528    21539052.568
       222.000         173.000
  20152841.360   -20318388.85049 -15565684.59947  20152841.214    20152847.451
       240.000         205.000
  23388587.697    -5712460.99349  -4432552.67745  23388587.088    23388600.654
       199.000         134.000
  19642319.105    -7722869.80849  -5838599.19847  19642318.799    19642325.895
       244.000         212.000
  21094089.154   -15781626.03849 -12277019.88546  21094088.852    21094097.414
       224.000         180.000
  21619670.630   -17018783.69149 -13216205.02446  21619670.653    21619679.078
       217.000         168.000
  18945499.473   -18809069.80449 -14634102.97448  18945499.843    18945504.633
       242.000         215.000
 02  5 25  6 34 29.9950000  0  8G 2G 3G27G28G 1G31G 8G13
  21797766.061     1896011.00549   1611099.79946  21797766.333    21797772.847
       227.000         177.000
  21534368.211   -16702120.08349 -12730646.16846  21534367.195    21534375.509
       223.000         173.000
  20142305.054   -20373757.87049 -15608829.27947  20142304.959    20142311.044
       240.000         206.000
  23364988.504    -5836477.14249  -4529188.23645  23364988.266    23364998.969
       208.000         138.000
  19646568.192    -7700539.48649  -5821198.97247  19646568.030    19646575.334
       244.000         212.000
  21075760.480   -15877943.42549 -12352072.33946  21075760.089    21075769.682
       222.000         179.000
  21602236.519   -17110402.59549 -13287596.29646  21602235.778    21602244.432
       219.000         169.000
  18940522.964   -18835222.06549 -14654481.35948  18940523.133    18940528.181
       242.000         216.000
 02  5 25  6 34 59.9950000  0  8G 2G 3G27G28G 1G31G 8G13
  21807945.760     1949502.96149   1652781.82646  21807945.235    21807952.179
       228.000         178.000
  21529798.142   -16726135.66849 -12749359.59246  21529798.066    21529805.151
       223.000         171.000
  20131795.405   -20428985.40149 -15651863.70247  20131795.163    20131801.685
       240.000         206.000
  23341419.590    -5960337.90249  -4625702.76545  23341420.491    23341430.644
       213.000         145.000
  19650900.635    -7677773.20949  -5803459.03547  19650900.517    19650907.681
       244.000         212.000
  21057501.504   -15973894.56649 -12426839.39146  21057501.009    21057510.166
       223.000         178.000
  21584826.818   -17201893.18649 -13358887.58046  21584826.597    21584834.073
       220.000         170.000
  18935636.460   -18860899.09749 -14674489.43848  18935636.850    18935641.973
       241.000         216.000
 02  5 25  6 35 29.9950000  0  8G 2G 3G27G28G 1G31G 8G13
  21818161.862     2003187.75649   1694614.10846  21818161.626    21818168.169
       228.000         180.000
  21525339.439   -16749564.15949 -12767615.53946  21525340.040    21525347.032
       223.000         170.000
  20121316.637   -20484050.72549 -15694771.73147  20121316.604    20121323.535
       240.000         207.000
  23317882.818    -6084021.22249  -4722079.04845  23317882.535    23317893.859
       213.000         151.000
  19655319.665    -7654550.46249  -5785363.41347  19655319.380    19655326.829
       243.000         212.000
  21039317.088   -16069455.57749 -12501302.45746  21039316.658    21039324.531
       224.000         177.000
  21567445.662   -17293234.89049 -13430062.85246  21567444.869    21567452.344
       222.000         171.000
  18930845.037   -18886079.06749 -14694110.19848  18930845.250    18930850.469
       241.000         216.000
 02  5 25  6 35 59.9950000  0  8G 2G 3G27G28G 1G31G 8G13
  21828409.914     2057040.92949   1736577.58946  21828409.637    21828416.184
       229.000         181.000
  21520988.684   -16772427.64649 -12785431.23246  21520989.064    21520995.799
       222.000         169.000
  20110864.628   -20538976.48949 -15737571.01147  20110864.395    20110871.231
       240.000         207.000
  23294376.270    -6207547.73449  -4818333.14345  23294375.973    23294388.063
       211.000         151.000
  19659821.431    -7630894.23449  -5766930.00447  19659821.276    19659828.393
       243.000         212.000
  21021203.197   -16164646.04249 -12575476.80046  21021202.008    21021210.594
       224.000         176.000
  21550087.847   -17384450.29049 -13501139.71846  21550087.371    21550094.081
       222.000         172.000
  18926143.889   -18910783.59749 -14713360.48748  18926144.064    18926149.478
       240.000         216.000
 02  5 25  6 36 29.9950000  0  8G 2G 3G27G28G 1G31G 8G13
  21838695.132     2111092.48049   1778695.66346  21838694.495    21838702.554
       227.000         181.000
  21516751.652   -16794693.40549 -12802781.16246  21516752.216    21516759.497
       223.000         168.000
  20100445.407   -20593730.89949 -15780236.77147  20100445.248    20100451.761
       241.000         207.000
  23270905.654    -6330884.26749  -4914439.20645  23270905.180    23270916.679
       210.000         150.000
  19664411.363    -7606772.68249  -5748134.00747  19664411.110    19664418.656
       243.000         212.000
  21003165.842   -16259430.92449 -12649335.08646  21003165.737    21003173.874
       224.000         175.000
  21532760.183   -17475507.64149 -13572093.42846  21532759.570    21532766.611
       223.000         172.000
  18921539.407   -18934979.63349 -14732214.55248  18921539.693    18921545.050
       240.000         216.000
 02  5 25  6 36 59.9950000  0  8G 2G 3G27G28G 1G31G 8G13
  21849018.514     2165343.36649   1820969.06446  21849017.734    21849026.398
       227.000         181.000
  21512628.899   -16816358.29049 -12819662.87546  21512629.377    21512635.946
       222.000         168.000
  20090059.233   -20648311.11849 -15822766.79847  20090058.936    20090065.489
       241.000         207.000
  23247472.247    -6454026.13749  -5010393.63145  23247472.114    23247483.065
       214.000         149.000
  19669090.660    -7582183.09449  -5728973.31348  19669090.390    19669097.815
       243.000         213.000
  20985207.497   -16353804.33249 -12722872.73846  20985207.330    20985214.510
       226.000         178.000
  21515463.066   -17566404.17649 -13642921.83146  21515462.347    21515469.243
       224.000         172.000
  18917032.762   -18958663.20749 -14750669.29748  18917032.921    18917038.265
       241.000         217.000
 02  5 25  6 37 29.9950000  0  8G 2G 3G27G28G 1G31G 8G13
  21859379.976     2219793.70749   1863397.88946  21859379.729    21859387.202
       227.000         181.000
  21508621.318   -16837419.49949 -12836074.18546  21508620.874    21508628.554
       222.000         169.000
  20079706.114   -20702715.04249 -15865159.45147  20079706.060    20079712.754
       240.000         208.000
  23224077.411    -6576969.70549  -5106193.53445  23224077.042    23224086.392
       217.000         150.000
  19673859.430    -7557123.65349  -5709446.50348  19673859.188    19673866.709
       243.000         213.000
  20967328.103   -16447761.03749 -12796085.69046  20967327.399    20967336.222
       226.000         177.000
  21498196.472   -17657137.91749 -13713623.37446  21498195.165    21498203.340
       222.000         172.000
  18912623.985   -18981831.19649 -14768722.28948  18912624.277    18912629.434
       240.000         217.000
 02  5 25  6 37 59.9950000  0  8G 2G 3G27G28G 1G31G 8G13
  21869771.391     2274400.96949   1905948.98946  21869771.068    21869778.521
       228.000         179.000
  21504720.671   -16857917.33249 -12852046.50746  21504719.932    21504727.570
       222.000         169.000
  20069379.304   -20756983.47749 -15907446.52947  20069378.977    20069386.031
       239.000         207.000
  23200712.340    -6699754.05549  -5201869.35945  23200711.798    23200721.721
       218.000         151.000
  19678709.887    -7531635.13649  -5689585.34248  19678709.582    19678716.925
       243.000         213.000
  20949520.655   -16541338.70149 -12869003.27846  20949519.804    20949528.252
       226.000         176.000
  21480953.368   -17747749.43649 -13784229.67546  21480952.926    21480960.742
       222.000         172.000
  18908305.876   -19004523.10449 -14786404.30148  18908306.278    18908311.314
       240.000         218.000
 02  5 25  6 38 29.9950000  0  8G 2G 3G27G28G 1G31G 8G13
  21880197.332     2329186.37849   1948638.90146  21880197.203    21880204.268
       229.000         180.000
  21500931.789   -16877828.09549 -12867561.37246  21500931.980    21500938.209
       223.000         168.000
  20059082.464   -20811093.38049 -15949610.07647  20059082.248    20059089.193
       240.000         208.000
  23177381.872    -6822354.55849  -5297401.92045  23177380.568    23177391.549
       216.000         152.000
  19683646.116    -7505694.90849  -5669372.20148  19683645.937    19683653.211
       243.000         213.000
  20931790.829   -16634511.12949 -12941605.11046  20931790.056    20931797.460
       227.000         177.000
  21463738.419   -17838215.79749 -13854722.86746  21463738.788    21463745.374
       224.000         172.000
  18904082.975   -19026715.43149 -14803697.03248  18904083.418    18904088.389
       240.000         217.000
 02  5 25  6 38 59.9950000  0  8G 2G 3G27G28G 1G31G 8G13
  21890649.138     2384111.37949   1991437.57446  21890649.100    21890656.211
       229.000         182.000
  21497248.031   -16897187.98549 -12882646.99446  21497248.946    21497254.541
       222.000         168.000
  20048809.035   -20865081.32349 -15991678.58947  20048808.769    20048815.541
       239.000         207.000
  23154078.875    -6944806.19049  -5392818.49045  23154078.473    23154089.438
       213.000         150.000
  19688661.244    -7479339.62249  -5648835.63948  19688660.940    19688668.504
       244.000         213.000
  20914131.445   -16727311.89449 -13013917.33246  20914131.001    20914138.397
       229.000         178.000
  21446543.818   -17928573.87549 -13925131.69146  21446543.308    21446551.075
       223.000         173.000
  18899948.220   -19048443.56149 -14820628.05248  18899948.607    18899953.543
       240.000         217.000
 02  5 25  6 39 29.9950000  0  8G 2G 3G27G28G 1G31G 8G13
  21901135.806     2439216.75649   2034376.79746  21901134.918    21901142.158
       229.000         181.000
  21493676.488   -16915954.10849 -12897269.92346  21493677.000    21493683.294
       221.000         167.000
  20038566.637   -20918904.67749 -16033618.85547  20038566.443    20038573.132
       239.000         207.000
  23130813.924    -7067064.95349  -5488084.79745  23130813.536    23130823.340
       210.000         146.000
  19693763.565    -7452527.12249  -5627942.81048  19693763.453    19693770.830
       244.000         214.000
  20896551.117   -16819695.49949 -13085904.49646  20896551.340    20896557.720
       227.000         178.000
  21429377.371   -18018781.12249 -13995422.97646  21429377.498    21429384.947
       223.000         174.000
  18895910.091   -19069663.93149 -14837163.41748  18895910.313    18895915.382
       240.000         217.000
 02  5 25  6 39 59.9950000  0  8G 2G 3G27G28G 1G31G 8G13
  21911651.229     2494478.39949   2077437.77846  21911650.948    21911658.086
       228.000         180.000
  21490214.982   -16934148.09449 -12911447.05046  21490213.399    21490220.748
       221.000         168.000
  20028351.251   -20972585.85849 -16075448.33847  20028351.110    20028357.976
       239.000         207.000
  23107580.706    -7189151.35849  -5583216.83545  23107580.531    23107591.417
       208.000         142.000
  19698948.795    -7425280.01949  -5606711.33148  19698948.585    19698955.579
       245.000         215.000
  20879046.639   -16911681.03449 -13157581.47046  20879045.983    20879053.042
       226.000         177.000
  21412235.793   -18108859.79149 -14065614.06446  21412235.699    21412243.287
       223.000         175.000
  18891964.508   -19090397.93449 -14853319.79248  18891964.737    18891969.743
       239.000         216.000
 02  5 25  6 40 29.9950000  0  8G 2G 3G27G28G 1G31G 8G13
  21922202.085     2549922.35749   2120640.83046  21922201.267    21922209.058
       227.000         179.000
  21486866.522   -16951741.36249 -12925156.07346  21486866.742    21486873.433
       221.000         168.000
  20018168.648   -21026096.59349 -16117145.00847  20018168.367    20018175.174
       239.000         207.000
  23084386.278    -7311035.77549  -5678191.49545  23084386.022    23084394.596
       205.000         139.000
  19704222.176    -7397570.38249  -5585119.43848  19704221.901    19704228.725
       247.000         215.000
  20861624.120   -17003237.44549 -13228924.06146  20861623.574    20861631.662
       229.000         179.000
  21395123.957   -18198781.69349 -14135683.02446  21395123.367    21395131.826
       223.000         175.000
  18888116.889   -19110616.53049 -14869074.55648  18888117.340    18888122.273
       241.000         215.000
 02  5 25  6 40 59.9950000  0  8G 2G 3G27G28G 1G31G 8G13
  21932786.743     2605546.01649   2163983.92046  21932786.177    21932793.728
       226.000         178.000
  21483633.393   -16968734.48449 -12938397.45546  21483633.144    21483639.383
       222.000         171.000
  20008018.321   -21079437.70049 -16158709.49747  20008017.967    20008024.809
       239.000         207.000
  23061229.440    -7432717.50249  -5773008.19445  23061230.629    23061238.313
       204.000         138.000
  19709582.670    -7369399.26449  -5563167.94148  19709582.294    19709589.425
       247.000         215.000
  20844283.670   -17094362.29249 -13299930.36546  20844283.068    20844291.335
       228.000         180.000
  21378042.401   -18288547.79449 -14205630.57446  21378041.670    21378049.804
       224.000         176.000
  18884367.756   -19130319.33449 -14884427.39948  18884367.925    18884373.065
       241.000         215.000
 02  5 25  6 41 29.9950000  0  8G 2G 3G27G28G 1G31G 8G13
  21943405.500     2661348.55849   2207466.39446  21943405.000    21943412.187
       226.000         177.000
  21480514.003   -16985125.78649 -12951169.87946  21480514.055    21480521.066
       222.000         172.000
  19997900.194   -21132608.17149 -16200141.02847  19997899.887    19997906.858
       239.000         207.000
  23038113.903    -7554193.95649  -5867664.92745  23038114.426    23038124.368
       200.000         137.000
  19715031.155    -7340766.15949  -5540856.46648  19715031.018    19715038.067
       247.000         215.000
  20827025.858   -17185051.54249 -13370597.23946  20827025.897    20827033.923
       229.000         182.000
  21360990.431   -18378157.10549 -14275455.95346  21360989.934    21360998.071
       224.000         176.000
  18880716.811   -19149504.52049 -14899376.90448  18880717.072    18880722.132
       241.000         214.000
 02  5 25  6 41 59.9950000  0  8G 2G 3G27G28G 1G31G 8G13
  21954053.648     2717304.93049   2251068.73946  21954053.324    21954061.333
       225.000         175.000
  21477505.222   -17000938.41449 -12963491.39946  21477504.841    21477512.275
       223.000         175.000
  19987809.926   -21185631.44849 -16241457.86147  19987809.711    19987816.733
       239.000         207.000
  23015033.825    -7675486.82549  -5962178.62845  23015033.639    23015042.959
       205.000         142.000
  19720563.482    -7311694.63749  -5518203.37148  19720563.340    19720570.123
       247.000         215.000
  20809847.590   -17275325.62249 -13440940.62246  20809846.967    20809854.870
       229.000         184.000
  21343963.597   -18467632.99449 -14345177.37046  21343963.102    21343971.307
       224.000         176.000
  18877160.325   -19168194.50249 -14913940.53348  18877160.760    18877165.596
       242.000         214.000
 02  5 25  6 42 29.9950000  0  8G 2G 3G27G28G 1G31G 8G13
  21964728.581     2773402.85049   2294781.37946  21964727.581    21964735.842
       225.000         174.000
  21474604.341   -17016182.58049 -12975369.94846  21474604.010    21474611.729
       223.000         175.000
  19977745.909   -21238517.86849 -16282668.05147  19977745.843    19977752.634
       238.000         207.000
  22991985.813    -7796605.02749  -6056556.20945  22991985.900    22991995.535
       207.000         145.000
  19726177.022    -7282195.45749  -5495217.03548  19726176.795    19726183.798
       246.000         214.000
  20792745.904   -17365192.02049 -13510966.33346  20792745.552    20792754.006
       228.000         183.000
  21326960.233   -18556985.88249 -14414802.93546  21326959.849    21326967.681
       222.000         176.000
  18873696.223   -19186398.93249 -14928125.80948  18873696.627    18873701.459
       242.000         214.000
 02  5 25  6 42 59.9950000  0  8G 2G 3G27G28G 1G31G 8G13
  21975433.671     2829657.69649   2338616.28746  21975433.232    21975441.634
       225.000         176.000
  21471814.759   -17030840.62549 -12986791.78146  21471814.235    21471822.382
       222.000         175.000
  19967711.510   -21291250.13749 -16323758.12547  19967711.213    19967718.120
       239.000         206.000
  22968974.857    -7917529.80249  -6150783.10445  22968974.110    22968984.635
       210.000         148.000
  19731875.104    -7252251.87949  -5471884.42248  19731874.842    19731882.089
       246.000         214.000
  20775726.218   -17454630.57449 -13580658.64546  20775726.069    20775733.935
       229.000         184.000
  21309983.348   -18646198.90149 -14484319.50846  21309983.024    21309991.046
       224.000         176.000
  18870327.933   -19204099.62849 -14941918.56348  18870328.260    18870332.960
       243.000         214.000
 02  5 25  6 43 29.9950000  0  8G 2G 3G27G28G 1G31G 8G13
  21986169.361     2886071.25949   2382574.87046  21986168.009    21986175.055
       225.000         174.000
  21469137.789   -17044908.73149 -12997753.92546  21469137.556    21469144.765
       222.000         175.000
  19957706.820   -21343824.56849 -16364725.20747  19957706.548    19957713.392
       239.000         206.000
  22946001.084    -8038255.83949  -6244855.16445  22946001.044    22946009.959
       213.000         151.000
  19737658.217    -7221860.43349  -5448202.80948  19737657.867    19737665.280
       246.000         213.000
  20758789.290   -17543634.49349 -13650012.28646  20758789.091    20758797.822
       230.000         186.000
  21293034.134   -18735268.01649 -14553723.94246  21293033.503    21293042.204
       225.000         176.000
  18867056.419   -19221292.05249 -14955315.25548  18867056.731    18867061.481
       243.000         214.000
 02  5 25  6 43 59.9950000  0  8G 2G 3G27G28G 1G31G 8G13
  21996934.115     2942641.49949   2426655.53646  21996933.891    21996940.604
       223.000         173.000
  21466573.037   -17058387.29549 -13008256.69346  21466572.938    21466580.660
       221.000         176.000
  19947732.068   -21396241.41449 -16405569.49647  19947732.025    19947738.820
       239.000         206.000
  22923066.645    -8158782.01049  -6338771.46745  22923065.953    22923075.627
       216.000         154.000
  19743526.622    -7191021.82549  -5424172.76848  19743526.395    19743533.599
       246.000         213.000
  20741935.936   -17632201.11949 -13719025.18746  20741935.505    20741943.921
       229.000         187.000
  21276112.512   -18824193.78549 -14623016.66646  21276112.076    21276119.379
       225.000         175.000
  18863881.625   -19237975.64349 -14968315.45848  18863881.884    18863886.696
       243.000         215.000
 02  5 25  6 44 29.9950000  0  8G 2G 3G27G28G 1G31G 8G13
  22007729.663     2999372.88749   2470861.79246  22007729.172    22007736.459
       223.000         173.000
  21464121.085   -17071269.37349 -13018294.66246  21464121.419    21464129.183
       220.000         174.000
  19937788.849   -21448494.30649 -16446286.02947  19937788.639    19937795.402
       239.000         206.000
  22900170.783    -8279100.42349  -6432525.87545  22900169.855    22900179.481
       218.000         157.000
  19749481.289    -7159730.14849  -5399789.68247  19749481.195    19749488.330
       245.000         212.000
  20725167.225   -17720321.13749 -13787690.08146  20725166.312    20725174.692
       228.000         186.000
  21259218.757   -18912969.95049 -14692192.82446  21259217.967    21259225.920
       224.000         173.000
  18860804.968   -19254143.34349 -14980913.66448  18860805.433    18860810.139
       244.000         215.000
 02  5 25  6 44 59.9950000  0  8G 2G 3G27G28G 1G31G 8G13
  22018560.255     3056289.71449   2515212.52846  22018559.827    22018567.815
       222.000         172.000
  21461788.537   -17083528.90649 -13027847.53046  21461787.913    21461795.855
       220.000         174.000
  19927881.614   -21500557.06449 -16486854.41147  19927881.487    19927888.023
       239.000         206.000
  22877318.852    -8399183.70249  -6526097.06745  22877318.411    22877328.518
       215.000         155.000
  19755527.136    -7127960.00549  -5375033.77147  19755526.958    19755534.034
       244.000         211.000
  20708488.560   -17807965.68849 -13855984.47846  20708488.183    20708496.867
       228.000         186.000
  21242358.312   -19001570.30349 -14761231.98646  21242357.975    21242365.964
       223.000         173.000
  18857831.629   -19269768.14749 -14993088.83548  18857831.858    18857836.825
       244.000         215.000
 02  5 25  6 45 29.9950000  0  8G 2G 3G27G28G 1G31G 8G13
  22029413.093     3113325.65249   2559656.08246  22029413.188    22029420.921
       220.000         171.000
  21459560.777   -17095230.38849 -13036965.56346  21459560.869    21459569.179
       219.000         172.000
  19917998.473   -21552493.99949 -16527324.74347  19917998.357    19918004.771
       239.000         205.000
  22854499.672    -8519094.44749  -6619533.81045  22854498.777    22854510.310
       215.000         153.000
  19761651.467    -7095776.15449  -5349955.49047  19761651.237    19761658.506
       244.000         211.000
  20691889.318   -17895196.17849 -13923956.23646  20691888.561    20691897.565
       228.000         186.000
  21225519.387   -19090059.36249 -14830184.41346  21225518.967    21225526.196
       223.000         172.000
  18854949.547   -19284913.83149 -15004890.67148  18854949.902    18854954.604
       244.000         216.000
 02  5 25  6 45 59.9950000  0  8G 2G 3G27G28G 1G31G 8G13
  22040299.687     3170533.59649   2604233.67146  22040299.046    22040307.365
       220.000         170.000
  21457451.111   -17106318.59049 -13045605.71046  21457450.635    21457459.131
       219.000         172.000
  19908149.461   -21604250.41049 -16567654.40747  19908149.149    19908155.986
       239.000         205.000
  22831725.756    -8638776.49149  -6712792.35745  22831725.990    22831735.267
       218.000         156.000
  19767864.718    -7063124.31649  -5324512.54047  19767864.581    19767871.814
       242.000         209.000
  20675379.296   -17981955.00749 -13991560.45546  20675378.795    20675387.340
       226.000         184.000
  21208711.979   -19178382.68849 -14899007.70346  21208711.505    21208718.529
       224.000         173.000
  18852169.187   -19299524.86949 -15016275.90248  18852169.519    18852174.297
       243.000         216.000
 02  5 25  6 46 29.9950000  0  8G 2G 3G27G28G 1G31G 8G13
  22051213.814     3227885.60949   2648923.50346  22051213.417    22051220.327
       221.000         170.000
  21455452.438   -17116819.41949 -13053788.16246  21455452.009    21455459.923
       219.000         170.000
  19898329.734   -21655852.37349 -16607863.72447  19898329.683    19898336.371
       239.000         206.000
  22808989.798    -8758254.52749  -6805891.94045  22808989.827    22808999.090
       219.000         158.000
  19774162.071    -7030031.27149  -5298725.80047  19774162.136    19774169.257
       241.000         208.000
  20658954.967   -18068265.38949 -14058815.25346  20658954.822    20658963.004
       227.000         185.000
  21191931.306   -19266566.28249 -14967722.10746  21191930.574    21191938.346
       224.000         172.000
  18849485.642   -19313626.75249 -15027264.38748  18849485.951    18849490.841
       243.000         215.000
 02  5 25  6 46 59.9950000  0  8G 2G 3G27G28G 1G31G 8G13
  22062155.649     3285383.32849   2693726.87646  22062155.783    22062162.545
       221.000         169.000
  21453566.707   -17126729.50749 -13061510.29346  21453566.184    21453575.534
       219.000         170.000
  19888540.491   -21707296.39049 -16647949.95947  19888540.438    19888547.038
       240.000         205.000
  22786292.786    -8877523.60849  -6898828.72745  22786292.443    22786301.845
       217.000         156.000
  19780544.125    -6996494.04549  -5272592.93747  19780543.844    19780551.241
       241.000         207.000
  20642617.452   -18154120.98149 -14125715.65646  20642617.282    20642625.299
       227.000         186.000
  21175177.680   -19354606.79749 -15036325.02446  21175176.662    21175184.490
       224.000         174.000
  18846899.934   -19327215.29149 -15037852.86648  18846900.228    18846905.047
       242.000         215.000
 02  5 25  6 47 29.9950000  0  8G 2G 3G27G28G 1G31G 8G13
  22073121.205     3343008.92549   2738629.89446  22073121.037    22073128.526
       221.000         170.000
  21451790.667   -17136064.95449 -13068784.66146  21451790.490    21451797.702
       221.000         170.000
  19878778.171   -21758598.52049 -16687925.63747  19878777.907    19878784.234
       240.000         205.000
  22763632.626    -8996598.58049  -6991614.24445  22763632.803    22763644.245
       215.000         157.000
  19787007.601    -6962529.05449  -5246126.74847  19787007.360    19787014.469
       240.000         207.000
  20626363.423   -18239535.00649 -14192271.96946  20626363.028    20626370.683
       225.000         185.000
  21158448.123   -19442520.34349 -15104828.99746  21158447.481    21158454.560
       225.000         174.000
  18844408.798   -19340305.72949 -15048053.21848  18844409.346    18844414.015
       241.000         215.000
 02  5 25  6 47 59.9950000  0  8G 2G 3G27G28G 1G31G 8G13
  22084113.929     3400775.78849   2783642.99046  22084113.143    22084121.176
       222.000         170.000
  21450126.763   -17144810.24249 -13075599.17546  21450126.274    21450134.062
       223.000         172.000
  19869045.579   -21809743.34949 -16727778.73547  19869045.450    19869051.604
       239.000         205.000
  22741012.804    -9115462.28349  -7084235.10145  22741013.294    22741024.261
       211.000         154.000
  19793554.956    -6928121.42849  -5219315.64747  19793554.853    19793562.398
       239.000         206.000
  20610197.241   -18324489.21349 -14258469.98546  20610196.800    20610204.483
       226.000         184.000
  21141745.922   -19530291.50749 -15173222.02646  21141745.261    21141752.555
       226.000         176.000
  18842015.644   -19352881.98849 -15057852.90848  18842016.110    18842020.902
       240.000         214.000
 02  5 25  6 48 29.9950000  0  8G 2G 3G27G28G 1G31G 8G13
  22095137.428     3458703.90149   2828781.73446  22095136.784    22095144.303
       222.000         170.000
  21448579.188   -17152943.99749 -13081937.17346  21448578.753    21448586.161
       225.000         174.000
  19859346.997   -21860709.10149 -16767492.29847  19859346.712    19859353.006
       239.000         204.000
  22718438.565    -9234091.68249  -7176673.38045  22718438.757    22718449.957
       209.000         153.000
  19800190.794    -6893250.15849  -5192143.26147  19800190.548    19800197.987
       239.000         206.000
  20594122.962   -18408959.15949 -14324290.66446  20594122.827    20594130.866
       226.000         185.000
  21125074.998   -19617898.71149 -15241487.28146  21125074.080    21125081.340
       228.000         177.000
  18839724.541   -19364921.85049 -15067234.63348  18839724.827    18839729.854
       240.000         215.000
 02  5 25  6 48 59.9950000  0  8G 2G 3G27G28G 1G31G 8G13
  22106184.766     3516756.43649   2874017.44246  22106183.663    22106190.799
       223.000         172.000
  21447141.429   -17160501.38749 -13087826.05646  21447141.051    21447148.186
       227.000         176.000
  19849675.801   -21911530.72649 -16807093.55347  19849675.991    19849681.754
       240.000         204.000
  22695903.088    -9352520.47249  -7268955.36345  22695903.095    22695912.257
       209.000         152.000
  19806908.019    -6857950.94249  -5164637.41347  19806907.913    19806915.472
       238.000         205.000
  20578134.695   -18492977.04749 -14389759.08446  20578134.489    20578142.628
       224.000         183.000
  21108427.737   -19705377.14749 -15309652.21846  21108427.204    21108434.953
       227.000         178.000
  18837528.988   -19376459.63249 -15076225.12348  18837529.103    18837534.149
       240.000         215.000
 02  5 25  6 49 29.9950000  0  8G 2G 3G27G28G 1G31G 8G13
  22117254.514     3574928.61949   2919346.38846  22117253.878    22117261.998
       223.000         173.000
  21445812.243   -17167485.22449 -13093268.01146  21445812.337    21445819.512
       226.000         176.000
  19840031.787   -21962211.11849 -16846584.74747  19840031.585    19840038.158
       239.000         204.000
  22673404.286    -9470750.28749  -7361082.30045  22673404.264    22673413.268
       213.000         148.000
  19813705.970    -6822227.16449  -5136800.74047  19813705.760    19813713.301
       238.000         205.000
  20562232.609   -18576543.03849 -14454875.36046  20562232.291    20562240.684
       225.000         183.000
  21091805.201   -19792729.75049 -15377719.10346  21091804.718    21091812.313
       228.000         178.000
  18835428.443   -19387497.72749 -15084826.24548  18835428.656    18835433.737
       240.000         215.000
 02  5 25  6 49 59.9950000  0  8G 2G 3G27G28G 1G31G 8G13
  22128361.544     3633294.12949   2964825.96546  22128360.924    22128368.882
       224.000         175.000
  21444606.880   -17173819.89049 -13098204.12346  21444606.793    21444612.763
       225.000         177.000
  19830428.760   -22012674.48149 -16885906.83447  19830428.575    19830435.078
       239.000         204.000
  22650958.198    -9588703.88949  -7452994.00145  22650958.483    22650966.921
       213.000         150.000
  19820599.374    -6786004.03149  -5108574.95947  19820599.130    19820606.425
       239.000         206.000
  20546431.313   -18659578.81049 -14519578.49946  20546431.086    20546439.794
       224.000         182.000
  21075220.945   -19879881.18049 -15445629.22646  21075220.604    21075227.721
       227.000         178.000
  18833437.400   -19397960.08949 -15092978.74548  18833437.753    18833442.877
       241.000         215.000
 02  5 25  6 50 29.9950000  0  8G 2G 3G27G28G 1G31G 8G13
  22139493.193     3691790.83149   3010407.77446  22139492.662    22139500.457
       225.000         174.000
  21443513.173   -17179566.13349 -13102681.70846  21443513.147    21443520.605
       225.000         177.000
  19820855.707   -22062981.27049 -16925106.91547  19820855.724    19820862.213
       239.000         203.000
  22628553.958    -9706440.51149  -7544736.62545  22628553.697    22628562.497
       215.000         151.000
  19827575.746    -6749342.63849  -5080007.67747  19827575.607    19827582.858
       240.000         206.000
  20530719.969   -18742141.92849 -14583913.31946  20530719.716    20530727.457
       224.000         183.000
  21058663.456   -19966891.72749 -15513429.59046  21058663.648    21058669.808
       227.000         177.000
  18831544.866   -19407906.30649 -15100729.04848  18831545.171    18831550.151
       242.000         217.000
 02  5 25  6 50 59.9950000  0  8G 2G 3G27G28G 1G31G 8G13
  22150646.299     3750398.81849   3056076.29346  22150646.150    22150652.772
       224.000         174.000
  21442528.074   -17184742.49249 -13106715.23546  21442528.124    21442536.126
       224.000         176.000
  19811309.138   -22113149.60649 -16964199.10847  19811309.146    19811315.435
       239.000         204.000
  22606187.346    -9823976.73549  -7636323.08345  22606187.299    22606195.978
       216.000         153.000
  19834632.054    -6712261.93649  -5051113.66947  19834631.852    19834639.431
       240.000         207.000
  20515096.442   -18824247.87349 -14647891.91246  20515095.806    20515103.213
       226.000         184.000
  21042128.842   -20053779.64049 -15581134.37846  21042128.789    21042135.525
       226.000         177.000
  18829747.031   -19417354.12549 -15108090.99348  18829747.299    18829752.229
       242.000         217.000
 02  5 25  6 51 29.9950000  0  8G 2G 3G27G28G 1G31G 8G13
  22161825.697     3809148.13949   3101854.94746  22161824.909    22161832.273
       223.000         172.000
  21441657.141   -17189316.99049 -13110279.77346  21441656.877    21441664.955
       222.000         174.000
  19801794.979   -22163147.47249 -17003158.46247  19801794.717    19801800.985
       239.000         204.000
  22583865.289    -9941279.34449  -7727727.51745  22583864.506    22583872.829
       217.000         153.000
  19841774.004    -6674730.43049  -5021868.38747  19841773.704    19841781.572
       241.000         207.000
  20499565.469   -18905861.96849 -14711487.23746  20499565.167    20499572.873
       226.000         185.000
  21025623.914   -20140513.03749 -15648718.80446  21025623.957    21025630.602
       225.000         176.000
  18828050.311   -19426270.85049 -15115039.09448  18828050.567    18828055.444
       242.000         217.000
 02  5 25  6 51 59.9950000  0  8G 2G 3G27G28G 1G31G 8G13
  22173023.765     3867997.90049   3147711.86846  22173023.829    22173030.724
       221.000         170.000
  21440893.572   -17193328.93549 -13113405.96346  21440893.533    21440901.361
       222.000         173.000
  19792305.497   -22213013.92549 -17042015.42147  19792305.628    19792311.723
       239.000         204.000
  22561581.053   -10058386.27649  -7818979.47945  22561580.985    22561588.261
       220.000         154.000
  19848994.404    -6636788.26149  -4992303.10347  19848994.359    19849001.752
       241.000         207.000
  20484120.921   -18987020.79649 -14774727.81446  20484120.775    20484128.975
       225.000         184.000
  21009141.286   -20227131.31849 -15716213.52446  21009140.483    21009147.597
       224.000         176.000
  18826447.130   -19434695.32549 -15121603.62448  18826447.418    18826452.361
       243.000         218.000
 02  5 25  6 52 29.9950000  0  8G 2G 3G27G28G 1G31G 8G13
  22184248.467     3926985.40349   3193676.12046  22184247.843    22184254.904
       220.000         168.000
  21440244.391   -17196739.73749 -13116063.72546  21440244.088    21440251.876
       222.000         173.000
  19782848.587   -22262709.88749 -17080739.53047  19782848.535    19782854.804
       239.000         204.000
  22539341.236   -10175257.20349  -7910047.53345  22539341.005    22539347.673
       219.000         155.000
  19856300.134    -6598396.98849  -4962387.87147  19856299.831    19856307.114
       241.000         207.000
  20468771.639   -19067682.49149 -14837581.01446  20468771.594    20468779.731
       228.000         186.000
  20992686.913   -20313595.34549 -15783588.04346  20992687.069    20992694.540
       225.000         177.000
  18824945.122   -19442587.96949 -15127753.74448  18824945.435    18824950.485
       243.000         218.000
 02  5 25  6 52 59.9950000  0  8G 2G 3G27G28G 1G31G 8G13
  22195495.090     3986086.62649   3239728.99746  22195495.351    22195502.088
       219.000         167.000
  21439705.310   -17199571.62649 -13118270.38346  21439705.471    21439712.889
       222.000         174.000
  19773420.374   -22312257.39249 -17119347.96247  19773420.212    19773426.450
       240.000         205.000
  22517141.781   -10291912.67149  -8000947.69045  22517141.832    22517150.208
       218.000         155.000
  19863686.848    -6559579.40049  -4932140.44547  19863686.577    19863693.859
       241.000         207.000
  20453513.626   -19147866.53849 -14900062.02047  20453513.319    20453520.901
       229.000         188.000
  20976258.558   -20399927.23149 -15850859.59046  20976259.235    20976266.510
       224.000         177.000
  18823540.346   -19449970.31249 -15133506.22948  18823540.758    18823545.558
       243.000         218.000
 02  5 25  6 53 29.9950000  0  8G 2G 3G27G28G 1G31G 8G13
  22206765.600     4045312.62349   3285879.10646  22206764.983    22206773.261
       218.000         168.000
  21439279.722   -17201812.04049 -13120016.16246  21439279.409    21439287.543
       224.000         174.000
  19764022.307   -22361643.41649 -17157830.56547  19764022.390    19764028.532
       240.000         205.000
  22494986.300   -10408338.40349  -8091668.85445  22494986.042    22494995.063
       218.000         157.000
  19871157.040    -6520323.39549  -4901551.39547  19871156.557    19871164.199
       241.000         207.000
  20438349.076   -19227557.41549 -14962158.74047  20438348.574    20438355.504
       230.000         188.000
  20959858.212   -20486114.47849 -15918018.45846  20959857.947    20959866.329
       224.000         178.000
  18822235.193   -19456828.95349 -15138850.63048  18822235.383    18822240.485
       244.000         218.000
 02  5 25  6 53 59.9950000  0  8G 2G 3G27G28G 1G31G 8G13
  22218057.353     4104651.10849   3332116.86946  22218056.774    22218064.807
       217.000         168.000
  21438963.685   -17203471.64049 -13121309.34346  21438963.605    21438971.058
       223.000         175.000
  19754653.333   -22410878.36549 -17196195.44447  19754652.904    19754659.415
       240.000         205.000
  22472873.658   -10524543.61649  -8182218.19245  22472873.281    22472881.951
       217.000         157.000
  19878708.548    -6480640.31549  -4870629.55547  19878708.319    19878715.900
       240.000         206.000
  20423276.677   -19306762.82849 -15023877.18547  20423276.321    20423283.297
       232.000         189.000
  20943482.543   -20572167.42849 -15985072.66146  20943482.363    20943489.634
       225.000         178.000
  18821027.709   -19463174.52249 -15143795.23848  18821028.103    18821033.016
       244.000         217.000
 02  5 25  6 54 29.9950000  0  8G 2G 3G27G28G 1G31G 8G13
  22229372.143     4164110.95049   3378449.19646  22229372.216    22229379.671
       218.000         169.000
  21438760.761   -17204540.27749 -13122142.04446  21438760.722    21438768.221
       225.000         174.000
  19745315.290   -22459951.46349 -17234434.20747  19745315.040    19745321.041
       241.000         206.000
  22450804.017   -10640516.33749  -8272586.37445  22450803.101    22450812.229
       212.000         156.000
  19886343.125    -6440520.05049  -4839367.05247  19886342.877    19886350.543
       239.000         205.000
  20408298.883   -19385469.56949 -15085207.04447  20408298.847    20408306.139
       233.000         190.000
  20927135.309   -20658075.37549 -16052013.88346  20927135.237    20927141.859
       227.000         180.000
  18819919.856   -19468995.31849 -15148330.92948  18819920.300    18819925.363
       243.000         217.000
 02  5 25  6 54 59.9950000  0  8G 2G 3G27G28G 1G31G 8G13
  22240707.131     4223675.39449   3424863.02546  22240706.906    22240714.017
       218.000         170.000
  21438667.163   -17205033.59549 -13122526.45246  21438667.313    21438674.112
       225.000         174.000
  19736004.822   -22508877.74349 -17272558.56947  19736004.475    19736010.772
       240.000         206.000
  22428775.833   -10756270.26049  -8362784.09345  22428776.052    22428786.266
       208.000         154.000
  19894057.981    -6399978.38249  -4807776.18147  19894057.734    19894065.043
       237.000         203.000
  20393414.263   -19463690.03349 -15146157.97947  20393414.035    20393421.094
       235.000         191.000
  20910812.077   -20743853.37449 -16118853.84246  20910810.888    20910819.469
       226.000         179.000
  18818909.474   -19474306.09149 -15152469.20348  18818909.888    18818914.709
       243.000         217.000
 02  5 25  6 55 29.9950000  0  8G 2G 3G27G28G 1G31G 8G13
  22252067.272     4283370.54149   3471378.69246  22252066.936    22252073.703
       220.000         169.000
  21438687.885   -17204924.10149 -13122441.14546  21438687.905    21438694.791
       226.000         174.000
  19726727.548   -22557629.31949 -17310546.79447  19726727.143    19726733.848
       240.000         207.000
  22406795.240   -10871776.32949  -8452788.66045  22406795.676    22406806.199
       206.000         154.000
  19901858.086    -6358988.60549  -4775836.12247  19901857.758    19901865.115
       236.000         202.000
  20378627.847   -19541393.92749 -15206706.41047  20378627.581    20378634.258
       236.000         191.000
  20894518.711   -20829473.89049 -16185571.09346  20894518.282    20894526.026
       226.000         179.000
  18818001.249   -19479078.74949 -15156188.16848  18818001.733    18818006.426
       243.000         216.000
 02  5 25  6 55 59.9950000  0  8G 2G 3G27G28G 1G31G 8G13
  22263447.941     4343178.61349   3517982.36446  22263447.497    22263455.607
       218.000         168.000
  21438820.440   -17204228.04149 -13121898.77746  21438819.747    21438827.387
       227.000         174.000
  19717480.735   -22606221.83749 -17348411.08547  19717480.799    19717486.937
       242.000         207.000
  22384860.912   -10987049.07149  -8542611.42445  22384860.283    22384870.176
       207.000         155.000
  19909740.373    -6317567.18249  -4743559.72147  19909740.281    19909747.414
       236.000         201.000
  20363937.083   -19618594.38949 -15266862.55147  20363936.911    20363943.523
       238.000         192.000
  20878253.394   -20914952.82049 -16252178.02846  20878253.405    20878259.956
       228.000         180.000
  18817192.554   -19483328.84949 -15159499.94448  18817192.763    18817197.622
       243.000         216.000
 02  5 25  6 56 29.9950000  0  8G 2G 3G27G28G 1G31G 8G13
  22274850.335     4403101.05349   3564675.15646  22274849.821    22274858.017
       215.000         167.000
  21439064.832   -17202942.64049 -13120897.17146  21439065.147    21439071.808
       226.000         175.000
  19708264.854   -22654652.01549 -17386148.87247  19708264.914    19708270.805
       242.000         208.000
  22362970.043   -11102084.05549  -8632248.89445  22362968.849    22362979.367
       209.000         155.000
  19917705.137    -6275712.00849  -4710945.33247  19917704.793    19917712.515
       234.000         200.000
  20349343.269   -19695285.85549 -15326622.07847  20349342.894    20349349.719
       238.000         192.000
  20862014.391   -21000287.00549 -16318672.15946  20862013.998    20862021.105
       226.000         179.000
  18816483.826   -19487052.86749 -15162401.78848  18816484.082    18816489.095
       244.000         216.000
 02  5 25  6 56 59.9950000  0  8G 2G 3G27G28G 1G31G 8G13
  22286273.051     4463128.52949   3611449.80046  22286272.226    22286280.654
       214.000         164.000
  21439420.353   -17201076.08649 -13119442.72146  21439420.734    21439426.740
       225.000         174.000
  19699078.446   -22702927.37949 -17423766.02947  19699078.201    19699084.264
       242.000         208.000
  22341123.080   -11216887.75049  -8721706.16245  22341122.907    22341132.321
       205.000         153.000
  19925750.405    -6233431.65649  -4677999.63947  19925750.169    19925758.567
       233.000         198.000
  20334844.894   -19771473.37249 -15385988.91047  20334844.668    20334851.022
       237.000         192.000
  20845801.415   -21085484.31049 -16385059.62646  20845801.274    20845808.624
       225.000         178.000
  18815873.868   -19490258.09349 -15164899.37748  18815874.405    18815879.103
       244.000         216.000
 02  5 25  6 57 29.9940000  0  8G 2G 3G27G28G 1G31G 8G13
  22297716.497     4523262.86549   3658307.71746  22297715.509    22297723.626
       216.000         165.000
  21439886.654   -17198623.30949 -13117531.46146  21439886.693    21439893.895
       224.000         172.000
  19689922.921   -22751040.49449 -17461256.75547  19689922.617    19689928.567
       242.000         208.000
  22319322.854   -11331449.28849  -8810974.72645  22319322.803    22319332.350
       209.000         155.000
  19933877.719    -6190722.64949  -4644719.93147  19933877.573    19933885.648
       232.000         197.000
  20320444.629   -19847146.28049 -15444954.75447  20320444.384    20320451.213
       237.000         191.000
  20829616.545   -21170536.08649 -16451333.70146  20829616.003    20829624.216
       227.000         180.000
  18815363.851   -19492938.38349 -15166987.92548  18815364.169    18815368.993
       244.000         216.000
 02  5 25  6 57 59.9940000  0  8G 2G 3G27G28G 1G31G 8G13
  22309180.702     4583506.42649   3705250.74246  22309180.933    22309187.479
       217.000         165.000
  21440465.186   -17195584.57349 -13115163.60946  21440464.551    21440471.704
       223.000         172.000
  19680797.447   -22798994.49849 -17498623.50347  19680797.420    19680803.400
       242.000         208.000
  22297567.202   -11445775.15849  -8900059.66445  22297566.828    22297576.512
       209.000         155.000
  19942086.854    -6147583.08249  -4611104.71547  19942086.474    19942094.582
       232.000         197.000
  20306142.232   -19922307.13649 -15503521.59547  20306142.190    20306148.509
       237.000         192.000
  20813458.365   -21255448.13849 -16517498.89546  20813457.834    20813465.694
       225.000         180.000
  18814953.762   -19495093.75649 -15168667.44948  18814954.083    18814958.881
       244.000         216.000
 02  5 25  6 58 29.9940000  0  8G 2G 3G27G28G 1G31G 8G13
  22320663.754     4643849.09249   3752270.98446  22320662.981    22320670.825
       217.000         167.000
  21441153.236   -17191967.15649 -13112344.85346  21441152.441    21441160.092
       224.000         171.000
  19671701.569   -22846793.88449 -17535869.76947  19671701.326    19671707.442
       242.000         208.000
  22275855.555   -11559866.66249  -8988961.93345  22275855.667    22275865.278
       212.000         157.000
  19950376.525    -6104021.72649  -4577160.83547  19950376.469    19950384.375
       233.000         196.000
  20291937.072   -19996957.27349 -15561690.47947  20291936.508    20291943.273
       238.000         193.000
  20797326.023   -21340224.05849 -16583558.01046  20797326.483    20797333.122
       227.000         181.000
  18814642.521   -19496730.24249 -15169942.64348  18814642.791    18814647.413
       245.000         216.000
 02  5 25  6 58 59.9940000  0  8G 2G 3G27G28G 1G31G 8G13
  22332163.721     4704282.34949   3799361.81046  22332163.252    22332171.933
       217.000         167.000
  21441950.324   -17187778.24849 -13109080.77746  21441950.455    21441956.577
       222.000         171.000
  19662633.617   -22894445.27449 -17573000.71047  19662633.617    19662639.594
       242.000         208.000
  22254189.074   -11673729.10749  -9077685.77545  22254189.092    22254197.750
       214.000         161.000
  19958745.258    -6060046.28449  -4542894.29247  19958744.569    19958752.080
       234.000         195.000
  20277828.039   -20071100.91449 -15619464.69347  20277827.701    20277834.340
       238.000         193.000
  20781218.650   -21424870.59449 -16649516.29846  20781218.461    20781225.392
       227.000         181.000
  18814428.480   -19497854.09249 -15170818.37848  18814428.790    18814433.761
       245.000         216.000
 02  5 25  6 59 29.9940000  0  8G 2G 3G27G28G 1G31G 8G13
  22343682.132     4764812.39949   3846528.06146  22343682.005    22343689.620
       218.000         167.000
  21442857.757   -17183010.37549 -13105365.55646  21442857.046    21442863.934
       223.000         170.000
  19653595.526   -22941940.52349 -17610009.98347  19653595.289    19653601.630
       242.000         209.000
  22232567.532   -11787353.31549  -9166223.95546  22232567.127    22232575.286
       217.000         163.000
  19967193.633    -6015649.55349  -4508299.48047  19967193.301    19967200.627
       234.000         193.000
  20263816.933   -20144727.59049 -15676836.08047  20263816.780    20263823.557
       236.000         192.000
  20765137.127   -21509379.82049 -16715367.60446  20765136.449    20765144.256
       229.000         182.000
  18814313.612   -19498457.25949 -15171288.38748  18814313.941    18814318.983
       245.000         216.000
 02  5 25  6 59 59.9940000  0  8G 2G 3G27G28G 1G31G 8G13
  22355220.769     4825446.39749   3893775.31546  22355220.388    22355227.421
       219.000         166.000
  21443876.342   -17177655.53349 -13101192.96046  21443876.560    21443882.865
       221.000         169.000
  19644589.087   -22989270.72049 -17646890.64647  19644588.773    19644595.196
       242.000         209.000
  22210992.730   -11900729.27149  -9254568.71646  22210992.354    22211000.510
       217.000         164.000
  19975723.465    -5970823.81449  -4473370.38047  19975723.268    19975730.461
       234.000         192.000
  20249906.664   -20217826.16949 -15733795.96147  20249906.231    20249913.091
       235.000         191.000
  20749082.755   -21593742.85749 -16781104.99046  20749082.939    20749089.810
       227.000         180.000
  18814299.650   -19498530.66949 -15171345.59648  18814299.851    18814304.873
       245.000         216.000
 02  5 25  7  0 29.9940000  0  8G 2G 3G27G28G 1G31G 8G13
  22366776.373     4886173.38649   3941095.02046  22366776.462    22366782.963
       219.000         166.000
  21445005.378   -17171723.54849 -13096570.63846  21445005.370    21445012.940
       222.000         171.000
  19635611.858   -23036444.86249 -17683649.70447  19635611.632    19635618.201
       242.000         210.000
  22189463.039   -12013864.99549  -9342726.25646  22189462.404    22189471.376
       218.000         165.000
  19984333.328    -5925579.17949  -4438114.86847  19984333.078    19984340.099
       235.000         189.000
  20236095.460   -20290403.37349 -15790349.56647  20236095.217    20236101.906
       235.000         189.000
  20733054.753   -21677969.21849 -16846735.86046  20733054.578    20733062.321
       227.000         181.000
  18814384.850   -19498083.27749 -15170996.98748  18814385.186    18814390.005
       246.000         216.000
 02  5 25  7  0 59.9940000  0  8G 2G 3G27G28G 1G31G 8G13
  22378351.378     4947000.96549   3988493.10446  22378351.615    22378357.845
       219.000         164.000
  21446245.325   -17165205.90949 -13091491.96846  21446245.530    21446252.936
       221.000         170.000
  19626666.429   -23083453.69549 -17720279.95247  19626666.359    19626672.538
       242.000         210.000
  22167981.176   -12126750.37049  -9430688.72346  22167981.413    22167989.879
       217.000         163.000
  19993024.239    -5879907.40649  -4402526.54047  19993024.170    19993031.030
       235.000         188.000
  20222385.883   -20362447.64749 -15846487.92147  20222385.190    20222392.247
       234.000         189.000
  20717054.969   -21762049.49649 -16912252.89946  20717054.502    20717061.850
       228.000         181.000
  18814570.767   -19497105.91149 -15170235.41248  18814571.053    18814576.121
       246.000         217.000
 02  5 25  7  1 29.9940000  0  8G 2G 3G27G28G 1G31G 8G13
  22389940.096     5007899.62649   4035946.57746  22389939.658    22389947.610
       218.000         164.000
  21447591.747   -17158130.90249 -13085978.97746  21447591.606    21447598.513
       222.000         171.000
  19617747.176   -23130324.60349 -17756802.72247  19617746.988    19617753.407
       242.000         210.000
  22146542.257   -12239411.60249  -9518476.53646  22146542.064    22146551.317
       219.000         163.000
  20001791.024    -5833837.05949  -4366627.62046  20001790.952    20001798.148
       233.000         185.000
  20208772.945   -20433984.20849 -15902230.65447  20208772.858    20208779.946
       232.000         188.000
  20701077.607   -21846011.45149 -16977677.74346  20701076.847    20701084.676
       227.000         181.000
  18814852.517   -19495625.90649 -15169082.17548  18814852.819    18814857.787
       246.000         217.000
 02  5 25  7  1 59.9940000  0  8G 2G 3G27G28G 1G31G 8G13
  22401543.158     5068870.62749   4083456.41746  22401543.121    22401550.979
       220.000         164.000
  21449045.191   -17150496.12549 -13080029.81346  21449044.961    21449052.222
       222.000         172.000
  19608854.837   -23177054.28249 -17793215.44347  19608854.530    19608861.087
       241.000         210.000
  22125147.291   -12351844.29649  -9606086.26346  22125147.187    22125155.697
       219.000         163.000
  20010634.366    -5787366.19949  -4330416.62846  20010633.733    20010641.199
       233.000         185.000
  20195257.524   -20505007.65349 -15957573.54947  20195257.057    20195263.791
       232.000         188.000
  20685123.637   -21929851.96849 -17043007.94646  20685123.434    20685129.920
       229.000         182.000
  18815230.591   -19493640.06749 -15167534.78448  18815230.853    18815235.669
       246.000         217.000
 02  5 25  7  2 29.9940000  0  8G 2G 3G27G28G 1G31G 8G13
  22413165.110     5129944.81949   4131046.65646  22413164.298    22413172.414
       218.000         165.000
  21450609.929   -17142269.95249 -13073619.81546  21450609.746    21450617.415
       222.000         173.000
  19599995.384   -23223610.15449 -17829492.73247  19599995.158    19600001.834
       242.000         210.000
  22103802.492   -12464014.70549  -9693491.63345  22103802.422    22103809.305
       219.000         162.000
  20019559.654    -5740463.53849  -4293869.15646  20019559.183    20019566.467
       232.000         184.000
  20181846.095   -20575483.14749 -16012489.46946  20181845.568    20181852.794
       231.000         187.000
  20669198.632   -22013538.53549 -17108218.21146  20669198.092    20669205.586
       229.000         181.000
  18815710.891   -19491115.88149 -15165567.89848  18815711.228    18815716.123
       246.000         218.000
 02  5 25  7  2 59.9940000  0  8G 2G 3G27G28G 1G31G 8G13
  22424800.514     5191090.57349   4178692.66846  22424800.178    22424807.671
       218.000         165.000
  21452282.582   -17133483.00149 -13066772.84346  21452281.798    21452290.018
       222.000         174.000
  19591163.622   -23270022.13049 -17865657.89047  19591163.144    19591169.909
       242.000         210.000
  22082500.641   -12575952.03549  -9780715.37045  22082499.703    22082508.197
       218.000         160.000
  20028561.125    -5693160.06749  -4257009.36446  20028561.370    20028568.023
       233.000         184.000
  20168533.849   -20645438.42649 -16067000.02646  20168533.880    20168540.658
       231.000         187.000
  20653296.571   -22097101.43049 -17173332.10346  20653296.085    20653303.618
       228.000         181.000
  18816287.976   -19488083.04749 -15163204.66348  18816288.182    18816293.207
       245.000         217.000
 02  5 25  7  3 29.9940000  0  8G 2G 3G27G28G 1G31G 8G13
  22436452.125     5252320.41449   4226404.21246  22436451.595    22436459.922
       217.000         165.000
  21454063.776   -17124122.14649 -13059478.66246  21454063.939    21454071.745
       222.000         174.000
  19582361.769   -23316275.81249 -17901699.70847  19582361.677    19582368.071
       242.000         211.000
  22061246.323   -12687640.66349  -9867745.32845  22061246.127    22061255.845
       216.000         159.000
  20037641.453    -5645442.72949  -4219827.08146  20037641.320    20037648.433
       232.000         186.000
  20155324.553   -20714856.92549 -16121092.31446  20155323.759    20155330.618
       231.000         187.000
  20637421.530   -22180526.31449 -17238338.43446  20637420.653    20637428.629
       228.000         182.000
  18816964.456   -19484527.37849 -15160434.02848  18816964.878    18816970.047
       245.000         217.000
 02  5 25  7  3 59.9940000  0  8G 2G 3G27G28G 1G31G 8G13
  22448121.296     5313644.15449   4274188.92146  22448120.506    22448129.232
       215.000         163.000
  21455956.259   -17114176.66949 -13051728.94246  21455956.539    21455964.601
       224.000         176.000
  19573592.549   -23362359.31249 -17937608.91647  19573592.197    19573598.571
       242.000         211.000
  22040042.992   -12799067.92249  -9954571.60545  22040042.023    22040050.584
       216.000         159.000
  20046803.082    -5597301.11949  -4182314.18147  20046803.105    20046809.909
       234.000         188.000
  20142218.738   -20783724.91849 -16174755.64146  20142218.268    20142225.139
       231.000         186.000
  20621574.868   -22263801.80349 -17303228.36346  20621573.807    20621581.334
       227.000         181.000
  18817742.947   -19480437.22449 -15157246.91148  18817743.308    18817748.390
       244.000         218.000
